     2.10           OBSERVATION DATA    G (GPS)             RINEX VERSION / TYPE
teqc 2002Mar14 20070717 09:05:02UTC                         PGM / RUN BY / DATE
MSWin2000|IAx86-PII|bcc32 5.0|MSWin95/98/NT/2000|486/DX+    COMMENT
teqc 2002Mar14 20070717 09:02:47UTC                         COMMENT
teqc 2002Mar14 20070713 07:55:21UTC                         COMMENT
BIT 2 OF LLI FLAGS DATA COLLECTED UNDER A/S CONDITION       COMMENT
SNR is mapped to RINEX snr flag value [1-9]                 COMMENT
L1: 3 -> 1; 8 -> 5; 40 -> 9                                 COMMENT
L2: 1 -> 1; 5 -> 5; 60 -> 9                                 COMMENT
Forced Modulo Decimation to 15 seconds                      COMMENT
teqc windowed: start @ 2007 Apr 21 12:18:45.000             COMMENT
64861110.T00                                                MARKER NAME
6486                                                        MARKER NUMBER
-Unknown- -Unknown-                                         OBSERVER / AGENCY
0220266486 TRIMBLE 5700 NP 1.04 / SP 0.00                   REC # / TYPE / VERS
00000000 TRM41249.00                                        ANT # / TYPE
        0.0000        0.0000        0.0000                  APPROX POSITION XYZ
        0.0000        0.0000        0.0000                  ANTENNA: DELTA H/E/N
     1     1                                                WAVELENGTH FACT L1/2
     6    L1    L2    C1    P2    P1    D1                  # / TYPES OF OBSERV
    15.0000                                                 INTERVAL
teqc windowed: start @ 2007 Apr 22 00:00:00.000             COMMENT
teqc windowed: delta = 86400.000 sec                        COMMENT
  2007     4    22     0     0    0.0040000     GPS         TIME OF FIRST OBS
                                                            END OF HEADER
 07  4 22  0  0  0.0040000  0  9G 1G 2G12G 4G 5G20G30G14G31
 -15477156.21549 -12043510.65647  22826238.1994   22826235.5744
      -376.8284
  -3952297.35349  -3061466.23447  25127074.8944   25127069.4224
      3224.2504
 -14338285.35749 -11153952.66547  22873032.5434   22873028.8714
     -1805.8444
 -10687997.31949  -8311174.54647  23524683.6994   23524680.0234
       864.0784
 -16020149.52449 -12463606.18247  22404510.6134   22404507.0744
     -1367.5474
 -10924791.51149  -8495291.15147  23528854.1844   23528850.5194
     -1072.0624
 -17753527.92349 -13813984.38048  22146062.2774   22146058.8834
       493.7814
  -6976376.82649  -5417338.26447  24250281.0434   24250276.5984
     -3296.9844
 -13371506.12449 -10401075.50748  23245995.5594   23245991.4344
      1884.4224
 07  4 22  0  0 15.0040000  0  9G 1G 2G12G 4G 5G20G30G14G31
 -15471423.08949 -12039043.26847  22827329.3634   22827326.9184
      -387.3284
  -4000618.45649  -3099119.04447  25117879.3404   25117874.9614
      3218.8754
 -14311127.88749 -11132791.01047  22878200.5744   22878196.2854
     -1814.8444
 -10700876.42849  -8321210.22947  23522232.9104   23522229.6484
       853.5164
 -15999557.19749 -12447560.19847  22408429.5124   22408425.6874
     -1377.8754
 -10908629.14249  -8482697.11047  23531929.7234   23531925.9344
     -1082.6724
 -17760849.68149 -13819689.62848  22144668.8094   22144665.7544
       482.7034
  -6926873.89449  -5378764.53947  24259701.5434   24259696.9614
     -3303.1724
 -13399708.72349 -10423051.57548  23240628.6914   23240624.3794
      1876.2344
 07  4 22  0  0 30.0040000  0  9G 1G 2G12G 4G 5G20G30G14G31
 -15465534.24449 -12034454.49647  22828450.1134   22828447.5084
      -397.7504
  -4048862.29749  -3136711.65647  25108699.0124   25108694.1334
      3213.6414
 -14283837.56049 -11111525.83247  22883393.7774   22883389.4654
     -1823.7814
 -10713599.09949  -8331123.98047  23519811.7074   23519808.6564
       843.0004
 -15978812.24349 -12431395.30247  22412376.9024   22412374.2344
     -1388.0784
 -10892308.25349  -8469979.53147  23535035.2694   23535031.6764
     -1093.3754
 -17768007.29949 -13825266.96848  22143306.9964   22143303.7624
       471.6724
  -6877279.23049  -5340119.36047  24269138.7384   24269134.8404
     -3309.3754
 -13427790.70449 -10444933.67148  23235285.0514   23235280.9304
      1868.0784
 07  4 22  0  0 45.0040000  0  9G 1G 2G12G 4G 5G20G30G14G31
 -15459488.60849 -12029743.63847  22829600.5434   22829597.5664
      -408.2974
  -4097027.28149  -3174242.78047  25099533.2854   25099528.8834
      3208.3444
 -14256413.10849 -11090156.13447  22888612.5194   22888608.0124
     -1832.7814
 -10726164.13849  -8340914.92747  23517420.5354   23517417.3754
       832.3914
 -15957913.36449 -12415110.44747  22416353.6994   22416351.4734
     -1398.3444
 -10875827.88949  -8457137.69447  23538171.6684   23538167.8714
     -1104.0004
 -17774999.32149 -13830715.28548  22141976.1844   22141973.2234
       460.6414
  -6827591.82849  -5301401.89447  24278594.0664   24278590.3444
     -3315.5944
 -13455750.33149 -10466720.37448  23229964.0354   23229959.7934
      1859.9534
 07  4 22  0  1  0.0040000  0  9G 1G 2G12G 4G 5G20G30G14G31
 -15453286.63449 -12024910.93747  22830780.9964   22830778.2074
      -418.5944
  -4145113.53749  -3211712.55447  25090382.9804   25090377.7114
      3203.2194
 -14228855.36849 -11068682.57448  22893856.2234   22893852.5744
     -1841.5624
 -10738571.89149  -8350583.33147  23515059.6684   23515056.7074
       821.9224
 -15936861.43849 -12398706.35147  22420359.5044   22420356.4184
     -1408.5164
 -10859188.69749  -8444172.09747  23541337.8794   23541334.9104
     -1114.5624
 -17781825.99949 -13836034.75848  22140676.8874   22140674.0434
       449.6884
  -6777812.64649  -5262612.94347  24288066.6054   24288062.4264
     -3321.6414
 -13483588.13549 -10488412.13948  23224666.9184   23224662.7664
      1851.8594
 07  4 22  0  1 15.0040000  0  9G 1G 2G12G 4G 5G20G30G14G31
 -15446928.89349 -12019956.79447  22831990.6844   22831987.8244
      -429.0784
  -4193121.29149  -3249121.22246  25081247.6054   25081240.6374
      3197.8284
 -14201165.26749 -11047105.87647  22899125.5824   22899121.8914
     -1850.4844
 -10750822.86349  -8360129.55647  23512728.5594   23512725.6214
       811.4384
 -15915657.26849 -12382183.61047  22424394.7694   22424392.0234
     -1418.7344
 -10842391.48549  -8431083.36247  23544534.5194   23544530.8944
     -1125.1414
 -17788488.09349 -13841225.99248  22139409.3714   22139406.1764
       438.5944
  -6727942.52949  -5223753.12247  24297556.7384   24297552.4964
     -3327.7814
 -13511304.47849 -10510009.26347  23219392.8094   23219388.6914
      1843.6884
 07  4 22  0  1 30.0040000  0  9G 1G 2G12G 4G 5G20G30G14G31
 -15440415.57849 -12014881.48747  22833230.1764   22833227.5044
      -439.4064
  -4241050.23249  -3286468.45546  25072126.4104   25072120.7154
      3192.4844
 -14173342.91949 -11025426.12648  22904419.7464   22904416.0984
     -1859.1564
 -10762916.66749  -8369553.31647  23510427.1444   23510423.5864
       801.0784
 -15894300.93349 -12365542.30847  22428458.4494   22428455.9374
     -1428.7664
 -10825436.38949  -8417871.59847  23547761.1294   23547757.5474
     -1135.5164
 -17794985.45349 -13846288.85948  22138172.8874   22138169.5394
       427.6884
  -6677981.79749  -5184822.67047  24307063.5904   24307059.6524
     -3333.6414
 -13538899.26749 -10531511.74647  23214141.5514   23214137.2274
      1835.6254
 07  4 22  0  1 45.0040000  0  9G 1G 2G12G 4G 5G20G30G14G31
 -15433747.66049 -12009685.75347  22834499.0044   22834496.4884
      -449.6724
  -4288900.87849  -3323754.62446  25063020.6054   25063014.0164
      3187.5164
 -14145389.42949 -11003644.21848  22909739.6214   22909736.1444
     -1868.0164
 -10774854.46749  -8378855.50047  23508155.1524   23508152.6764
       790.6414
 -15872793.62349 -12348783.36347  22432551.2854   22432548.2854
     -1438.8594
 -10808324.46149  -8404537.67647  23551017.5354   23551013.3364
     -1146.0784
 -17801318.97249 -13851224.05448  22136967.9804   22136964.8404
       416.7974
  -6627931.68849  -5145822.59947  24316588.1604   24316583.1644
     -3339.7034
 -13566372.96849 -10552919.84547  23208913.2694   23208909.5194
      1827.5314
 07  4 22  0  2  0.0040000  0  9G 1G 2G12G 4G 5G20G30G14G31
 -15426922.87849 -12004367.72547  22835797.7464   22835795.0554
      -460.2504
  -4336670.64349  -3360977.80646  25053930.1604   25053924.2774
      3181.9534
 -14117302.87549 -10981758.59047  22915083.7934   22915079.6684
     -1876.9224
 -10786633.84749  -8388034.24847  23505913.9654   23505911.1134
       779.9384
 -15851133.34549 -12331905.24147  22436672.8324   22436670.4844
     -1449.1094
 -10791053.69949  -8391079.91847  23554303.7384   23554299.6994
     -1156.7034
 -17807486.70449 -13856030.09148  22135794.1054   22135790.8444
       405.6564
  -6577790.51049  -5106751.56347  24326129.5354   24326124.5704
     -3345.8444
 -13593723.17949 -10574231.64247  23203708.9414   23203704.6094
      1819.2034
 07  4 22  0  2 15.0040000  0 10G 1G 2G12G 6G 4G 5G20G30G14G31
 -15419941.40749 -11998927.67648  22837126.5194   22837123.5784
      -470.6564
  -4384359.32449  -3398137.80446  25044855.4494   25044849.8944
      3176.5164
 -14089083.42349 -10959769.41348  22920454.4024   22920450.3444
     -1885.7504
    -25762.712 9                  25929527.230
      3488.109
 -10798254.61149  -8397089.38047  23503702.4884   23503699.3714
       769.4064
 -15829320.24649 -12314908.02747  22440824.0124   22440821.0594
     -1459.3284
 -10773624.13449  -8377498.43147  23557620.7154   23557616.5664
     -1167.1874
 -17813488.37649 -13860706.72648  22134652.0514   22134648.8594
       394.6254
  -6527558.34449  -5067609.61147  24335688.5124   24335683.8164
     -3351.8284
 -13620949.73549 -10595447.08747  23198527.6054   23198523.3834
      1811.0004
 07  4 22  0  2 30.0040000  0 10G 1G 2G12G 6G 4G 5G20G30G14G31
 -15412802.98449 -11993365.18347  22838484.6764   22838481.6524
      -480.9224
  -4431966.53049  -3435234.27746  25035796.0824   25035789.9374
      3171.2814
 -14060731.40449 -10937676.93047  22925849.5354   22925846.1604
     -1894.4694
    -78067.27249    -42845.81346  25919573.6914   25919571.8524
      3485.9384
 -10809716.80549  -8406020.96247  23501521.5194   23501518.5234
       758.8914
 -15807354.53749 -12297791.89447  22445004.0044   22445001.3754
     -1469.4224
 -10756036.00549  -8363793.39447  23560967.2234   23560963.2894
     -1177.6724
 -17819323.88549 -13865253.88448  22133541.7544   22133538.6334
       383.6414
  -6477235.78449  -5028397.26447  24345264.7464   24345259.6444
     -3357.6254
 -13648052.61949 -10616566.16747  23193370.1134   23193366.0474
      1802.8594
 07  4 22  0  2 45.0040000  0 10G 1G 2G12G 6G 4G 5G20G30G14G31
 -15405509.08149 -11987681.58847  22839872.4574   22839869.4374
      -491.3594
  -4479493.15449  -3472268.07447  25026752.1294   25026746.5044
      3165.9064
 -14032248.07249 -10915482.12747  22931269.7074   22931266.0474
     -1903.2034
   -130337.18848    -83575.56146  25909627.2694   25909625.0124
      3483.7504
 -10821021.46849  -8414829.79147  23499370.1684   23499367.1484
       748.5784
 -15785237.66549 -12280557.95547  22449212.5904   22449209.2424
     -1479.3754
 -10738290.68549  -8349965.88047  23564343.7544   23564339.9064
     -1188.1254
 -17824994.27649 -13869672.37148  22132462.6994   22132459.6954
       372.7034
  -6426824.19849  -4989115.50947  24354856.8874   24354852.8554
     -3363.5784
 -13675032.93249 -10637589.86947  23188235.8714   23188232.2304
      1794.6884
 07  4 22  0  3  0.0040000  0 10G 1G 2G12G 6G 4G 5G20G30G14G31
 -15398061.09649 -11981877.94948  22841289.6994   22841287.0164
      -501.6724
  -4526940.17049  -3509239.79147  25017724.0194   25017717.5124
      3160.4384
 -14003635.08549 -10893186.29547  22936714.3324   22936711.1254
     -1911.8284
   -182573.24748   -124278.95146  25899688.1294   25899685.3754
      3481.0474
 -10832169.57549  -8423516.60047  23497249.0984   23497246.2774
       737.9694
 -15762970.94049 -12263207.28147  22453450.3634   22453447.3324
     -1489.4844
 -10720389.49949  -8336016.88647  23567750.4964   23567746.6524
     -1198.5474
 -17830500.79049 -13873963.17148  22131414.7934   22131411.9184
       361.5944
  -6376325.30949  -4949765.73047  24364467.0594   24364462.2384
     -3369.5004
 -13701891.43949 -10658518.63648  23183125.2304   23183121.1914
      1786.5004
 07  4 22  0  3 15.0040000  0 10G 1G 2G12G 6G 4G 5G20G30G14G31
 -15390458.20349 -11975953.63548  22842736.4654   22842733.6524
      -511.9534
  -4574306.30049  -3546148.49447  25008709.9264   25008705.3914
      3155.0944
 -13974891.80449 -10870788.94747  22942184.1524   22942180.3944
     -1920.5784
   -234774.62049   -164955.34846  25889753.9964   25889751.7424
      3478.9844
 -10843160.39049  -8432080.88047  23495157.0904   23495154.4494
       727.3754
 -15740553.79749 -12245739.38247  22457715.8944   22457713.0164
     -1499.5004
 -10702331.88049  -8321945.96747  23571186.8714   23571183.4654
     -1209.0314
 -17835842.54049 -13878125.57748  22130398.2384   22130395.0004
       350.6254
  -6325738.62449  -4910347.50947  24374093.5984   24374088.8324
     -3375.2814
 -13728627.07549 -10679351.54448  23178037.2384   23178033.5274
      1778.3594
 07  4 22  0  3 30.0040000  0 10G 1G 2G12G 6G 4G 5G20G30G14G31
 -15382701.74249 -11969909.71847  22844212.7384   22844209.5904
      -522.1564
  -4621592.28349  -3582994.65847  24999712.2154   24999706.3984
      3149.8134
 -13946019.62649 -10848291.14347  22947678.3324   22947674.5194
     -1929.0624
   -286942.22148   -205605.37746  25879825.3874   25879824.1334
      3477.0004
 -10853994.99449  -8440523.43647  23493095.5744   23493092.8914
       717.2664
 -15717987.66749 -12228155.38947  22462009.8714   22462007.2814
     -1509.3914
 -10684119.32849  -8307754.36847  23574652.3634   23574648.4184
     -1219.3284
 -17841020.85649 -13882160.63748  22129412.8014   22129410.1874
       339.8134
  -6275065.66449  -4870862.15647  24383736.2544   24383731.8124
     -3381.0624
 -13755241.29749 -10700089.99048  23172973.0984   23172968.8714
      1770.2814
 07  4 22  0  3 45.0040000  0 10G 1G 2G12G 6G 4G 5G20G30G14G31
 -15374790.63449 -11963745.19847  22845717.9344   22845715.0624
      -532.5004
  -4668797.04849  -3619777.58947  24990729.8794   24990723.5354
      3144.2194
 -13917017.97449 -10825692.44047  22953197.1134   22953192.6054
     -1937.7344
   -339074.77148   -246228.18046  25869905.3874   25869904.0474
      3474.2504
 -10864672.39649  -8448843.49647  23491063.9264   23491060.9774
       706.5784
 -15695271.95549 -12210454.84147  22466333.0354   22466330.0004
     -1519.3444
 -10665751.04849  -8293441.42447  23578147.8484   23578144.0864
     -1229.7814
 -17846034.86249 -13886067.65848  22128458.5984   22128455.8834
       328.8134
  -6224306.10649  -4831309.24846  24393396.4024   24393391.2234
     -3386.8444
 -13781732.51149 -10720732.47647  23167931.7154   23167927.4374
      1761.9844
 07  4 22  0  4  0.0040000  0 10G 1G 2G12G 6G 4G 5G20G30G14G31
 -15366725.62849 -11957460.89347  22847252.8164   22847250.0594
      -542.8284
  -4715920.56949  -3656497.21447  24981762.0194   24981757.2854
      3138.8134
 -13887887.27849 -10802993.19348  22958740.7464   22958736.5864
     -1946.3914
   -391172.34149   -286823.58546  25859993.5904   25859989.5904
      3471.9384
 -10875192.79849  -8457041.19947  23489061.5664   23489058.8714
       696.1094
 -15672407.03149 -12192638.01447  22470684.0514   22470681.1954
     -1529.2974
 -10647227.49949  -8279007.44847  23581672.7854   23581669.1604
     -1240.1254
 -17850884.73749 -13889846.78748  22127535.8874   22127532.8404
       317.7814
  -6173460.36949  -4791689.17846  24403071.2694   24403066.7274
     -3392.5004
 -13808100.76449 -10741279.03347  23162914.2694   23162910.1334
      1753.7664
 07  4 22  0  4 15.0040000  0 10G 1G 2G12G 6G 4G 5G20G30G14G31
 -15358506.15349 -11951056.15647  22848816.8404   22848814.2384
      -553.1564
  -4762962.36149  -3693153.07447  24972809.6214   24972804.6054
      3133.3444
 -13858627.48749 -10780193.34647  22964308.6764   22964304.6214
     -1954.9694
   -443234.31148   -327391.38746  25850085.4184   25850082.8054
      3469.6564
 -10885555.84649  -8465116.29447  23487089.7384   23487086.8674
       685.6254
 -15649392.78549 -12174704.84747  22475063.1604   22475060.0704
     -1539.3594
 -10628548.64049  -8264452.50147  23585226.9344   23585223.5044
     -1250.4694
 -17855570.14149 -13893497.75048  22126644.0984   22126641.0474
       306.8914
  -6122528.51749  -4752002.05146  24412763.2384   24412758.7774
     -3398.3754
 -13834346.07949 -10761729.89348  23157919.9414   23157915.7504
      1745.5944
 07  4 22  0  4 30.0040000  0 10G 1G 2G12G 6G 4G 5G20G30G14G31
 -15350131.95749 -11944530.70147  22850410.4964   22850407.7544
      -563.4534
  -4809921.77849  -3729744.84947  24963873.6294   24963868.2344
      3127.8444
 -13829238.93349 -10757293.19247  22969900.9494   22969896.7234
     -1963.5944
   -495260.30848   -367931.05246  25840184.9494   25840182.0984
      3467.1564
 -10895761.30249  -8473068.60347  23485147.4804   23485145.0784
       675.0164
 -15626229.43849 -12156655.48347  22479471.3164   22479468.5274
     -1549.2664
 -10609714.40449  -8249776.48247  23588811.6214   23588807.8594
     -1260.8124
 -17860090.95749 -13897020.46648  22125783.6374   22125780.4924
       295.7814
  -6071510.93349  -4712248.09946  24422471.2544   24422467.3984
     -3404.1564
 -13860467.91049 -10782084.52148  23152949.1134   23152945.1524
      1737.2664
 07  4 22  0  4 45.0040000  0 10G 1G 2G12G 6G 4G 5G20G30G14G31
 -15341603.27649 -11937884.89447  22852033.3874   22852030.7034
      -573.6724
  -4856798.08649  -3766271.82647  24954953.2154   24954948.5164
      3122.3594
 -13799721.50449 -10734292.61647  22975517.9184   22975513.6374
     -1972.2034
   -547249.92248   -408442.42346  25830291.7384   25830289.5434
      3464.8134
 -10905809.02749  -8480897.99947  23483235.2694   23483232.6444
       664.6564
 -15602916.98249 -12138489.91547  22483907.0664   22483904.5004
     -1559.0784
 -10590724.89249  -8234979.43247  23592424.8634   23592421.1764
     -1271.1254
 -17864447.11549 -13900414.87648  22124955.2624   22124951.5784
       284.9384
  -6020407.70149  -4672427.42246  24432195.9184   24432191.8124
     -3409.7194
 -13886465.93549 -10802342.73048  23148001.7544   23147997.7664
      1729.0474
 07  4 22  0  5  0.0040000  0 10G 1G 2G12G 6G 4G 5G20G30G14G31
 -15332920.82049 -11931119.26747  22853685.4344   22853682.8634
      -584.0004
  -4903591.84149  -3802734.46847  24946048.1374   24946044.0274
      3116.7974
 -13770076.26249 -10711192.47047  22981158.8874   22981154.7544
     -1980.6414
   -599203.62549   -448925.82346  25820407.0434   25820403.0354
      3462.4384
 -10915699.42749  -8488604.81047  23481353.0194   23481350.7154
       654.0784
 -15579456.22649 -12120208.79247  22488371.7154   22488368.5234
     -1568.9374
 -10571580.91349  -8220062.04147  23596068.2624   23596064.5704
     -1281.4534
 -17868639.02949 -13903681.29548  22124157.3944   22124154.1094
       273.9064
  -5969219.87449  -4632540.78646  24441936.2544   24441931.6604
     -3415.3594
 -13912340.55049 -10822504.72848  23143077.7854   23143074.0514
      1720.8444
 07  4 22  0  5 15.0040000  0 10G 1G 2G12G 6G 4G 5G20G30G14G31
 -15324084.61649 -11924233.93047  22855366.8874   22855364.3634
      -594.2504
  -4950302.64049  -3839132.46247  24937159.4964   24937154.9184
      3111.3134
 -13740303.13749 -10687992.62347  22986824.7384   22986819.9344
     -1989.1564
   -651120.87049   -489380.71746  25810526.4884   25810522.5624
      3459.9064
 -10925432.23649  -8496188.78647  23479501.2934   23479498.9454
       643.6254
 -15555847.27349 -12101812.20347  22492864.4024   22492861.2464
     -1578.9224
 -10552282.55249  -8205024.37147  23599740.1054   23599736.9774
     -1291.6414
 -17872666.57149 -13906819.64248  22123391.0824   22123387.7154
       263.0314
  -5917947.70149  -4592588.47247  24451693.3324   24451689.3094
     -3421.0624
 -13938091.41849 -10842570.33748  23138177.5744   23138173.5354
      1712.6724
 07  4 22  0  5 30.0040000  0 10G 1G 2G12G 6G 4G 5G20G30G14G31
 -15315093.65549 -11917227.97747  22857077.8554   22857075.2154
      -604.5624
  -4996929.09449  -3875464.74447  24928287.1914   24928281.9344
      3105.6564
 -13710401.30549 -10664692.49747  22992515.0984   22992510.4734
     -1997.7504
   -703000.56549   -529806.44046  25800652.6214   25800650.3404
      3457.5004
 -10935006.63049  -8503649.37847  23477679.1294   23477677.1954
       632.9694
 -15532089.41549 -12083299.57447  22497385.5744   22497382.1844
     -1588.8284
 -10532828.92949  -8189865.70147  23603442.4264   23603438.2424
     -1302.0624
 -17876528.80449 -13909829.16748  22122655.8164   22122652.4414
       251.9534
  -5866590.73349  -4552570.04346  24461466.6054   24461461.9964
     -3426.5474
 -13963717.52949 -10862538.78047  23133301.1604   23133296.7504
      1704.1884
 07  4 22  0  5 45.0040000  0 10G 1G 2G12G 6G 4G 5G20G30G14G31
 -15305947.30749 -11910100.90547  22858818.2304   22858815.4064
      -614.8284
  -5043470.34549  -3911730.62047  24919431.3404   24919424.8984
      3099.9224
 -13680370.46149 -10641291.83647  22998230.0744   22998225.0704
     -2006.3594
   -754841.68649   -570202.15546  25790788.8094   25790784.8594
      3454.7504
 -10944421.84849  -8510985.93947  23475887.6684   23475885.0554
       622.4064
 -15508182.19849 -12064670.55747  22501934.8634   22501931.4454
     -1598.7664
 -10513219.75949  -8174585.81847  23607173.4804   23607170.3404
     -1312.3754
 -17880225.02949 -13912709.33348  22121952.6524   22121948.9804
       240.9064
  -5815148.38549  -4512485.09546  24471255.5594   24471250.8714
     -3432.3594
 -13989217.88349 -10882409.13848  23128448.5824   23128444.5124
      1695.8444
 07  4 22  0  6  0.0040000  0 10G 1G 2G12G 6G 4G 5G20G30G14G31
 -15296646.56449 -11902853.53947  22860587.9734   22860585.2814
      -625.2504
  -5089926.82249  -3947930.45647  24910590.1764   24910584.8714
      3094.1884
 -13650211.74549 -10617791.56547  23003969.0194   23003964.6874
     -2014.7814
   -806644.86649   -610568.24446  25780931.8714   25780926.1804
      3452.1254
 -10953678.48649  -8518198.90347  23474126.2154   23474123.0194
       611.7974
 -15484126.76049 -12045926.05247  22506512.5434   22506508.6174
     -1608.5944
 -10493455.94349  -8159185.43647  23610934.8164   23610930.8674
     -1322.7194
 -17883756.03949 -13915460.78648  22121280.6054   22121277.1024
       229.8754
  -5763622.08249  -4472334.73446  24481060.8484   24481056.2424
     -3437.9534
 -14014593.25849 -10902182.12748  23123619.6994   23123615.4694
      1687.5004
 07  4 22  0  6 15.0040000  0 11G 1G 2G12G 6G 4G 5G20G23G30G14G31
 -15287191.47049 -11895485.91047  22862387.4804   22862384.6994
      -635.4694
  -5136298.11049  -3984063.92647  24901766.6524   24901761.1484
      3088.5944
 -13619925.32349 -10594191.79547  23009732.3014   23009728.1444
     -2023.3284
   -858409.72149   -650904.49946  25771079.9494   25771076.4774
      3449.7344
 -10962776.40249  -8525288.16047  23472395.0124   23472392.3794
       601.2814
 -15459923.16449 -12027066.10347  22511118.3554   22511114.6524
     -1618.5314
 -10473537.58049  -8143664.62247  23614725.0904   23614721.8014
     -1333.0004
    -26249.480 9                  25891290.449
      3569.484
 -17887121.77849 -13918083.43348  22120640.3404   22120636.4534
       218.9064
  -5712012.26449  -4432119.29046  24490881.8244   24490877.4104
     -3443.5164
 -14039843.40449 -10921857.55248  23118814.8714   23118810.6564
      1679.1414
 07  4 22  0  6 30.0040000  0 11G 1G 2G12G 6G 4G 5G20G23G30G14G31
 -15277581.05849 -11887997.22847  22864215.9734   22864212.9574
      -645.8284
  -5182582.85449  -4020129.99447  24892959.1844   24892953.2694
      3082.7974
 -13589510.41649 -10570491.91347  23015519.8794   23015516.2974
     -2031.9844
   -910135.10349   -691209.97746  25761236.0434   25761233.6484
      3447.1884
 -10971714.80749  -8532253.13547  23470693.9494   23470691.1954
       590.5164
 -15435570.70449 -12008090.15347  22515752.3324   22515749.0984
     -1628.4374
 -10453463.93249  -8128022.82347  23618545.1524   23618541.6994
     -1343.3754
    -79766.08349    -43655.29746  25881106.9414   25881101.2274
      3566.0634
 -17890321.29749 -13920576.56248  22120031.3944   22120027.6724
       207.7194
  -5660317.90149  -4391838.02846  24500719.2464   24500714.4534
     -3449.1254
 -14064967.10649 -10941434.43148  23114034.0194   23114029.4694
      1670.6724
 07  4 22  0  6 45.0040000  0 11G 1G 2G12G 6G 4G 5G20G23G30G14G31
 -15267815.95249 -11880388.04047  22866074.2774   22866071.6374
      -656.1724
  -5228781.02049  -4056128.54447  24884167.5044   24884161.0004
      3077.0634
 -13558967.65349 -10546692.37647  23021331.9804   23021328.5274
     -2040.3914
   -961820.93649   -731484.66546  25751403.2154   25751397.6374
      3444.2664
 -10980493.91549  -8539094.01047  23469023.1214   23469020.6134
       579.9534
 -15411069.93149 -11988998.62247  22520414.5044   22520411.6764
     -1638.3594
 -10433235.68949  -8112260.56447  23622394.2544   23622391.0124
     -1353.6724
   -133231.75149    -85316.82946  25870932.4494   25870927.7664
      3562.6564
 -17893354.93849 -13922940.43048  22119454.1134   22119450.8054
       196.7194
  -5608539.85249  -4351491.46746  24510571.8714   24510568.0594
     -3454.6414
 -14089964.72949 -10960913.05548  23109276.8874   23109272.8834
      1662.3594
 07  4 22  0  7  0.0040000  0 11G 1G 2G12G 6G 4G 5G20G23G30G14G31
 -15257896.88749 -11872658.83547  22867962.0664   22867959.4344
      -666.3914
  -5274893.43749  -4092060.27547  24875392.2934   24875386.5164
      3071.2974
 -13528298.18249 -10522794.09647  23027168.4264   23027164.9494
     -2048.7814
  -1013467.95249   -771729.07546  25741574.0744   25741570.4774
      3441.9384
 -10989114.50149  -8545811.36747  23467382.5984   23467379.9184
       569.4384
 -15386421.96249 -11969792.38747  22525105.2304   22525101.5514
     -1648.0944
 -10412853.80049  -8096378.56447  23626272.2154   23626269.6414
     -1363.9844
   -186646.90249   -126938.97546  25860767.4734   25860762.2464
      3559.2504
 -17896223.55749 -13925175.72248  22118908.0824   22118905.1564
       185.6884
  -5556679.34049  -4311080.71446  24520440.8554   24520436.3444
     -3460.1254
 -14114836.86149 -10980293.92348  23104543.9574   23104539.7384
      1653.9384
 07  4 22  0  7 15.0040000  0 11G 1G 2G12G 6G 4G 5G20G23G30G14G31
 -15247824.72349 -11864810.36447  22869878.4884   22869875.1804
      -676.4844
  -5320920.20049  -4127925.28147  24866634.1604   24866628.5274
      3065.6414
 -13497502.74949 -10498797.64447  23033028.5514   23033024.7154
     -2057.1414
  -1065076.40549   -811943.41246  25731753.3874   25731749.2464
      3439.1564
 -10997576.96549  -8552405.51947  23465772.4344   23465769.3324
       558.9064
 -15361627.62449 -11950472.10447  22529823.4104   22529820.2664
     -1657.7664
 -10392319.00049  -8080377.42347  23630180.2074   23630177.6914
     -1374.0164
   -240011.83449   -168521.97946  25850612.8634   25850607.0944
      3556.0474
 -17898927.71949 -13927282.84748  22118393.4884   22118389.8124
       174.8134
  -5504737.32149  -4270606.42347  24530324.8874   24530320.7774
     -3465.5164
 -14139583.88949 -10999577.31148  23099834.7854   23099830.5274
      1645.6564
 07  4 22  0  7 30.0040000  0 11G 1G 2G12G 6G 4G 5G20G23G30G14G31
 -15237598.81149 -11856842.10647  22871824.6374   22871821.6134
      -686.9374
  -5366860.31749  -4163722.74747  24857891.6294   24857886.9374
      3059.7194
 -13466581.11149 -10474702.88647  23038912.4344   23038909.0784
     -2065.7034
  -1116645.55049   -852127.15146  25721939.8164   25721936.3094
      3436.5944
 -11005880.63049  -8558875.89847  23464192.5274   23464189.4224
       548.2344
 -15336686.47549 -11931037.43247  22534569.5744   22534566.0624
     -1667.7194
 -10371630.97749  -8064256.89247  23634117.1294   23634114.5274
     -1384.3754
   -293325.18349   -210064.81546  25840467.3164   25840462.6174
      3552.4844
 -17901466.84549 -13929261.40348  22117910.3014   22117907.2074
       163.7034
  -5452713.59149  -4230068.43647  24540224.8324   24540220.4144
     -3471.0004
 -14164204.90949 -11018762.48448  23095149.3554   23095145.5624
      1637.1884
 07  4 22  0  7 45.0040000  0 11G 1G 2G12G 6G 4G 5G20G23G30G14G31
 -15227219.85049 -11848754.60947  22873799.5274   22873796.4844
      -697.0624
  -5412714.00549  -4199452.85647  24849166.3554   24849161.1804
      3054.0634
 -13435534.22549 -10450510.49547  23044820.1684   23044816.8524
     -2073.9374
  -1168175.50349   -892280.35046  25712133.3244   25712130.8124
      3434.1724
 -11014026.03849  -8565222.94747  23462642.5354   23462639.1524
       537.8444
 -15311599.35849 -11911489.03247  22539343.4884   22539340.0084
     -1677.3124
 -10350790.55149  -8048017.61847  23638082.8634   23638079.7894
     -1394.4224
   -346587.62349   -251567.98446  25830332.1914   25830327.0004
      3549.1724
 -17903841.54849 -13931111.82648  22117458.4414   22117455.4774
       152.8594
  -5400609.12249  -4189467.60646  24550139.6914   24550136.4264
     -3476.2814
 -14188700.41649 -11037849.87848  23090487.9804   23090484.1564
      1628.8594
 07  4 22  0  8  0.0040000  0 11G 1G 2G12G 6G 4G 5G20G23G30G14G31
 -15216688.18949 -11840548.12747  22875803.6684   22875800.9224
      -707.1564
  -5458481.20649  -4235115.59947  24840457.3094   24840451.1334
      3048.2814
 -13404362.25049 -10426220.65247  23050752.0124   23050748.3204
     -2082.2504
  -1219666.23749   -932402.99946  25702335.5824   25702332.5984
      3431.4224
 -11022013.34449  -8571446.81947  23461122.3164   23461119.4104
       527.2194
 -15286366.70249 -11891827.23047  22544144.9734   22544141.8054
     -1687.0004
 -10329797.88049  -8031659.69547  23642077.6294   23642074.4574
     -1404.6254
   -399799.03749   -293031.41446  25820206.4344   25820201.3364
      3545.5944
 -17906051.97749 -13932834.25748  22117038.0904   22117034.2734
       141.9384
  -5348424.39149  -4148804.19846  24560069.9414   24560065.9734
     -3481.6724
 -14213070.53149 -11056839.59348  23085850.6914   23085847.0004
      1620.5164
 07  4 22  0  8 15.0040000  0 11G 1G 2G12G 6G 4G 5G20G23G30G14G31
 -15206004.44149 -11832223.13647  22877836.7154   22877833.6334
      -717.4844
  -5504162.12749  -4270711.14747  24831764.1604   24831758.5904
      3042.4064
 -13373066.07049 -10401834.01047  23056707.6374   23056703.6954
     -2090.7504
  -1271118.15849   -972495.35546  25692544.4494   25692542.3324
      3428.7344
 -11029843.11949  -8577547.94447  23459632.4574   23459629.7074
       516.6094
 -15260989.29949 -11872052.63947  22548973.9654   22548971.3484
     -1696.7664
 -10308653.89149  -8015183.87347  23646101.1374   23646097.8984
     -1414.8124
   -452959.69349   -334455.26446  25810090.5824   25810084.9734
      3542.1724
 -17908098.69549 -13934429.11648  22116648.0514   22116644.7854
       130.8284
  -5296160.45449  -4108079.06046  24570015.7154   24570012.0474
     -3487.1874
 -14237315.47749 -11075731.74548  23081236.9344   23081232.7664
      1611.9384
 07  4 22  0  8 30.0040000  0 11G 1G 2G12G 6G 4G 5G20G23G30G14G31
 -15195166.19949 -11823777.75847  22879899.1604   22879896.2854
      -727.5474
  -5549753.91749  -4306237.17247  24823087.7464   24823083.1484
      3036.5944
 -13341643.42049 -10377348.82247  23062687.0744   23062683.6134
     -2098.9064
  -1322528.40749  -1012555.20946  25682761.1684   25682758.7934
      3426.1564
 -11037512.72149  -8583524.28547  23458173.4104   23458170.0314
       506.1254
 -15235464.79949 -11852163.40547  22553831.1914   22553829.0944
     -1706.4064
 -10287356.33649  -7998588.39747  23650154.2234   23650150.7114
     -1424.8444
   -506066.64649   -375837.29546  25799984.6684   25799979.4104
      3538.8444
 -17909978.95449 -13935894.26948  22116290.6054   22116287.0624
       119.9844
  -5243815.13149  -4067290.51846  24579976.9414   24579973.6334
     -3492.2814
 -14261432.53049 -11094524.25048  23076647.5514   23076643.4104
      1603.6564
 07  4 22  0  8 45.0040000  0 11G 1G 2G12G 6G 4G 5G20G23G30G14G31
 -15184175.13349 -11815213.31147  22881990.5984   22881987.8834
      -737.8594
  -5595257.89849  -4341694.80147  24814428.6914   24814423.6994
      3030.6094
 -13310096.03649 -10352766.41847  23068690.7074   23068687.0594
     -2107.4064
  -1373898.33749  -1052583.66346  25672984.7304   25672983.0864
      3423.2504
 -11045023.76349  -8589377.04147  23456743.6134   23456741.2194
       495.3914
 -15209795.16249 -11832161.11647  22558715.7854   22558712.6764
     -1716.2034
 -10265907.01649  -7981874.63747  23654235.7304   23654232.1054
     -1435.0314
   -559121.29049   -417178.54746  25789888.9024   25789883.4304
      3535.1884
 -17911694.60449 -13937231.14548  22115964.3014   22115960.9574
       108.8134
  -5191390.39249  -4026440.07547  24589953.3094   24589949.3524
     -3497.7344
 -14285423.29149 -11113218.32248  23072082.1844   23072078.4614
      1595.1094
 07  4 22  0  9  0.0040000  0 11G 1G 2G12G 6G 4G 5G20G23G30G14G31
 -15173029.60049 -11806528.49347  22884111.5594   22884108.9184
      -748.1874
  -5640671.96249  -4377082.34647  24805786.3634   24805781.9804
      3024.5474
 -13278422.63049 -10328085.78447  23074717.6844   23074714.6334
     -2115.7344
  -1425225.97649  -1092579.24446  25663218.5354   25663215.4844
      3420.5314
 -11052374.42049  -8595104.86547  23455344.9494   23455341.8444
       484.7034
 -15183978.87749 -11812044.52947  22563628.0984   22563625.8164
     -1725.9374
 -10244304.44849  -7965041.45247  23658346.6444   23658342.9964
     -1445.2974
   -612121.65249   -458477.60046  25779802.5904   25779797.7734
      3531.5784
 -17913243.62749 -13938438.15648  22115669.3094   22115666.1094
        97.6884
  -5138884.91549  -3985526.75047  24599944.2544   24599940.5904
     -3503.0624
 -14309285.95449 -11131812.61748  23067541.2074   23067537.2544
      1586.5784
 07  4 22  0  9 15.0040000  0 11G 1G 2G12G 6G 4G 5G20G23G30G14G31
 -15161729.81949 -11797723.49747  22886262.0514   22886258.7384
      -758.3594
  -5685995.98449  -4412399.76847  24797162.0274   24797157.0394
      3018.6884
 -13246623.68749 -10303307.41647  23080768.9414   23080765.1564
     -2124.0624
  -1476511.02449  -1132541.56746  25653459.8944   25653456.8204
      3417.5474
 -11059564.73549  -8600707.71747  23453976.7774   23453974.1564
       474.0474
 -15158016.11449 -11791813.80047  22568569.0984   22568566.2504
     -1735.7034
 -10222548.86149  -7948089.05147  23662486.1844   23662483.2584
     -1455.4224
   -665067.43449   -499733.99246  25769727.3484   25769722.4064
      3527.8914
 -17914626.33649 -13939515.57148  22115406.0514   22115402.9924
        86.6884
  -5086299.13849  -3944550.83546  24609950.5744   24609946.9494
     -3508.2814
 -14333020.27649 -11150306.89448  23063024.6444   23063020.1804
      1578.1094
 07  4 22  0  9 30.0040000  0 11G 1G 2G12G 6G 4G 5G20G23G30G14G31
 -15150275.75049 -11788798.27047  22888441.3094   22888438.7934
      -768.7344
  -5731229.36349  -4447646.55747  24788554.1214   24788549.6294
      3012.5004
 -13214699.30749 -10278431.27447  23086844.2934   23086840.5864
     -2132.5474
  -1527753.26949  -1172470.61946  25643708.5434   25643704.8674
      3414.4844
 -11066594.60749  -8606185.54447  23452639.1604   23452636.9264
       463.2504
 -15131907.19649 -11771469.17747  22573537.3324   22573534.4844
     -1745.4694
 -10200640.40649  -7931017.51347  23666655.3794   23666652.2234
     -1465.7504
   -717958.22949   -540947.53146  25759663.0514   25759657.4924
      3524.1414
 -17915842.74649 -13940463.42948  22115174.8404   22115171.3284
        75.4694
  -5033633.26749  -3903512.55446  24619972.8944   24619970.0164
     -3513.7034
 -14356626.05649 -11168701.04448  23058533.0664   23058529.2304
      1569.3754
 07  4 22  0  9 45.0040000  0 11G 1G 2G12G 6G 4G 5G20G23G30G14G31
 -15138667.62049 -11779753.00647  22890650.7154   22890647.8284
      -778.9844
  -5776371.99349  -4482822.57647  24779964.1054   24779959.0194
      3006.4694
 -13182649.74749 -10253457.58747  23092942.7934   23092938.9454
     -2140.7814
  -1578952.52849  -1212366.06146  25633964.9104   25633962.1024
      3411.9064
 -11073464.04249  -8611538.36147  23451331.9264   23451329.5314
       452.7194
 -15105652.34149 -11751010.85847  22578533.6214   22578530.7234
     -1755.1874
 -10178579.37249  -7913827.09447  23670853.4414   23670850.2544
     -1475.7504
   -770793.70849   -582118.01846  25749609.2234   25749603.2034
      3520.5314
 -17916892.83449 -13941281.68648  22114975.0984   22114971.9344
        64.5164
  -4980887.69149  -3862412.04447  24630010.2464   24630006.5904
     -3519.0314
 -14380103.21049 -11186994.93347  23054065.1684   23054061.2734
      1560.8754
 07  4 22  0 10  0.0040000  0 11G 1G 2G12G 6G 4G 5G20G23G30G14G31
 -15126905.86949 -11770588.01247  22892888.6444   22892885.7974
      -789.3444
  -5821423.93549  -4517927.96947  24771390.5904   24771385.3674
      3000.3754
 -13150475.50849 -10228386.74147  23099065.3404   23099061.0514
     -2149.1724
  -1630108.93649  -1252228.21046  25624231.4574   25624227.5044
      3408.7814
 -11080173.27749  -8616766.31647  23450055.6844   23450052.8244
       441.8284
 -15079252.22149 -11730439.35047  22583557.3484   22583554.6294
     -1764.9064
 -10156366.27849  -7896518.18647  23675079.9344   23675076.7154
     -1486.1254
   -823573.95849   -623245.49546  25739564.5824   25739558.9224
      3516.8444
 -17917777.15649 -13941970.77348  22114806.6524   22114803.3244
        53.3134
  -4928063.22949  -3821250.14646  24640062.5434   24640058.9454
     -3524.3754
 -14403451.81649 -11205188.66248  23049622.2544   23049618.3204
      1552.1724
 07  4 22  0 10 15.0040000  0 11G 1G 2G12G 6G 4G 5G20G23G30G14G31
 -15114989.84649 -11761302.83847  22895156.5124   22895153.7894
      -799.5624
  -5866383.89349  -4552961.69347  24762835.5194   24762830.1484
      2994.2034
 -13118176.13749 -10203218.34347  23105211.5744   23105207.3984
     -2157.4844
  -1681221.22149  -1292055.94146  25614504.0124   25614500.7854
      3405.9064
 -11086721.47949  -8621868.82447  23448808.7304   23448806.3364
       431.1094
 -15052706.21149 -11709754.14647  22588608.8404   22588606.0354
     -1774.6564
 -10134000.57449  -7879090.36047  23679336.6844   23679333.1564
     -1496.1724
   -876297.83849   -664329.01446  25729532.1684   25729526.3244
      3512.9694
 -17918494.80649 -13942529.97348  22114670.1604   22114666.6804
        42.2034
  -4875159.38549  -3780026.33747  24650129.1294   24650126.2304
     -3529.5784
 -14426671.00749 -11223281.60147  23045203.5274   23045199.5624
      1543.6254
 07  4 22  0 10 30.0040000  0 11G 1G 2G12G 6G 4G 5G20G23G30G14G31
 -15102919.78549 -11751897.58047  22897453.1444   22897450.2584
      -809.8914
  -5911251.93749  -4587923.80747  24754297.1764   24754292.0664
      2988.1414
 -13085752.16249 -10177952.89747  23111381.7854   23111377.7074
     -2165.7814
  -1732289.49649  -1331849.36846  25604786.1294   25604782.6174
      3402.9064
 -11093108.83549  -8626845.96447  23447593.8874   23447591.0984
       420.4224
 -15026014.85449 -11688955.69847  22593688.3794   22593685.3834
     -1784.2504
 -10111482.71749  -7861543.98647  23683621.4414   23683617.7274
     -1506.2814
   -928965.41249   -705368.61546  25719509.4574   25719504.3524
      3509.2344
 -17919045.86849 -13942959.38748  22114565.4344   22114561.7584
        31.1414
  -4822176.87149  -3738741.30946  24660212.2854   24660209.0784
     -3534.6874
 -14449760.84549 -11241273.69548  23040809.8164   23040806.0904
      1535.0164
 07  4 22  0 10 45.0040000  0 11G 1G 2G12G 6G 4G 5G20G23G30G14G31
 -15090696.42549 -11742372.90247  22899779.4804   22899776.2464
      -820.0474
  -5956028.31649  -4622814.47047  24745776.6844   24745771.5554
      2982.0944
 -13053204.44149 -10152591.02747  23117575.1134   23117571.8284
     -2173.9374
  -1783313.94149  -1371608.71246  25595076.1764   25595073.0274
      3400.0944
 -11099335.87549  -8631698.18547  23446408.6374   23446405.7504
       409.8134
 -14999178.82449 -11668044.51847  22598795.0904   22598792.0164
     -1793.8914
 -10088813.36649  -7843879.55147  23687935.2624   23687931.7424
     -1516.3594
   -981576.91649   -746364.58846  25709497.7384   25709491.9844
      3505.6094
 -17919431.04049 -13943259.55848  22114492.0274   22114488.8754
        20.1564
  -4769116.47649  -3697395.54046  24670309.2074   24670306.0274
     -3540.0314
 -14472721.68249 -11259165.27248  23036440.4884   23036436.6954
      1526.4534
 07  4 22  0 11  0.0040000  0 11G 1G 2G12G 6G 4G 5G20G23G30G14G31
 -15078319.41649 -11732728.52747  22902134.5984   22902131.9344
      -830.2504
  -6000711.77149  -4657632.74147  24737273.2464   24737268.3094
      2975.8134
 -13020532.78649 -10127132.63247  23123792.7304   23123789.2194
     -2182.2344
  -1834293.84049  -1411333.25646  25585375.4574   25585372.6844
      3397.1414
 -11105402.19149  -8636425.19447  23445254.2934   23445251.7344
       399.1094
 -14972197.95149 -11647020.45047  22603929.3874   22603926.0164
     -1803.5474
 -10065992.37149  -7826096.97547  23692278.2464   23692274.3794
     -1526.4224
  -1034131.35049   -787316.12846  25699496.9264   25699490.4774
      3501.6564
 -17919649.79849 -13943430.05348  22114450.5514   22114447.2384
         9.0474
  -4715978.24249  -3655989.19846  24680420.0594   24680417.9534
     -3545.2504
 -14495552.84449 -11276955.82447  23032095.9574   23032092.0354
      1517.7504
 07  4 22  0 11 15.0040000  0 11G 1G 2G12G 6G 4G 5G20G23G30G14G31
 -15065787.76049 -11722963.62247  22904519.2854   22904516.1374
      -840.5784
  -6045301.26849  -4692377.83247  24728788.4964   24728783.2694
      2969.5164
 -12987736.44749 -10101577.05547  23130033.7234   23130030.3794
     -2190.5474
  -1885228.02049  -1451022.25646  25575683.6214   25575679.7154
      3394.0314
 -11111306.66949  -8641026.11947  23444130.5194   23444127.4344
       388.2504
 -14945071.50849 -11625882.97247  22609091.6604   22609088.1764
     -1813.2504
 -10043018.99249  -7808195.61947  23696649.9804   23696646.4264
     -1536.6564
  -1086627.56949   -828222.26646  25689507.3324   25689501.6564
      3497.8134
 -17919701.23849 -13943470.15748  22114441.0044   22114437.4884
        -2.1254
  -4662761.55849  -3614521.65446  24690548.2544   24690544.4264
     -3550.2974
 -14518253.13349 -11294644.33848  23027776.0514   23027772.1214
      1509.0314
 07  4 22  0 11 30.0040000  0 11G 1G 2G12G 6G 4G 5G20G23G30G14G31
 -15053102.30349 -11713078.84547  22906933.2934   22906930.3204
      -850.7194
  -6089797.35349  -4727050.10347  24720321.9024   24720316.2384
      2963.3754
 -12954816.12749 -10075924.88447  23136298.2854   23136294.5944
     -2198.6724
  -1936116.69149  -1490675.75946  25565999.4264   25565996.0594
      3391.2504
 -11117049.76549  -8645501.23847  23443037.9024   23443034.6644
       377.5474
 -14917800.34349 -11604632.73247  22614281.0904   22614277.3634
     -1822.7974
 -10019894.05349  -7790176.17047  23701050.6914   23701047.2664
     -1546.7194
  -1139065.91449   -869083.34147  25679528.8554   25679523.3834
      3494.0164
 -17919585.89349 -13943380.29648  22114462.7694   22114459.2464
       -13.0624
  -4609467.37649  -3572993.79147  24700689.3874   24700686.3054
     -3555.4374
 -14540823.22949 -11312231.42248  23023481.2154   23023477.3914
      1500.5004
 07  4 22  0 11 45.0040000  0 11G 1G 2G12G 6G 4G 5G20G23G30G14G31
 -15040263.83649 -11703074.80947  22909376.4184   22909373.6604
      -861.0784
  -6134200.35649  -4761649.82147  24711871.2544   24711866.3874
      2956.9384
 -12921772.91649 -10050176.93847  23142585.9494   23142582.9024
     -2207.0164
  -1986960.52849  -1530294.25346  25556324.0354   25556320.8914
      3388.0164
 -11122632.30349  -8649851.30647  23441975.9804   23441973.2114
       366.7504
 -14890385.49349 -11583270.52547  22619497.7624   22619494.2934
     -1832.5164
  -9996618.49549  -7772039.38247  23705479.3404   23705475.9614
     -1556.6564
  -1191446.86049   -909899.64847  25669561.1294   25669555.7154
      3490.1884
 -17919304.66849 -13943161.19248  22114516.3324   22114512.9694
       -24.3444
  -4556096.79149  -3531406.35047  24710845.3554   24710842.6054
     -3560.4374
 -14563263.64249 -11329717.47348  23019210.9884   23019207.0004
      1491.5634
 07  4 22  0 12  0.0040000  0 11G 1G 2G12G 6G 4G 5G20G23G30G14G31
 -15027271.27849 -11692950.75147  22911848.6914   22911845.9534
      -871.2194
  -6178508.59149  -4796175.70447  24703439.7854   24703434.5044
      2950.8594
 -12888605.90149 -10024332.55647  23148897.2544   23148894.0124
     -2215.2344
  -2037757.83149  -1569876.57846  25546657.1134   25546654.7974
      3384.9064
 -11128052.88049  -8654075.11347  23440943.4344   23440941.4144
       355.9694
 -14862825.84349 -11561795.47047  22624742.5274   22624739.1414
     -1842.1094
  -9973191.21249  -7753784.34447  23709937.9654   23709934.2734
     -1566.8914
  -1243768.59449   -950669.81446  25659604.1444   25659599.0784
      3486.1094
 -17918856.25349 -13942811.81248  22114601.5984   22114598.3124
       -35.4534
  -4502648.59049  -3489758.40346  24721015.7774   24721013.0274
     -3565.7504
 -14585572.70849 -11347101.15448  23014965.9884   23014961.8094
      1482.9384
 07  4 22  0 12 15.0040000  0 11G 1G 2G12G 6G 4G 5G20G23G30G14G31
 -15014125.93249 -11682707.61147  22914350.3874   22914346.9574
      -881.5164
  -6222723.05149  -4830628.54947  24695026.3634   24695021.0824
      2944.3594
 -12855316.47349  -9998392.75347  23155232.4494   23155228.9964
     -2223.3754
  -2088509.64749  -1609423.38146  25536999.5044   25536996.1094
      3381.8284
 -11133312.91449  -8658173.85747  23439943.1914   23439940.1724
       345.3134
 -14835122.90349 -11540208.75147  22630014.2234   22630010.7194
     -1851.7974
  -9949613.93049  -7735412.46247  23714424.3484   23714421.0194
     -1576.9064
  -1296032.18549   -991394.65847  25649659.2074   25649653.9694
      3482.1884
 -17918241.92449 -13942333.12248  22114718.6684   22114715.4224
       -46.5624
  -4449124.75849  -3448051.52847  24731201.2854   24731198.4964
     -3570.9064
 -14607751.61049 -11364383.38448  23010745.5514   23010741.1564
      1474.1414
 07  4 22  0 12 30.0040000  0 11G 1G 2G12G 6G 4G 5G20G23G30G14G31
 -15000827.66749 -11672345.32947  22916880.6844   22916878.1334
      -891.7034
  -6266842.98849  -4865007.67647  24686629.7854   24686625.7274
      2938.1884
 -12821904.76049  -9972357.66947  23161590.7934   23161586.7034
     -2231.5624
  -2139215.52149  -1648934.46046  25527350.2694   25527347.3754
      3378.9694
 -11138411.88649  -8662147.07047  23438972.7304   23438970.0004
       334.4694
 -14807276.69049 -11518510.39247  22635313.0354   22635309.9774
     -1861.2344
  -9925886.37849  -7716923.44147  23718939.3634   23718935.5824
     -1586.9844
  -1348236.99449  -1032073.68346  25639724.5514   25639719.5314
      3478.2504
 -17917461.33649 -13941724.89148  22114866.9104   22114863.4344
       -57.5944
  -4395525.34749  -3406285.78647  24741400.9264   24741398.1564
     -3575.9694
 -14629800.15449 -11381564.08948  23006549.1444   23006544.7074
      1465.4384
 07  4 22  0 12 45.0040000  0 11G 1G 2G12G 6G 4G 5G20G23G30G14G31
 -14987376.13949 -11661863.63547  22919440.7934   22919437.6294
      -901.9064
  -6310867.73049  -4899312.66347  24678252.3794   24678247.8244
      2931.7974
 -12788370.49949  -9946227.07947  23167972.0044   23167968.1954
     -2239.6724
  -2189874.50849  -1688408.90446  25517710.0354   25517707.6174
      3375.7344
 -11143349.34849  -8665994.46247  23438033.2934   23438030.7774
       323.7344
 -14779286.99949 -11496700.24447  22640638.9964   22640636.6134
     -1870.7034
  -9902008.45649  -7698317.27147  23723483.2154   23723479.9844
     -1596.9224
  -1400382.34849  -1072706.40646  25629800.4964   25629796.6054
      3474.3284
 -17916514.12049 -13940986.80848  22115047.5824   22115044.2504
       -68.7344
  -4341850.24949  -3364461.04447  24751615.6524   24751611.8284
     -3580.8594
 -14651717.52249 -11398642.56048  23002378.8094   23002375.1874
      1456.7504
 07  4 22  0 13  0.0040000  0 11G 1G 2G12G 6G 4G 5G20G23G30G14G31
 -14973770.92949 -11651262.15947  22922029.5904   22922026.7504
      -912.2974
  -6354796.45349  -4933542.84647  24669892.8874   24669887.9414
      2925.3134
 -12754713.46849  -9920000.84847  23174376.2384   23174372.1094
     -2247.9844
  -2240485.90649  -1727846.37246  25508078.6294   25508076.2814
      3372.3594
 -11148124.97849  -8669715.74247  23437124.2464   23437121.3914
       312.9694
 -14751153.52649 -11474778.03047  22645992.9024   22645990.0744
     -1880.3914
  -9877979.78049  -7679593.63647  23728056.0274   23728052.5984
     -1607.0004
  -1452467.40549  -1113292.12346  25619889.2934   25619885.1764
      3470.1254
 -17915399.87849 -13940118.55948  22115259.5354   22115255.7814
       -79.9224
  -4288099.29849  -3322577.22447  24761843.8404   24761840.3554
     -3585.8594
 -14673503.03849 -11415618.24248  22998233.1994   22998228.8754
      1447.8914
 07  4 22  0 13 15.0040000  0 11G 1G 2G12G 6G 4G 5G20G23G30G14G31
 -14960011.44249 -11640540.43847  22924647.6994   22924644.7814
      -922.4694
  -6398628.04549  -4967697.32847  24661551.7694   24661547.6844
      2918.9224
 -12720933.15849  -9893678.52847  23180804.9574   23180800.9374
     -2256.1254
  -2291048.84949  -1767245.96346  25498457.5664   25498455.3984
      3369.2034
 -11152737.87949  -8673310.23647  23436246.3484   23436243.5554
       302.1254
 -14722875.93949 -11452743.55547  22651373.6524   22651370.7504
     -1889.9694
  -9853800.05149  -7660752.28947  23732656.8874   23732653.6294
     -1616.9844
  -1504491.06149  -1153829.97446  25609989.7154   25609984.6764
      3466.2194
 -17914117.97349 -13939119.68948  22115503.2074   22115499.9654
       -91.0474
  -4234272.04149  -3280633.88046  24772086.1524   24772084.1054
     -3590.9694
 -14695155.95449 -11432490.64048  22994113.0194   22994108.5984
      1439.1564
 07  4 22  0 13 30.0040000  0 11G 1G 2G12G 6G 4G 5G20G23G30G14G31
 -14946098.68649 -11629699.32047  22927295.2234   22927292.3404
      -932.6564
  -6442362.90649  -5001776.43147  24653230.2934   24653225.6214
      2912.4534
 -12687030.65449  -9867261.00447  23187256.1444   23187252.5744
     -2264.2194
  -2341563.84349  -1806608.23146  25488845.0594   25488842.5004
      3365.9534
 -11157188.77349  -8676778.46047  23435399.7464   23435396.8164
       291.3284
 -14694455.18549 -11430597.52147  22656782.3404   22656779.0594
     -1899.4374
  -9829470.16949  -7641793.94147  23737286.6294   23737283.2734
     -1626.9844
  -1556453.71749  -1194320.34746  25600101.2934   25600096.9264
      3462.2194
 -17912669.00549 -13937990.62548  22115779.0434   22115775.5474
      -102.1094
  -4180369.99849  -3238632.27246  24782343.6684   24782341.1994
     -3596.0944
 -14716677.00549 -11449260.26748  22990017.2774   22990013.3124
      1430.3284
 07  4 22  0 13 45.0040000  0 11G 1G 2G12G 6G 4G 5G20G23G30G14G31
 -14932033.17749 -11618739.17947  22929971.5194   22929968.8834
      -942.7194
  -6486001.28849  -5035780.35447  24644926.1604   24644921.3674
      2906.0634
 -12653006.87549  -9840748.99447  23193730.4804   23193727.1994
     -2272.1724
  -2392031.00149  -1845933.28446  25479240.4184   25479238.4534
      3362.9064
 -11161478.13149  -8680120.82347  23434583.3014   23434580.5354
       280.6564
 -14665892.04949 -11408340.55947  22662217.3404   22662213.6444
     -1908.8594
  -9804990.78149  -7622719.10047  23741945.2624   23741941.8124
     -1636.7974
  -1608355.74349  -1234763.46447  25590225.5514   25590219.6874
      3458.1884
 -17911053.72949 -13936731.96448  22116086.4734   22116083.1684
      -113.1564
  -4126393.79549  -3196572.92946  24792615.0594   24792611.5434
     -3600.7504
 -14738066.36949 -11465927.29548  22985947.1604   22985942.7894
      1421.6564
 07  4 22  0 14  0.0040000  0 11G 1G 2G12G 6G 4G 5G20G23G30G14G31
 -14917815.64349 -11607660.56947  22932677.4734   22932674.6764
      -952.8594
  -6529543.58649  -5069709.42047  24636640.0354   24636635.4184
      2899.7034
 -12618862.44649  -9814142.96247  23200228.1524   23200224.4374
     -2280.2974
  -2442450.65649  -1885221.27146  25469646.3554   25469644.1524
      3359.7814
 -11165606.45649  -8683337.63547  23433797.6054   23433794.9414
       269.9384
 -14637187.25449 -11385973.18747  22667679.6604   22667676.5944
     -1918.3124
  -9780362.78849  -7603528.47447  23746631.7544   23746627.7304
     -1646.8124
  -1660197.19749  -1275159.41946  25580360.9104   25580355.1094
      3454.1254
 -17909272.49449 -13935344.01648  22116425.1844   22116422.0624
      -124.2504
  -4072344.30649  -3154456.47347  24802900.8554   24802897.4654
     -3605.5004
 -14759324.38249 -11482491.97848  22981902.0984   22981897.8404
      1412.8594
 07  4 22  0 14 15.0040000  0 11G 1G 2G12G 6G 4G 5G20G23G30G14G31
 -14903445.17149 -11596462.83147  22935412.2384   22935409.0594
      -963.0784
  -6572988.26449  -5103562.42447  24628373.1444   24628368.1874
      2893.0634
 -12584596.58249  -9787442.28747  23206748.7074   23206744.7774
     -2288.4694
  -2492821.51849  -1924471.23946  25460060.9734   25460058.2344
      3356.5474
 -11169572.75849  -8686428.27547  23433042.5744   23433040.4064
       259.0784
 -14608339.86349 -11363494.64347  22673168.8944   22673165.2934
     -1927.9064
  -9755585.19349  -7584221.23747  23751346.7544   23751342.8324
     -1656.8124
  -1711976.90549  -1315507.22747  25570507.4884   25570501.1954
      3449.9694
 -17907324.35549 -13933825.99448  22116796.0514   22116792.3914
      -135.3754
  -4018220.82549  -3112282.37746  24813199.8484   24813196.8444
     -3610.6874
 -14780449.77249 -11498953.31548  22977881.9344   22977877.9454
      1403.9694
 07  4 22  0 14 30.0040000  0 11G 1G 2G12G 6G 4G 5G20G23G30G14G31
 -14888922.37149 -11585146.39447  22938175.3634   22938172.8094
      -973.2814
  -6616335.38149  -5137339.36547  24620124.4574   24620119.6874
      2886.5314
 -12550210.19449  -9760647.73747  23213292.3714   23213287.8674
     -2296.4374
  -2543143.70549  -1963683.28746  25450485.0194   25450483.2584
      3353.1094
 -11173377.48849  -8689393.01847  23432319.0044   23432316.6604
       248.2504
 -14579350.97549 -11340905.88447  22678685.5274   22678682.3404
     -1937.2504
  -9730658.86349  -7564798.13547  23756090.1294   23756086.3014
     -1666.7034
  -1763695.10949  -1355807.10946  25560666.3014   25560659.4024
      3445.8134
 -17905209.93549 -13932178.42448  22117198.1374   22117195.3674
      -146.5474
  -3964024.34149  -3070051.34646  24823512.5824   24823510.2194
     -3615.4844
 -14801443.06149 -11515311.71548  22973887.0904   22973882.9104
      1395.1254
 07  4 22  0 14 45.0040000  0 11G 1G 2G12G 6G 4G 5G20G23G30G14G31
 -14874246.76449 -11573710.85047  22940968.3944   22940965.5864
      -983.4224
  -6659584.16249  -5171039.71347  24611894.4414   24611889.8754
      2880.0634
 -12515702.88649  -9733758.93747  23219858.9414   23219854.5164
     -2304.4224
  -2593416.71849  -2002857.05446  25440918.4494   25440916.2194
      3350.0314
 -11177020.22249  -8692231.51447  23431625.4734   23431622.9654
       237.5164
 -14550220.22049 -11318206.61047  22684228.9804   22684225.5124
     -1946.6724
  -9705583.73149  -7545259.09047  23760861.6764   23760857.6874
     -1676.5784
  -1815350.93549  -1396058.49846  25550835.8094   25550829.5124
      3441.6564
 -17902928.73649 -13930400.89848  22117632.1524   22117629.2424
      -157.5164
  -3909754.59549  -3027763.23346  24833840.5434   24833837.8094
     -3620.4694
 -14822303.59449 -11531566.66648  22969917.2074   22969913.0434
      1386.3594
 07  4 22  0 15  0.0040000  0 11G 1G 2G12G 6G 4G 5G20G23G30G14G31
 -14859418.76149 -11562156.55847  22943790.0194   22943786.9884
      -993.6874
  -6702734.55549  -5204663.38947  24603682.8244   24603678.6444
      2873.2974
 -12481075.20749  -9706776.33647  23226448.3794   23226443.8834
     -2312.6094
  -2643640.18149  -2041992.19746  25431362.1914   25431358.7384
      3346.5164
 -11180500.80849  -8694943.67347  23430963.6524   23430960.6174
       226.5944
 -14520947.91849 -11295397.01247  22689799.6054   22689795.8914
     -1956.2974
  -9680359.99849  -7525604.21947  23765661.5514   23765657.9264
     -1686.6094
  -1866944.06349  -1436260.89946  25541017.9104   25541012.0904
      3437.3444
 -17900481.03249 -13928493.62448  22118098.0984   22118095.0394
      -168.7974
  -3855412.18549  -2985418.51946  24844181.3484   24844178.0704
     -3625.1874
 -14843031.30549 -11547718.13548  22965972.8634   22965968.9694
      1377.3444
 07  4 22  0 15 15.0040000  0 11G 1G 2G12G 6G 4G 5G20G23G30G14G31
 -14844439.64949 -11550484.50747  22946640.6444   22946637.3594
     -1003.6414
  -6745787.40749  -5238211.07447  24595490.1374   24595485.5594
      2866.9844
 -12446328.72049  -9679701.17947  23233060.1134   23233056.0124
     -2320.4224
  -2693815.23549  -2081089.62846  25421813.6374   25421810.9024
      3343.3914
 -11183820.72949  -8697530.66047  23430331.5274   23430329.1724
       215.9534
 -14491535.59549 -11272478.28747  22695396.6214   22695392.8364
     -1965.5004
  -9654989.17549  -7505834.75247  23770489.4654   23770485.9024
     -1696.3754
  -1918475.50649  -1476415.25346  25531211.9024   25531206.3714
      3433.3134
 -17897867.88449 -13926457.43948  22118595.3634   22118592.0704
      -179.7034
  -3800998.73249  -2943018.46246  24854536.1604   24854533.3524
     -3629.8594
 -14863627.23949 -11563766.89948  22962053.7854   22962049.7464
      1368.6094
 07  4 22  0 15 30.0040000  0 11G 1G 2G12G 6G 4G 5G20G23G30G14G31
 -14829307.93349 -11538693.54747  22949519.9574   22949516.6644
     -1013.8444
  -6788740.76549  -5271681.19747  24587316.2544   24587311.6214
      2860.2974
 -12411461.73349  -9652532.07347  23239695.0194   23239690.8484
     -2328.4064
  -2743939.73049  -2120147.68346  25412274.8634   25412271.8204
      3340.0944
 -11186978.16049  -8699991.00447  23429731.2234   23429728.5044
       205.1094
 -14461981.81949 -11249449.36047  22701019.9964   22701016.9414
     -1974.9064
  -9629469.77349  -7485949.51947  23775346.0044   23775341.9964
     -1706.2034
  -1969943.25949  -1516519.98946  25521416.7304   25521412.6024
      3429.1724
 -17895087.77449 -13924291.12848  22119124.4184   22119121.6294
      -190.8754
  -3746512.80149  -2900561.86947  24864904.5824   24864900.7424
     -3634.7504
 -14884089.71149 -11579711.69348  22958159.7464   22958156.0164
      1359.7504
 07  4 22  0 15 45.0040000  0 11G 1G 2G12G 6G 4G 5G20G23G30G14G31
 -14814022.94249 -11526783.17547  22952428.3324   22952425.5044
     -1024.0164
  -6831593.50149  -5305072.97347  24579161.6994   24579157.4924
      2853.6094
 -12376474.04749  -9625269.00347  23246353.3484   23246349.5194
     -2336.4224
  -2794012.61149  -2159165.47646  25402746.8554   25402743.9264
      3336.6254
 -11189972.20049  -8702323.99447  23429161.3944   23429158.3524
       194.2504
 -14432286.12949 -11226309.87247  22706670.7854   22706667.5084
     -1984.4224
  -9603801.16849  -7465948.00647  23780230.5044   23780226.2894
     -1716.1564
  -2021346.03549  -1556573.97146  25511635.2464   25511631.0354
      3424.8444
 -17892139.75849 -13921993.97548  22119685.4414   22119682.2694
      -202.0164
  -3691954.08749  -2858048.57146  24875286.3094   24875283.0474
     -3639.6094
 -14904417.60449 -11595551.59248  22954291.6374   22954287.3754
      1350.8284
 07  4 22  0 16  0.0040000  0 11G 1G 2G12G 6G 4G 5G20G23G30G14G31
 -14798585.58149 -11514754.04147  22955366.0354   22955363.2584
     -1034.2664
  -6874346.01549  -5338386.59747  24571026.0434   24571021.8834
      2846.6414
 -12341366.52449  -9597912.50947  23253033.8714   23253030.5864
     -2344.5784
  -2844034.53449  -2198143.61346  25393227.2304   25393224.1564
      3332.8754
 -11192803.71449  -8704530.35547  23428622.4884   23428619.8364
       183.2814
 -14402449.51349 -11203060.55447  22712348.7464   22712345.5194
     -1993.8754
  -9577984.48249  -7445831.11547  23785142.6214   23785139.2894
     -1726.0784
  -2072684.43349  -1596577.88647  25501866.8874   25501861.7664
      3420.3134
 -17889024.92149 -13919566.83248  22120278.2774   22120275.2544
      -213.3284
  -3637323.70549  -2815479.47946  24885682.9264   24885678.9344
     -3644.5164
 -14924611.73149 -11611287.26648  22950448.6374   22950444.5594
      1341.7194
 07  4 22  0 16 15.0040000  0 11G 1G 2G12G 6G 4G 5G20G23G30G14G31
 -14782995.37049 -11502605.84347  22958332.6684   22958329.5944
     -1044.4844
  -6916997.41549  -5371621.47147  24562910.2774   24562905.3524
      2839.9694
 -12306138.72849  -9570462.29047  23259737.5664   23259733.8634
     -2352.5164
  -2894004.56849  -2237081.27046  25383718.1214   25383714.9694
      3329.7504
 -11195472.19149  -8706609.71447  23428114.8164   23428111.4924
       172.4224
 -14372471.57749 -11179701.12447  22718053.5194   22718049.6254
     -2003.2504
  -9552019.30849  -7425598.50247  23790084.3324   23790080.1054
     -1735.9844
  -2123957.51649  -1636530.93347  25492110.2774   25492105.4494
      3415.9844
 -17885742.50649 -13917009.10948  22120902.8944   22120899.5314
      -224.4064
  -3582621.42849  -2772854.33846  24896092.4024   24896088.0984
     -3649.2664
 -14944671.31149 -11626918.12248  22946631.5984   22946627.3484
      1332.7504
 07  4 22  0 16 30.0040000  0 11G 1G 2G12G 6G 4G 5G20G23G30G14G31
 -14767252.57549 -11490338.72347  22961328.6914   22961325.7034
     -1054.5784
  -6959547.61449  -5404777.44347  24554813.0594   24554808.0124
      2833.3914
 -12270791.25249  -9542918.78147  23266464.0434   23266460.4574
     -2360.4844
  -2943922.55949  -2275978.36846  25374219.4964   25374216.0704
      3326.1094
 -11197977.61349  -8708561.98647  23427637.7154   23427634.5394
       161.7194
 -14342352.81549 -11156231.94947  22723784.8714   22723781.4144
     -2012.5624
  -9525906.03949  -7405250.50347  23795052.9964   23795050.1764
     -1745.7194
  -2175165.11549  -1676432.89147  25482364.8714   25482360.3404
      3411.6414
 -17882292.73349 -13914320.94648  22121559.3554   22121556.4144
      -235.5474
  -3527847.80649  -2730173.60146  24906514.2234   24906511.4654
     -3653.8754
 -14964596.29549 -11642444.09248  22942839.9024   22942836.2424
      1323.8914
 07  4 22  0 16 45.0040000  0 11G 1G 2G12G 6G 4G 5G20G23G30G14G31
 -14751357.41749 -11477952.90647  22964353.4104   22964350.4224
     -1064.7504
  -7001996.14949  -5437854.21647  24546735.6914   24546730.6954
      2826.5164
 -12235324.42749  -9515282.32247  23273213.2234   23273209.2974
     -2368.3754
  -2993788.22949  -2314834.72246  25364730.4264   25364727.0084
      3322.6564
 -11200320.14249  -8710387.35047  23427192.1914   23427189.4414
       150.7504
 -14312093.53149 -11132653.29947  22729542.8944   22729539.7424
     -2021.9224
  -9499645.02149  -7384787.38047  23800050.6444   23800046.7304
     -1755.5474
  -2226307.02949  -1716283.70447  25472633.1444   25472627.6644
      3407.2504
 -17878675.79049 -13911502.54648  22122247.5744   22122244.3364
      -246.6564
  -3473003.12949  -2687437.55746  24916950.7934   24916947.9344
     -3658.5784
 -14984386.47249 -11657865.00948  22939073.9104   22939069.5194
      1314.8444
 07  4 22  0 17  0.0040000  0 11G 1G 2G12G 6G 4G 5G20G23G30G14G31
 -14735310.42049 -11465448.76447  22967406.8404   22967404.0124
     -1074.9224
  -7044343.22149  -5470851.91747  24538676.5044   24538672.4264
      2819.6884
 -12199738.83649  -9487553.27947  23279985.0514   23279980.8444
     -2376.3914
  -3043601.80949  -2353650.50346  25355251.1604   25355248.0474
      3319.1884
 -11202500.15649  -8712086.06547  23426777.2934   23426774.7234
       139.9064
 -14281694.41749 -11108965.71647  22735327.7774   22735324.6684
     -2031.2664
  -9473236.88349  -7364209.61747  23805075.5824   23805071.9844
     -1765.5004
  -2277383.33449  -1756083.43047  25462913.5124   25462908.1374
      3402.8444
 -17874892.23849 -13908554.32848  22122967.4574   22122964.7694
      -257.7974
  -3418088.28149  -2644646.77247  24927401.1524   24927398.0314
     -3663.4224
 -15004042.19449 -11673181.16648  22935333.6444   22935329.4654
      1305.8914
 07  4 22  0 17 15.0040000  0 11G 1G 2G12G 6G 4G 5G20G23G30G14G31
 -14719113.39649 -11452827.73247  22970488.9344   22970486.2504
     -1084.8914
  -7086590.13549  -5503771.55747  24530637.4734   24530633.3914
      2813.0164
 -12164036.60449  -9459733.36847  23286778.4654   23286774.7584
     -2384.1564
  -3093364.73949  -2392426.84546  25345781.7694   25345779.6914
      3315.7194
 -11204519.17349  -8713659.32547  23426393.4734   23426390.2304
       129.1414
 -14251157.25249 -11085170.51847  22741138.2544   22741135.6174
     -2040.5314
  -9446683.74149  -7343518.87047  23810128.8944   23810125.3124
     -1775.0784
  -2328395.34249  -1795833.03846  25453206.6444   25453201.1844
      3398.5314
 -17870943.59849 -13905477.47648  22123718.7854   22123715.7584
      -268.8444
  -3363105.29349  -2601802.86946  24937864.5514   24937861.3094
     -3667.8594
 -15023564.96249 -11688393.70548  22931618.5744   22931614.5744
      1296.9844
 07  4 22  0 17 30.0040000  0 11G 1G 2G12G 6G 4G 5G20G23G30G14G31
 -14702764.52449 -11440088.34747  22973600.0904   22973597.3714
     -1095.0164
  -7128734.56449  -5536611.40347  24522617.3714   24522612.5084
      2806.2034
 -12128215.90249  -9431821.15547  23293595.2234   23293590.9964
     -2392.0624
  -3143074.69049  -2431161.90546  25336322.4884   25336319.9104
      3312.2194
 -11206375.33149  -8715105.67947  23426039.5744   23426037.2544
       118.2814
 -14220480.50949 -11061266.58647  22746976.1294   22746973.6644
     -2049.7664
  -9419983.79549  -7322713.72047  23815209.5744   23815205.6414
     -1784.8754
  -2379340.80549  -1835530.82846  25443511.2074   25443505.5004
      3394.1414
 -17866828.03049 -13902270.54548  22124502.3404   22124498.8984
      -279.9064
  -3308052.56049  -2558904.69246  24948339.2304   24948336.3054
     -3672.5314
 -15042952.65949 -11703501.01448  22927929.6764   22927925.3094
      1287.9384
 07  4 22  0 17 45.0040000  0 11G 1G 2G12G 6G 4G 5G20G23G30G14G31
 -14686264.31249 -11427231.04647  22976740.2774   22976737.4774
     -1105.0314
  -7170776.64649  -5569371.43447  24514617.2464   24514612.0944
      2799.3914
 -12092277.39749  -9403817.13047  23300434.0354   23300429.9734
     -2399.8444
  -3192731.77149  -2469855.70846  25326873.7694   25326869.5514
      3308.7034
 -11208068.99949  -8716425.42047  23425717.5514   23425714.7464
       107.5004
 -14189664.77449 -11037254.36147  22752840.3404   22752837.8324
     -2059.0944
  -9393137.49649  -7301794.52847  23820318.1524   23820314.6134
     -1794.6564
  -2430219.68549  -1875176.70346  25433829.9264   25433823.3634
      3389.7194
 -17862545.93549 -13898933.85248  22125317.3634   22125314.1444
      -291.0314
  -3252930.74549  -2515952.55446  24958829.1374   24958826.0784
     -3677.2034
 -15062205.51949 -11718503.23848  22924265.4344   22924261.5044
      1279.0314
 07  4 22  0 18  0.0040000  0 11G 1G 2G12G 6G 4G 5G20G23G30G14G31
 -14669612.81249 -11414255.86047  22979908.7624   22979905.6954
     -1115.1414
  -7212715.95349  -5602051.42347  24506636.7154   24506632.0274
      2792.5634
 -12056221.22649  -9375721.42547  23307295.6914   23307291.6444
     -2407.5004
  -3242335.78349  -2508508.14146  25317433.7544   25317430.3794
      3305.2344
 -11209600.12949  -8717618.48047  23425426.1374   23425423.1954
        96.7504
 -14158710.20849 -11013133.92947  22758730.7694   22758727.3754
     -2068.1414
  -9366145.08549  -7280761.49247  23825454.3944   23825450.6724
     -1804.2814
  -2481031.68149  -1914770.44646  25424159.8944   25424154.4654
      3385.2814
 -17858097.35149 -13895467.42348  22126163.8244   22126160.7934
      -302.0474
  -3197740.20549  -2472947.00846  24969331.9654   24969328.6914
     -3681.3754
 -15081323.40649 -11733400.28548  22920627.6444   22920623.5704
      1270.1724
 07  4 22  0 18 15.0040000  0 11G 1G 2G12G 6G 4G 5G20G23G30G14G31
 -14652810.00549 -11401162.74847  22983106.3714   22983103.8914
     -1125.1874
  -7254551.97649  -5634650.91847  24498675.1134   24498671.1254
      2785.6094
 -12020047.52049  -9347534.13347  23314178.8164   23314175.6094
     -2415.4534
  -3291886.08249  -2547118.77346  25308005.0984   25308000.7464
      3301.5634
 -11210968.60449  -8718684.80247  23425165.5514   23425163.3324
        85.8134
 -14127616.99749 -10988905.47247  22764647.9964   22764644.4574
     -2077.5624
  -9339006.65349  -7259614.67047  23830618.5514   23830614.9414
     -1814.0164
  -2531776.36949  -1954311.73946  25414503.6214   25414498.2694
      3380.7504
 -17853482.18749 -13891871.19548  22127041.9264   22127039.0944
      -313.2504
  -3142481.25149  -2429888.12646  24979847.1134   24979844.0944
     -3686.1414
 -15100305.95649 -11748191.89648  22917015.4494   22917011.2464
      1260.9694
 07  4 22  0 18 30.0040000  0 11G 1G 2G12G 6G 4G 5G20G23G30G14G31
 -14635855.88949 -11387951.75747  22986332.5664   22986329.2664
     -1135.3594
  -7296284.20049  -5667169.54447  24490734.2934   24490729.9414
      2778.6414
 -11983756.45449  -9319255.42147  23321084.7464   23321081.4224
     -2423.5004
  -3341382.24849  -2585687.18146  25298585.1294   25298582.8674
      3297.8754
 -11212174.12549  -8719624.17047  23424936.1054   23424933.6914
        74.8594
 -14096385.08249 -10964568.92247  22770591.2234   22770587.5164
     -2086.8284
  -9311722.25149  -7238354.09247  23835810.9654   23835807.1874
     -1823.9374
  -2582453.13049  -1993800.04546  25404860.5434   25404855.7664
      3376.0634
 -17848700.37349 -13888145.11148  22127952.3484   22127948.9534
      -324.3914
  -3087153.95649  -2386775.95346  24990376.1604   24990372.2624
     -3690.8284
 -15119152.81649 -11762877.74948  22913428.8554   22913424.6134
      1251.8444
 07  4 22  0 18 45.0040000  0 11G 1G 2G12G 6G 4G 5G20G23G30G14G31
 -14618749.61049 -11374622.17347  22989587.6914   22989584.7544
     -1145.5164
  -7337911.49849  -5699606.38947  24482812.5274   24482808.6994
      2771.5784
 -11947347.21349  -9290884.57647  23328013.4344   23328010.1644
     -2431.3444
  -3390823.18249  -2624212.62646  25289177.6134   25289173.8554
      3294.1414
 -11213215.77949  -8720435.85947  23424738.1524   23424734.9614
        63.9224
 -14065013.88049 -10940123.82347  22776561.2304   22776557.4374
     -2096.2034
  -9284291.38049  -7216979.37947  23841030.9884   23841027.2624
     -1833.7034
  -2633060.69849  -2033234.47447  25395229.8554   25395224.9024
      3371.3594
 -17843750.87849 -13884288.38448  22128893.7464   22128890.8524
      -335.5944
  -3031757.75649  -2343610.14046  25000917.4264   25000913.6134
     -3695.3594
 -15137862.99249 -11777457.10448  22909868.3794   22909864.2734
      1242.7664
 07  4 22  0 19  0.0040000  0 11G 1G 2G12G 6G 4G 5G20G23G30G14G31
 -14601492.22149 -11361174.87347  22992871.9964   22992868.6804
     -1155.5784
  -7379434.41249  -5731961.91147  24474910.9494   24474906.5664
      2764.6724
 -11910821.14549  -9262422.72447  23334964.0904   23334959.9374
     -2439.0314
  -3440209.32549  -2662695.32846  25279779.4734   25279775.7624
      3290.5784
 -11214094.41049  -8721120.51147  23424571.1134   23424568.0984
        53.0944
 -14033504.53549 -10915571.10147  22782557.2154   22782553.8124
     -2105.2974
  -9256714.97649  -7195491.27747  23846278.3874   23846274.5274
     -1843.3124
  -2683599.60649  -2072615.44047  25385613.1684   25385607.8714
      3366.9224
 -17838634.69449 -13880301.76048  22129867.3014   22129864.0554
      -346.7034
  -2976293.86649  -2300391.56446  25011471.9494   25011468.3834
     -3699.9064
 -15156437.17049 -11791930.49148  22906334.0984   22906329.7034
      1233.6724
 07  4 22  0 19 15.0040000  0 11G 1G 2G12G 6G 4G 5G20G23G30G14G31
 -14584083.78349 -11347609.85247  22996184.4494   22996181.3094
     -1165.5164
  -7420852.42049  -5764235.71247  24467029.4494   24467025.2814
      2757.6094
 -11874178.47749  -9233870.03047  23341936.8404   23341933.0784
     -2446.7504
  -3489540.52749  -2701135.25346  25270391.4414   25270388.0084
      3286.8444
 -11214810.03349  -8721678.15647  23424434.7774   23424432.1094
        42.2504
 -14001857.21849 -10890910.86547  22788579.1994   22788576.0624
     -2114.4064
  -9228993.35249  -7173890.03447  23851553.9964   23851551.0984
     -1852.9534
  -2734069.52449  -2111942.57947  25376008.6054   25376004.0944
      3362.2814
 -17833351.76149 -13876185.19648  22130872.6994   22130869.1444
      -357.7034
  -2920762.64149  -2257120.53246  25022039.2304   25022035.1334
     -3704.2664
 -15174875.19049 -11806297.77548  22902825.3874   22902820.6874
      1224.6414
 07  4 22  0 19 30.0040000  0 11G 1G 2G12G 6G 4G 5G20G23G30G14G31
 -14566525.34149 -11333927.96547  22999525.8094   22999523.0394
     -1175.5004
  -7462166.07349  -5796428.17847  24459167.5274   24459163.0474
      2750.8594
 -11837420.18549  -9205227.16347  23348932.0274   23348927.6764
     -2454.3284
  -3538817.27749  -2739532.73846  25261015.1524   25261011.4224
      3283.3754
 -11215363.51249  -8722109.43047  23424329.2464   23424326.5864
        31.5784
 -13970073.10249 -10866144.01747  22794627.4494   22794624.2854
     -2123.4374
  -9201127.55149  -7152176.42247  23856856.4734   23856853.1874
     -1862.4844
  -2784470.98649  -2151216.38847  25366417.7074   25366412.9884
      3357.9224
 -17827903.03749 -13871939.44248  22131909.8324   22131906.6254
      -368.7194
  -2865165.23849  -2213797.82746  25032619.3554   25032615.7584
     -3708.6254
 -15193177.81749 -11820559.56548  22899342.4804   22899338.3324
      1215.7194
 07  4 22  0 19 45.0040000  0 11G 1G 2G12G 6G 4G 5G20G23G30G14G31
 -14548815.48749 -11320128.06947  23002895.7464   23002893.0194
     -1185.6094
  -7503373.64449  -5828538.01047  24451326.5274   24451321.8794
      2743.6414
 -11800545.18249  -9176493.36547  23355949.0194   23355944.7664
     -2462.1724
  -3588037.78949  -2777886.32146  25251648.0194   25251644.3754
      3279.5474
 -11215753.25849  -8722413.14147  23424255.3094   23424252.2504
        20.6414
 -13938151.01049 -10841269.67747  22800702.2854   22800698.8244
     -2132.7194
  -9173116.35549  -7130349.52347  23862186.7384   23862183.4844
     -1872.1874
  -2834802.18849  -2190435.45847  25356840.0434   25356835.1604
      3353.1094
 -17822287.17349 -13867563.45848  22132978.0044   22132974.8524
      -379.9224
  -2809500.68849  -2170422.91846  25043212.3634   25043208.0554
     -3713.1724
 -15211343.29049 -11834714.46748  22895885.4344   22895881.6374
      1206.4694
 07  4 22  0 20  0.0040000  0 11G 1G 2G12G 6G 4G 5G20G23G30G14G31
 -14530955.48849 -11306211.19147  23006294.4964   23006291.9344
     -1195.6414
  -7544475.80949  -5860565.64547  24443505.0194   24443500.8444
      2736.6724
 -11763554.69249  -9147669.61747  23362988.1844   23362984.2344
     -2469.8594
  -3637202.87549  -2816196.82546  25242292.6374   25242289.3984
      3275.8754
 -11215980.34449  -8722590.04847  23424212.1374   23424208.7114
         9.7814
 -13906092.11949 -10816288.72547  22806802.7854   22806799.0594
     -2141.7974
  -9144961.06149  -7108410.36147  23867544.4574   23867540.8714
     -1881.7344
  -2885063.91949  -2229600.40347  25347275.4024   25347270.4804
      3348.5474
 -17816505.14549 -13863057.99248  22134078.4734   22134075.5354
      -391.0164
  -2753770.18849  -2126996.52746  25053817.1844   25053813.4844
     -3717.5004
 -15229372.53949 -11848763.21548  22892454.8324   22892450.5354
      1197.4224
 07  4 22  0 20 15.0040000  0 11G 1G 2G12G 6G 4G 5G20G23G30G14G31
 -14512945.65649 -11292177.55247  23009721.8014   23009718.7544
     -1205.6414
  -7585472.43949  -5892511.08347  24435703.2854   24435698.6954
      2729.5944
 -11726449.14349  -9118756.16047  23370048.9654   23370044.3714
     -2477.4844
  -3686312.34349  -2854463.95746  25232947.9964   25232944.1644
      3272.1254
 -11216045.01349  -8722640.40347  23424199.7544   23424196.7544
        -1.0474
 -13873896.96049 -10791201.59347  22812929.1054   22812925.7974
     -2150.7974
  -9116662.01549  -7086359.15047  23872929.8404   23872926.3754
     -1891.3594
  -2935256.01449  -2268711.05046  25337724.2464   25337719.0864
      3343.9064
 -17810557.19349 -13858423.23148  22135210.3484   22135207.1174
      -402.0474
  -2697974.33949  -2083519.21246  25064434.5434   25064431.0944
     -3721.7504
 -15247265.65149 -11862705.88248  22889049.7624   22889045.5554
      1188.3594
 07  4 22  0 20 30.0040000  0 11G 1G 2G12G 6G 4G 5G20G23G30G14G31
 -14494785.11449 -11278026.48047  23013177.2694   23013174.5514
     -1215.7034
  -7626362.05549  -5924373.10547  24427923.0824   24427918.0474
      2722.4694
 -11689227.97949  -9089752.66847  23377131.8794   23377127.8404
     -2485.3444
  -3735364.83949  -2892686.63446  25223613.9804   25223610.9804
      3268.3134
 -11215946.28949  -8722563.46647  23424218.4104   23424215.8484
       -12.0314
 -13841564.75849 -10766007.66947  22819081.5354   22819079.1134
     -2160.0944
  -9088218.64149  -7064195.50847  23878342.0664   23878339.1334
     -1901.0474
  -2985376.98749  -2307766.28046  25328185.6764   25328181.5434
      3339.1254
 -17804442.40249 -13853658.46148  22136373.9344   22136371.0744
      -413.1724
  -2642112.56349  -2039990.61346  25075065.2624   25075061.1524
     -3726.4224
 -15265021.36749 -11876541.47948  22885670.9344   22885666.6764
      1179.1884
 07  4 22  0 20 45.0040000  0 11G 1G 2G12G 6G 4G 5G20G23G30G14G31
 -14476474.46149 -11263758.43847  23016661.5594   23016658.6524
     -1225.7504
  -7667144.94049  -5956151.98847  24420161.7464   24420156.5084
      2715.3134
 -11651891.74049  -9060659.50247  23384236.7304   23384232.9414
     -2492.9064
  -3784360.75349  -2930865.29146  25214289.3244   25214286.6804
      3264.5634
 -11215684.62049  -8722359.59147  23424268.0824   23424265.1724
       -22.8124
 -13809096.23649 -10740707.52447  22825260.0824   22825257.1334
     -2169.1254
  -9059631.61449  -7041919.90347  23883782.4104   23883778.6804
     -1910.5944
  -3035427.05249  -2346766.25146  25318661.9344   25318657.2814
      3334.2974
 -17798161.27849 -13848764.08348  22137569.3944   22137566.0434
      -424.2974
  -2586185.62849  -1996411.19046  25085707.6524   25085703.6604
     -3730.7664
 -15282640.10849 -11890270.34948  22882318.0044   22882313.8524
      1170.0164
 07  4 22  0 21  0.0040000  0 11G 1G 2G12G 6G 4G 5G20G23G30G14G31
 -14458013.15949 -11249373.02047  23020175.0044   23020171.5904
     -1235.7814
  -7707820.05149  -5987846.89647  24412421.7154   24412416.2894
      2708.0164
 -11614440.02449  -9031476.35047  23391363.0984   23391360.3794
     -2500.6564
  -3833299.04249  -2968998.96346  25204976.4024   25204973.6914
      3260.5944
 -11215259.24449  -8722028.13647  23424348.9494   23424346.2734
       -33.8444
 -13776490.87649 -10715300.75547  22831464.4494   22831461.2424
     -2178.3124
  -9030900.44049  -7019532.00047  23889249.4264   23889246.0004
     -1920.2194
  -3085405.08549  -2385710.15946  25309151.9494   25309145.8054
      3329.3914
 -17791713.04249 -13843739.49248  22138796.2624   22138793.0044
      -435.4534
  -2530193.10649  -1952780.65146  25096363.0274   25096358.9804
     -3734.9694
 -15300120.90849 -11903891.76648  22878991.8014   22878987.6334
      1160.7194
 07  4 22  0 21 15.0040000  0 11G 1G 2G12G 6G 4G 5G20G23G30G14G31
 -14439401.24749 -11234870.23147  23023716.4734   23023714.0084
     -1245.7974
  -7748386.95649  -6019457.49047  24404702.1914   24404696.7074
      2700.8284
 -11576873.03749  -9002203.36747  23398512.1374   23398508.6644
     -2508.2344
  -3882179.23349  -3007087.44046  25195674.8714   25195672.3524
      3256.8594
 -11214670.07249  -8721569.02147  23424461.3014   23424458.5824
       -44.6414
 -13743749.06649 -10689787.69147  22837695.5434   22837692.3674
     -2187.2664
  -9002025.23649  -6997031.86647  23894744.1684   23894741.4964
     -1929.6874
  -3135310.82749  -2424597.75346  25299655.5274   25299648.9884
      3324.7344
 -17785097.77849 -13838584.72448  22140055.2544   22140051.7974
      -446.5624
  -2474135.44549  -1909099.37346  25107030.4184   25107025.9804
     -3739.3124
 -15317463.65649 -11917405.58748  22875691.5744   22875687.8634
      1151.5314
 07  4 22  0 21 30.0040000  0 11G 1G 2G12G 6G 4G 5G20G23G30G14G31
 -14420638.74249 -11220250.10347  23027286.9184   23027284.5164
     -1255.8594
  -7788845.27249  -6050983.46547  24397003.0664   24396997.9574
      2693.6094
 -11539190.94549  -8972840.70247  23405682.9344   23405679.3984
     -2515.9534
  -3931001.01249  -3045130.38846  25186384.6524   25186381.5314
      3252.9224
 -11213917.05149  -8720982.22947  23424604.1374   23424601.5744
       -55.6094
 -13710870.88249 -10664168.33047  22843952.0664   22843948.8834
     -2196.3284
  -8973006.14949  -6974419.61247  23900266.3404   23900262.9064
     -1939.4064
  -3185143.77149  -2463428.63646  25290171.7774   25290166.8324
      3319.7814
 -17778315.59749 -13833299.92048  22141345.8794   22141342.4494
      -457.6874
  -2418012.87949  -1865367.48046  25117709.7624   25117706.0274
     -3743.7034
 -15334668.09649 -11930811.64248  22872417.5044   22872413.3164
      1142.3754
 07  4 22  0 21 45.0040000  0 11G 1G 2G12G 6G 4G 5G20G23G30G14G31
 -14401727.88149 -11205514.36747  23030885.7304   23030883.0664
     -1265.5314
  -7829196.69549  -6082426.20547  24389324.6604   24389319.3554
      2686.6254
 -11501396.09749  -8943390.16747  23412875.1914   23412871.7974
     -2523.3124
  -3979766.08949  -3083129.14746  25177105.2774   25177101.8054
      3249.1884
 -11213002.14849  -8720269.29547  23424778.4104   23424775.8794
       -66.3444
 -13677858.49249 -10638444.38747  22850234.4104   22850230.8554
     -2205.2034
  -8943845.57149  -6951697.09947  23905815.4494   23905812.3364
     -1948.7034
  -3234905.55449  -2502203.99947  25280702.8714   25280697.5554
      3315.2344
 -17771368.49449 -13827886.59148  22142667.7464   22142664.5394
      -468.6094
  -2361827.66349  -1821586.78146  25128401.8014   25128397.6484
     -3747.7034
 -15351736.20349 -11944111.46848  22869169.5664   22869165.6134
      1133.3594
 07  4 22  0 22  0.0040000  0 11G 1G 2G12G 6G 4G 5G20G23G30G14G31
 -14382669.07949 -11190663.34547  23034512.4184   23034509.3364
     -1275.5624
  -7869441.15549  -6113785.56047  24381666.0194   24381661.5164
      2679.3284
 -11463489.03149  -8913852.19747  23420088.4024   23420084.6764
     -2530.9694
  -4028474.55949  -3121083.78847  25167836.1294   25167832.7234
      3245.2664
 -11211925.82549  -8719430.56947  23424983.4414   23424980.3714
       -77.2344
 -13644712.62349 -10612616.44747  22856541.6294   22856538.0904
     -2214.2344
  -8914544.00349  -6928864.71947  23911391.2544   23911387.8524
     -1958.1414
  -3284596.23649  -2540924.04247  25271247.0984   25271241.5984
      3310.3594
 -17764256.85649 -13822345.04948  22144021.1294   22144017.5164
      -479.7344
  -2305580.63149  -1777757.91946  25139105.0594   25139101.2344
     -3751.9224
 -15368667.91049 -11957304.98148  22865947.6684   22865943.4774
      1124.1724
 07  4 22  0 22 15.0040000  0 11G 1G 2G12G 6G 4G 5G20G23G30G14G31
 -14363459.97849 -11175695.21447  23038167.9884   23038164.8484
     -1285.6874
  -7909575.76549  -6145059.29947  24374028.4654   24374024.0824
      2671.9384
 -11425467.57749  -8884225.06647  23427324.1214   23427319.7194
     -2538.5784
  -4077123.57449  -3158992.14647  25158578.3324   25158574.9224
      3241.1564
 -11210685.56949  -8718464.16847  23425219.3794   23425216.2074
       -88.2344
 -13611431.05049 -10586682.77347  22862874.6604   22862870.9024
     -2223.3444
  -8885099.16649  -6905920.71647  23916994.9964   23916991.2624
     -1967.7974
  -3334212.91449  -2579586.33047  25261805.1684   25261799.8914
      3305.3134
 -17756978.25849 -13816673.40348  22145406.1764   22145402.6914
      -490.8754
  -2249269.59249  -1733879.26246  25149820.5194   25149816.3794
     -3756.2504
 -15385460.61649 -11970390.19948  22862752.3014   22862747.4804
      1114.8284
 07  4 22  0 22 30.0040000  0 11G 1G 2G12G 6G 4G 5G20G23G30G14G31
 -14344100.87849 -11160610.20347  23041851.4574   23041848.5744
     -1295.6254
  -7949600.41449  -6176247.36647  24366412.7074   24366407.6294
      2664.6884
 -11387332.07049  -8854509.11147  23434580.7304   23434577.0824
     -2546.1414
  -4125712.98349  -3196853.96847  25149332.0984   25149328.8094
      3237.3594
 -11209281.34049  -8717369.93547  23425486.2694   23425483.3444
       -98.9534
 -13578014.02449 -10560643.53747  22869234.2384   22869230.9184
     -2232.2504
  -8855511.47749  -6882865.40047  23922625.3714   23922621.6484
     -1977.2194
  -3383755.40549  -2618190.82547  25252376.9804   25252372.5474
      3300.4224
 -17749532.80949 -13810871.75348  22146823.1684   22146819.6994
      -501.8594
  -2192894.84549  -1689950.83346  25160548.8404   25160544.5044
     -3760.4224
 -15402114.45149 -11983367.21448  22859582.9804   22859578.7544
      1105.7034
 07  4 22  0 22 45.0040000  0 11G 1G 2G12G 6G 4G 5G20G23G30G14G31
 -14324592.87349 -11145409.16947  23045563.9884   23045561.3754
     -1305.5004
  -7989515.59249  -6207350.10547  24358816.6134   24358811.4654
      2657.2814
 -11349083.70049  -8824705.17447  23441859.0434   23441854.9734
     -2553.6564
  -4174243.53749  -3234669.98046  25140097.0904   25140094.0664
      3233.3914
 -11207714.30949  -8716148.88547  23425785.0354   23425782.3754
      -109.8594
 -13544462.81749 -10534499.73447  22875618.5514   22875615.0904
     -2241.2194
  -8825782.16349  -6859699.69447  23928282.0274   23928278.9614
     -1986.5474
  -3433224.29249  -2656737.94647  25242963.8404   25242958.6804
      3295.4844
 -17741921.53349 -13804940.89248  22148271.4414   22148268.0824
      -512.9534
  -2136457.76449  -1645973.91346  25171288.1134   25171284.2974
     -3764.5784
 -15418630.26549 -11996236.68648  22856440.2464   22856435.9494
      1096.3914
 07  4 22  0 23  0.0040000  0 11G 1G 2G12G 6G 4G 5G20G23G30G14G31
 -14304934.67649 -11130091.11147  23049304.8714   23049302.1644
     -1315.5784
  -8029319.77049  -6238366.36647  24351242.5664   24351237.5864
      2649.9064
 -11310721.29949  -8794812.39647  23449159.2544   23449155.0704
     -2561.3594
  -4222713.34149  -3272438.67247  25130874.1054   25130870.2544
      3229.2974
 -11205982.91849  -8714799.75047  23426114.3944   23426111.1874
      -120.9694
 -13510776.28449 -10508250.48447  22882028.7624   22882025.5274
     -2250.3444
  -8795910.10849  -6836422.78747  23933966.4104   23933963.2154
     -1996.2814
  -3482617.95349  -2695226.47347  25233564.0514   25233559.5474
      3290.2974
 -17734142.90549 -13798879.62248  22149751.6134   22149748.2074
      -524.1874
  -2079957.35449  -1601947.62246  25182039.3634   25182036.5394
     -3768.9064
 -15435006.28749 -12008997.23648  22853324.0664   22853319.4534
      1087.0004
 07  4 22  0 23 15.0040000  0 12G 1G 2G12G 6G 4G 5G20G23G30G14G31G 7
 -14285127.05349 -11114656.59547  23053074.1994   23053071.1024
     -1325.4844
  -8069012.98449  -6269296.16447  24343688.7624   24343684.7384
      2642.4534
 -11272245.82049  -8764831.48647  23456480.6844   23456476.3164
     -2568.7974
  -4271122.69449  -3310160.27647  25121661.6294   25121658.9884
      3225.2344
 -11204087.85649  -8713323.09647  23426474.6524   23426472.2934
      -131.7664
 -13476955.34849 -10481896.52047  22888464.6444   22888461.1174
     -2259.1874
  -8765896.13349  -6813035.30447  23939678.3874   23939675.1134
     -2005.6724
  -3531936.51349  -2733656.50047  25224178.7464   25224174.6764
      3285.4384
 -17726197.78449 -13792688.60148  22151263.5664   22151260.1134
      -535.2814
  -2023394.48449  -1557872.63946  25192803.3874   25192799.8794
     -3772.9534
 -15451243.12849 -12021649.32648  22850234.2544   22850229.9774
      1077.8444
    -25160.310 9                  25951533.363
      3405.844
 07  4 22  0 23 30.0040000  0 12G 1G 2G12G 6G 4G 5G20G23G30G14G31G 7
 -14265170.65849 -11099106.17747  23056871.6444   23056868.7074
     -1335.3914
  -8108595.54849  -6300139.71147  24336156.5124   24336152.1294
      2635.0634
 -11233658.01849  -8734763.05847  23463823.6214   23463819.5274
     -2576.2664
  -4319471.85849  -3347834.89946  25112460.7934   25112458.2344
      3221.2344
 -11202029.47049  -8711719.13247  23426866.4494   23426863.9264
      -142.6414
 -13443000.60549 -10455438.28247  22894925.9344   22894923.0864
     -2268.0624
  -8735740.96649  -6789537.77847  23945416.8164   23945413.3834
     -2015.0944
  -3581180.04949  -2772028.07147  25214809.0514   25214803.3634
      3280.3754
 -17718086.71049 -13786368.28948  22152806.7464   22152803.2934
      -546.2504
  -1966769.98949  -1513749.72746  25203578.4734   25203574.9614
     -3776.8914
 -15467341.10949 -12034193.22648  22847171.0194   22847166.3014
      1068.5474
    -76230.76649    -41846.36446  25941814.8094   25941811.8594
      3403.4064
 07  4 22  0 23 45.0040000  0 12G 1G 2G12G 6G 4G 5G20G23G30G14G31G 7
 -14245065.91949 -11083440.14847  23060697.4344   23060693.8714
     -1345.2814
  -8148067.47049  -6330897.11747  24328645.8094   24328641.7894
      2627.7504
 -11194958.43049  -8704607.54347  23471187.5664   23471184.0124
     -2583.7504
  -4367760.93449  -3385462.73546  25103271.8164   25103268.8524
      3217.3134
 -11199808.32149  -8709988.37947  23427289.2234   23427286.6254
      -153.4694
 -13408912.74249 -10428876.33447  22901412.5434   22901409.6914
     -2276.9844
  -8705445.13649  -6765930.64147  23951181.9734   23951178.3244
     -2024.5164
  -3630348.55949  -2810341.16647  25205451.5044   25205446.9264
      3275.3594
 -17709810.04049 -13779918.93048  22154381.8634   22154378.9884
      -557.2664
  -1910084.50849  -1469579.22046  25214365.5354   25214361.7814
     -3780.9844
 -15483300.48949 -12046629.12048  22844133.9964   22844130.0554
      1059.3134
   -127267.08449    -81614.92846  25932103.5274   25932099.8364
      3401.2194
 07  4 22  0 24  0.0040000  0 12G 1G 2G12G 6G 4G 5G20G23G30G14G31G 7
 -14224813.21349 -11067658.82247  23064551.8324   23064548.1214
     -1355.1094
  -8187428.44649  -6361568.01547  24321155.3164   24321150.6604
      2620.3284
 -11156147.47349  -8674365.23847  23478573.5594   23478570.3714
     -2591.1254
  -4415989.72449  -3423043.63846  25094095.1134   25094091.1054
      3213.2034
 -11197424.36749  -8708130.75347  23427742.4804   23427740.0554
      -164.4224
 -13374692.29449 -10402211.05447  22907924.2544   22907921.4104
     -2285.7814
  -8675009.14249  -6742214.28847  23956973.4414   23956969.7974
     -2033.6874
  -3679442.08149  -2848595.84446  25196109.4104   25196104.3054
      3270.3914
 -17701368.29849 -13773340.94648  22155988.1844   22155984.6994
      -568.3444
  -1853338.60949  -1425361.65946  25225163.6524   25225160.0194
     -3785.1094
 -15499121.09749 -12058956.86548  22841123.3714   22841118.8404
      1050.0474
   -178269.43049   -121357.02046  25922397.6214   25922394.2664
      3399.0474
 07  4 22  0 24 15.0040000  0 12G 1G 2G12G 6G 4G 5G20G23G30G14G31G 7
 -14204414.55149 -11051763.76247  23068433.3404   23068430.0274
     -1364.7664
  -8226679.95449  -6392153.57847  24313685.8794   24313680.6764
      2613.1094
 -11117227.26049  -8644037.80547  23485979.3164   23485976.2074
     -2598.2344
  -4464159.92249  -3460578.84547  25084928.3484   25084924.7344
      3209.2974
 -11194879.66649  -8706147.85547  23428227.0664   23428224.2304
      -174.8594
 -13340341.30349 -10375444.08047  22914460.6994   22914457.9924
     -2294.3284
  -8644435.17649  -6718390.44847  23962791.6684   23962788.2074
     -2042.8284
  -3728462.15649  -2886793.31446  25186781.5904   25186776.0704
      3265.5944
 -17692763.27049 -13766635.71948  22157625.7154   22157622.8204
      -579.1094
  -1796534.70749  -1381098.90446  25235973.1844   25235969.7664
     -3788.7344
 -15514804.89949 -12071178.00848  22838138.4264   22838134.4614
      1041.0784
   -229239.35749   -161073.78346  25912699.1374   25912695.1294
      3396.7194
 07  4 22  0 24 30.0040000  0 12G 1G 2G12G 6G 4G 5G20G23G30G14G31G 7
 -14183870.09249 -11035755.09647  23072342.7854   23072339.5784
     -1374.5004
  -8265821.71349  -6422653.61847  24306237.5194   24306232.1954
      2605.7034
 -11078198.23949  -8613625.57747  23493406.4264   23493403.1914
     -2605.5164
  -4512271.21449  -3498068.17947  25075773.5514   25075770.2344
      3205.4694
 -11192174.35749  -8704039.79747  23428742.0904   23428739.2114
      -185.8124
 -13305860.07949 -10348575.60047  22921022.1524   22921019.8754
     -2303.0474
  -8613723.51049  -6694459.28747  23968635.7854   23968632.6644
     -2052.0624
  -3777408.28549  -2924933.14146  25177466.5984   25177462.1374
      3260.5784
 -17683994.99049 -13759803.26248  22159294.2694   22159290.9304
      -590.0314
  -1739673.05549  -1336791.10346  25246793.9414   25246790.1254
     -3792.7664
 -15530351.53249 -12083292.25648  22835180.4804   22835176.2424
      1031.7974
   -280176.72549   -200765.30446  25903004.9184   25903001.8244
      3394.7974
 07  4 22  0 24 45.0040000  0 12G 1G 2G12G 6G 4G 5G20G23G30G14G31G 7
 -14163179.79449 -11019632.79747  23076279.9104   23076276.5864
     -1384.2974
  -8304853.39849  -6453067.93547  24298809.9574   24298804.6094
      2598.3134
 -11039060.38849  -8583128.57547  23500854.3944   23500851.2034
     -2612.8444
  -4560322.95949  -3535511.05846  25066628.0514   25066625.5984
      3201.4844
 -11189308.07749  -8701806.33647  23429287.1684   23429284.6844
      -196.4844
 -13271248.63549 -10321605.64347  22927609.0664   22927605.6644
     -2311.8444
  -8582874.09249  -6670420.76947  23974506.4414   23974502.6764
     -2061.2344
  -3826279.91349  -2963014.94546  25168166.8164   25168162.4064
      3255.5634
 -17675063.16249 -13752843.37248  22160994.2074   22160990.6764
      -600.9694
  -1682753.79849  -1292438.43746  25257625.4184   25257621.7974
     -3796.5164
 -15545760.74449 -12095299.43748  22832248.0904   22832244.3204
      1022.6724
   -331080.83949   -240430.87846  25893319.1914   25893314.2274
      3392.5004
 07  4 22  0 25  0.0040000  0 12G 1G 2G12G 6G 4G 5G20G23G30G14G31G 7
 -14142342.52449 -11003395.97547  23080245.2304   23080241.8404
     -1394.0624
  -8343773.35049  -6483395.17547  24291403.9344   24291398.4344
      2590.9534
 -10999812.61649  -8552545.90047  23508322.8164   23508319.4344
     -2620.1874
  -4608313.74249  -3572906.44146  25057496.3244   25057493.3364
      3197.2974
 -11186279.52749  -8699446.43147  23429863.6604   23429860.9144
      -207.3444
 -13236506.01249 -10294533.47947  22934220.4654   22934217.4264
     -2320.5314
  -8551885.85249  -6646274.11847  23980403.1994   23980399.8404
     -2070.5624
  -3875075.49349  -3001037.45646  25158881.9414   25158876.9534
      3250.5634
 -17665966.67349 -13745755.16748  22162725.1054   22162721.7234
      -611.9844
  -1625775.89049  -1248040.13746  25268467.5044   25268464.4374
     -3800.5944
 -15561031.09949 -12107198.40848  22829342.3244   22829338.4804
      1013.4064
   -381950.18849   -280069.28546  25883638.8244   25883634.5784
      3390.0314
 07  4 22  0 25 15.0040000  0 12G 1G 2G12G 6G 4G 5G20G23G30G14G31G 7
 -14121359.26949 -10987045.36247  23084238.1374   23084234.6134
     -1403.7194
  -8382582.00449  -6513635.63847  24284018.4264   24284012.7544
      2583.4694
 -10960456.21049  -8521878.56647  23515812.2544   23515809.3984
     -2627.3754
  -4656244.03949  -3610254.72447  25048375.9494   25048372.2344
      3193.3134
 -11183089.74649  -8696960.92647  23430470.7384   23430467.5904
      -218.1094
 -13201633.30749 -10267359.95747  22940856.8794   22940853.1994
     -2329.1564
  -8520760.02649  -6622020.24447  23986326.3094   23986322.9304
     -2079.5314
  -3923795.39649  -3039000.96247  25149610.4734   25149605.7234
      3245.5004
 -17656706.49349 -13738539.42348  22164486.7624   22164483.1484
      -622.7814
  -1568740.46049  -1203596.96846  25279320.4104   25279318.0984
     -3804.3754
 -15576163.39249 -12118989.79648  22826462.4804   22826458.5044
      1004.2194
   -432785.42849   -319681.13846  25873963.5354   25873961.1054
      3388.0164
 07  4 22  0 25 30.0040000  0 12G 1G 2G12G 6G 4G 5G20G23G30G14G31G 7
 -14100230.39249 -10970581.30547  23088258.5514   23088256.0554
     -1413.3594
  -8421279.11249  -6543789.18147  24276655.0984   24276649.6294
      2576.1414
 -10920991.54849  -8491126.88147  23523321.8794   23523318.8404
     -2634.5314
  -4704113.74949  -3647555.81347  25039265.7154   25039262.8594
      3189.2974
 -11179738.71549  -8694349.73547  23431108.1054   23431105.5124
      -228.6874
 -13166630.86549 -10240085.34747  22947517.4264   22947514.3404
     -2337.7194
  -8489496.97449  -6597659.43647  23992275.2934   23992271.9804
     -2088.7974
  -3972439.53149  -3076905.44347  25140353.9344   25140348.8794
      3240.4694
 -17647282.71149 -13731196.21648  22166280.4964   22166277.0554
      -633.6724
  -1511648.08449  -1159109.38946  25290185.9104   25290181.8164
     -3808.0004
 -15591157.52749 -12130673.54248  22823608.9964   22823605.0944
       995.1564
   -483586.38449   -359266.30446  25864296.5824   25864293.9804
      3385.7504
 07  4 22  0 25 45.0040000  0 12G 1G 2G12G 6G 4G 5G20G23G30G14G31G 7
 -14078954.47949 -10954002.67947  23092307.2774   23092304.2624
     -1423.3124
  -8459862.91549  -6573854.49647  24269312.9414   24269307.7974
      2568.5474
 -10881417.32449  -8460289.81247  23530853.3164   23530849.5624
     -2641.8754
  -4751921.04349  -3684808.21247  25030168.6294   25030165.8054
      3185.0314
 -11176224.98849  -8691611.75147  23431776.8094   23431773.9844
      -239.6414
 -13131497.44449 -10212708.66447  22954203.0514   22954200.0434
     -2346.5474
  -8458095.56849  -6573190.82747  23998250.4884   23998247.7974
     -2098.0164
  -4021006.05549  -3114749.44047  25131112.2544   25131107.2234
      3235.1884
 -17637694.12049 -13723724.56148  22168104.7074   22168101.6094
      -644.7344
  -1454497.59949  -1114576.56946  25301060.4884   25301057.2344
     -3812.0314
 -15606011.97449 -12142248.42448  22820782.4104   22820778.3484
       985.5944
   -534351.21149   -398823.29246  25854637.5194   25854633.1484
      3383.0474
 07  4 22  0 26  0.0040000  0 12G 1G 2G12G 6G 4G 5G20G23G30G14G31G 7
 -14057531.18949 -10937309.20347  23096384.0744   23096380.8944
     -1433.0314
  -8498332.61249  -6603830.86247  24261992.1294   24261987.6174
      2560.8594
 -10841733.28649  -8429367.19147  23538404.6214   23538401.4614
     -2649.2814
  -4799665.07349  -3722011.38847  25021083.8794   25021080.3444
      3180.8134
 -11172548.07449  -8688746.61247  23432476.7774   23432473.8714
      -250.5314
 -13096232.84549 -10185229.74547  22960913.5354   22960910.9654
     -2355.3284
  -8426555.41449  -6548614.11947  24004252.8014   24004249.7304
     -2107.2664
  -4069494.06749  -3152532.30847  25121885.2694   25121879.8594
      3229.8594
 -17627940.26049 -13716124.15348  22169961.1374   22169958.1054
      -655.6564
  -1397288.97649  -1069998.39646  25311947.1914   25311943.4574
     -3815.8444
 -15620726.08549 -12153713.95348  22817982.8014   22817978.4614
       976.2504
   -585079.18449   -438351.60246  25844984.9024   25844980.6134
      3380.5004
 07  4 22  0 26 15.0040000  0 12G 1G 2G12G 6G 4G 5G20G23G30G14G31G 7
 -14035961.36549 -10920501.53347  23100488.5904   23100485.6294
     -1442.9064
  -8536688.63149  -6633718.65247  24254693.2234   24254688.5824
      2553.2504
 -10801940.41749  -8398359.76847  23545976.9414   23545973.9344
     -2656.4844
  -4847346.32149  -3759165.61246  25012009.8164   25012007.3874
      3176.6564
 -11168708.75949  -8685754.94847  23433207.2074   23433204.1954
      -261.2974
 -13060838.13649 -10157649.48747  22967648.7694   22967646.2974
     -2363.9844
  -8394877.54249  -6523930.07447  24010281.2154   24010277.9454
     -2116.4694
  -4117904.09449  -3190254.40947  25112672.9884   25112667.5554
      3224.7344
 -17618021.89749 -13708395.55748  22171848.4574   22171845.4144
      -666.7194
  -1340023.16649  -1025375.71646  25322844.7464   25322840.9144
     -3819.6874
 -15635300.46849 -12165070.61248  22815209.3244   22815204.7544
       966.9694
   -635770.80849   -477851.62546  25835338.4344   25835335.1024
      3378.3134
 07  4 22  0 26 30.0040000  0 12G 1G 2G12G 6G 4G 5G20G23G30G14G31G 7
 -14014245.02049 -10903579.71647  23104621.1604   23104618.2154
     -1452.5784
  -8574930.40449  -6663517.45047  24247416.2624   24247411.3754
      2545.8134
 -10762038.63549  -8367267.45347  23553570.0434   23553566.4734
     -2663.7194
  -4894964.25549  -3796270.45746  25002947.6054   25002945.6254
      3172.4384
 -11164706.88649  -8682636.61747  23433968.8244   23433966.5084
      -272.0784
 -13025313.32549 -10129967.83747  22974408.9184   22974405.9144
     -2372.5164
  -8363062.01749  -6499138.75747  24016335.7234   24016331.7974
     -2125.5624
  -4166235.31849  -3227915.07247  25103476.2464   25103470.7934
      3219.6094
 -17607938.92149 -13700538.70148  22173767.0194   22173763.7894
      -677.6094
  -1282700.22949   -980708.48246  25333752.5984   25333749.0744
     -3823.4064
 -15649734.56049 -12176317.94548  22812462.6764   22812457.9734
       957.6564
   -686425.62349   -517322.85946  25825698.3634   25825694.8054
      3376.0784
 07  4 22  0 26 45.0040000  0 12G 1G 2G12G 6G 4G 5G20G23G30G14G31G 7
 -13992382.40349 -10886543.90047  23108781.5194   23108778.9374
     -1462.4534
  -8613057.62049  -6693226.96247  24240160.6374   24240156.2074
      2538.0314
 -10722028.55549  -8336090.75647  23561183.5274   23561180.0124
     -2671.0004
  -4942518.79049  -3833325.90446  24993899.2624   24993895.9654
      3168.1254
 -11160542.63049  -8679391.71547  23434761.1994   23434758.3124
      -283.0164
 -12989658.81749 -10102185.08947  22981194.2464   22981190.9264
     -2381.2814
  -8331109.21649  -6474240.48547  24022416.0274   24022411.9104
     -2134.7974
  -4214487.76549  -3265514.36747  25094293.4414   25094288.4344
      3214.1724
 -17597691.56549 -13692553.76648  22175716.8944   22175713.7774
      -688.6254
  -1225320.76949   -935997.25846  25344672.4024   25344667.5824
     -3827.2194
 -15664028.47649 -12187456.06048  22809742.4024   22809738.4884
       948.2814
   -737043.33449   -556765.20546  25816066.4574   25816063.2934
      3373.3284
 07  4 22  0 27  0.0040000  0 12G 1G 2G12G 6G 4G 5G20G23G30G14G31G 7
 -13970374.18749 -10869394.65447  23112969.8874   23112967.4534
     -1472.0474
  -8651070.65949  -6722847.51647  24232926.9654   24232922.6954
      2530.5314
 -10681911.00049  -8304830.32947  23568817.4574   23568813.9264
     -2677.9844
  -4990010.01949  -3870332.04746  24984861.9344   24984858.4024
      3164.0004
 -11156216.54749  -8676020.75647  23435584.4104   23435582.1054
      -293.8284
 -12953875.38149 -10074301.90247  22988003.2304   22987999.6024
     -2389.7974
  -8299019.87849  -6449235.77547  24028522.4104   24028519.2694
     -2143.7664
  -4262661.48049  -3303052.33647  25085126.6844   25085121.1914
      3208.9064
 -17587280.31349 -13684441.08448  22177698.3714   22177694.9964
      -699.5314
  -1167885.59149   -891242.53946  25355601.0664   25355597.9104
     -3830.8594
 -15678182.60649 -12198485.25348  22807049.0744   22807044.5784
       938.9694
   -787624.22949   -596178.86546  25806441.5824   25806439.0194
      3371.0474
 07  4 22  0 27 15.0040000  0 12G 1G 2G12G 6G 4G 5G20G23G30G14G31G 7
 -13948220.27449 -10852131.86947  23117184.9804   23117182.7814
     -1481.7974
  -8688968.70549  -6752378.42447  24225715.2384   24225710.2504
      2522.6564
 -10641685.84549  -8273486.07547  23576472.0744   23576468.4304
     -2685.2814
  -5037437.40649  -3907288.46047  24975836.4104   24975833.3554
      3159.6564
 -11151728.33549  -8672523.45047  23436438.5824   23436436.3914
      -304.6414
 -12917963.00949 -10046318.22947  22994837.5904   22994834.7464
     -2398.5004
  -8266794.06249  -6424124.76447  24034654.7934   24034651.1764
     -2152.8754
  -4310755.88749  -3340528.44747  25075974.5124   25075969.6174
      3203.5944
 -17576704.82949 -13676200.44148  22179710.6764   22179707.5234
      -710.6414
  -1110394.80949   -846444.55847  25366541.5594   25366537.3914
     -3834.5004
 -15692196.65249 -12209405.29448  22804382.3324   22804377.9144
       929.5474
   -838167.72349   -635563.36946  25796824.9804   25796819.1914
      3368.0944
 07  4 22  0 27 30.0040000  0 12G 1G 2G12G 6G 4G 5G20G23G30G14G31G 7
 -13925919.86449 -10834754.92147  23121428.8794   23121426.3014
     -1491.5314
  -8726750.54749  -6781818.81047  24218525.5664   24218520.4064
      2514.8914
 -10601352.53949  -8242057.52147  23584147.7074   23584144.0234
     -2692.4694
  -5084799.73449  -3944194.15246  24966824.0664   24966820.8364
      3155.3134
 -11147077.05349  -8668899.08947  23437323.4654   23437321.3674
      -315.5164
 -12881921.08049 -10018233.62847  23001695.7854   23001692.6334
     -2407.0784
  -8234431.15449  -6398906.94847  24040813.0824   24040809.6134
     -2162.0164
  -4358769.65749  -3377941.77447  25066837.3324   25066833.1054
      3198.3134
 -17565964.27449 -13667831.18348  22181754.6524   22181751.3754
      -721.4374
  -1052847.69849   -801602.66346  25377492.5594   25377488.6994
     -3838.4064
 -15706069.30949 -12220215.15548  22801742.1764   22801738.0554
       920.2194
   -888672.68349   -674917.75246  25787213.2934   25787209.3834
      3365.5004
 07  4 22  0 27 45.0040000  0 12G 1G 2G12G 6G 4G 5G20G23G30G14G31G 7
 -13903473.70849 -10817264.40747  23125700.3014   23125698.0164
     -1501.2504
  -8764416.54249  -6811168.96947  24211358.2774   24211352.7694
      2507.1414
 -10560911.72249  -8210545.21447  23591843.0984   23591839.4964
     -2699.5784
  -5132097.32549  -3981049.48946  24957823.2074   24957820.2384
      3150.9844
 -11142263.35149  -8665148.15847  23438240.2074   23438237.2544
      -326.2504
 -12845750.38249  -9990048.68747  23008578.7464   23008575.8284
     -2415.6724
  -8201931.89949  -6373582.84447  24046997.6134   24046993.8674
     -2171.1414
  -4406703.08449  -3415292.46547  25057716.3794   25057711.7344
      3192.8754
 -17555059.60649 -13659334.03048  22183829.3944   22183826.2814
      -732.4374
   -995245.18549   -756717.61146  25388454.5194   25388450.6804
     -3842.0314
 -15719801.21549 -12230915.33748  22799129.4104   22799125.2154
       910.7664
   -939139.39049   -714242.47646  25777608.4884   25777605.7304
      3363.1564
 07  4 22  0 28  0.0040000  0 12G 1G 2G12G 6G 4G 5G20G23G30G14G31G 7
 -13880882.17949 -10799660.63047  23129999.3634   23129996.7934
     -1510.9224
  -8801966.35949  -6840428.57447  24204212.9734   24204206.9064
      2499.5164
 -10520364.07449  -8178949.64847  23599559.2074   23599555.5474
     -2706.6724
  -5179330.00749  -4017854.11646  24948835.1444   24948832.8324
      3146.6094
 -11137287.37149  -8661270.73447  23439186.6054   23439184.6604
      -337.0784
 -12809451.40749  -9961763.81147  23015486.3554   23015483.4804
     -2424.1254
  -8169296.77849  -6348152.89547  24053207.8794   24053203.9614
     -2180.2034
  -4454555.95349  -3452580.39147  25048610.5434   25048605.0474
      3187.5634
 -17543991.01449 -13650709.14448  22185935.8714   22185932.4844
      -743.2974
   -937587.92449   -711789.88347  25399426.0744   25399422.3014
     -3845.6564
 -15733392.37949 -12241505.84548  22796543.0904   22796538.7114
       901.4064
   -989567.60149   -753537.12146  25768011.9414   25768009.6524
      3360.7034
 07  4 22  0 28 15.0040000  0 12G 1G 2G12G 6G 4G 5G20G23G30G14G31G 7
 -13858144.77349 -10781943.17547  23134325.9494   23134323.2464
     -1520.6564
  -8839398.96849  -6869596.80047  24197089.6914   24197084.6374
      2491.5784
 -10479708.91049  -8147270.28847  23607295.8324   23607291.9224
     -2713.8754
  -5226496.75349  -4054607.43947  24939858.6844   24939856.6334
      3142.2664
 -11132148.49949  -8657266.40947  23440164.6914   23440162.3874
      -347.9694
 -12773023.68049  -9933378.58447  23022418.0354   23022415.5944
     -2432.7344
  -8136525.43449  -6322616.77947  24059443.8164   24059439.8124
     -2189.2664
  -4502327.23049  -3489804.74947  25039519.5044   25039515.3984
      3181.9844
 -17532757.84949 -13641956.00748  22188073.7304   22188070.6444
      -754.3444
   -879875.50849   -666819.16946  25410407.6764   25410404.5314
     -3849.3444
 -15746842.14949 -12251986.17048  22793983.5514   22793979.5904
       891.9224
  -1039956.63149   -792801.29446  25758422.9804   25758420.4804
      3358.0474
 07  4 22  0 28 30.0040000  0 12G 1G 2G12G 6G 4G 5G20G23G30G14G31G 7
 -13835262.63449 -10764112.92847  23138679.8404   23138677.8164
     -1530.3124
  -8876715.15849  -6898674.40847  24189988.9494   24189983.2664
      2483.8444
 -10438947.61949  -8115508.25647  23615052.0664   23615048.5744
     -2720.9694
  -5273598.24849  -4091309.93546  24930896.6524   24930894.0474
      3137.8444
 -11126847.97949  -8653136.12147  23441173.1524   23441170.5084
      -358.7344
 -12736468.44449  -9904894.00247  23029374.6444   23029371.5944
     -2441.2034
  -8103619.05249  -6296975.44147  24065706.0984   24065701.9694
     -2198.2034
  -4550017.36449  -3526965.85347  25030445.3874   25030439.9574
      3176.6254
 -17521361.04849 -13633075.38148  22190242.2624   22190238.6444
      -765.1874
   -822109.22549   -621806.50346  25421400.4734   25421397.5594
     -3852.9064
 -15760151.11549 -12262356.78048  22791450.9804   22791446.9614
       882.6254
  -1090306.94249   -832035.24746  25748841.9964   25748840.1604
      3355.3594
 07  4 22  0 28 45.0040000  0 12G 1G 2G12G 6G 4G 5G20G23G30G14G31G 7
 -13812235.23949 -10746169.52547  23143062.3794   23143059.6914
     -1539.9534
  -8913913.88349  -6927660.44047  24182910.3554   24182904.6874
      2476.1094
 -10398079.73349  -8083663.13547  23622829.1444   23622825.3054
     -2728.0474
  -5320633.59249  -4127960.81947  24921945.9574   24921943.7384
      3133.5164
 -11121384.77949  -8648879.08847  23442213.0984   23442210.4104
      -369.5314
 -12699785.39449  -9876309.82447  23036355.0044   23036351.8984
     -2449.7664
  -8070577.25049  -6271228.59247  24071993.5194   24071989.9534
     -2207.1874
  -4597625.57549  -3564063.15847  25021385.1524   25021380.3714
      3171.1724
 -17509800.21549 -13624066.93248  22192442.2074   22192439.0124
      -776.1564
   -764288.77149   -576751.63246  25432403.4104   25432400.3524
     -3856.5004
 -15773318.54349 -12272617.11048  22788945.1684   22788941.0004
       873.2034
  -1140617.67349   -871238.43146  25739269.3634   25739265.9454
      3352.7814
 07  4 22  0 29  0.0040000  0 12G 1G 2G12G 6G 4G 5G20G23G30G14G31G 7
 -13789062.91049 -10728113.17047  23147471.6764   23147469.2234
     -1549.6564
  -8950995.03949  -6956554.85147  24175853.7074   24175848.5194
      2468.1884
 -10357105.82149  -8051735.43047  23630626.0194   23630622.5784
     -2735.0944
  -5367602.59049  -4164559.98947  24913008.6054   24913005.5704
      3128.9694
 -11115759.36349  -8644495.67347  23443283.1294   23443279.9694
      -380.4694
 -12662974.93849  -9847626.34847  23043359.7234   23043356.2734
     -2458.2344
  -8037400.50049  -6245376.61447  24078306.6684   24078303.5004
     -2216.2814
  -4645151.64849  -3601096.46747  25012341.7624   25012336.0784
      3165.7344
 -17498075.61549 -13614930.89448  22194673.5664   22194670.5124
      -787.0164
   -706414.75049   -531654.96446  25443416.5434   25443412.9304
     -3860.0474
 -15786344.45249 -12282767.15048  22786466.3554   22786462.6804
       863.6414
  -1190888.75449   -910410.65946  25729701.9494   25729699.6844
      3350.1564
 07  4 22  0 29 15.0040000  0 12G 1G 2G12G 6G 4G 5G20G23G30G14G31G 7
 -13765745.96249 -10709944.11347  23151909.0194   23151906.3364
     -1559.2974
  -8987958.35749  -6985357.40947  24168819.1684   24168814.1094
      2460.2504
 -10316026.19949  -8019725.34147  23638443.0984   23638439.3634
     -2742.2344
  -5414505.14749  -4201107.45747  24904082.8714   24904080.3554
      3124.6254
 -11109971.81449  -8639985.90747  23444384.9654   23444382.0664
      -391.2664
 -12626037.40949  -9818843.86947  23050388.7464   23050385.6214
     -2466.6874
  -8004089.27749  -6219419.79347  24084645.6294   24084642.3404
     -2225.1874
  -4692595.41449  -3638065.62947  25003313.2464   25003307.3524
      3160.1254
 -17486187.40349 -13605667.37748  22196935.9414   22196932.4264
      -798.0474
   -648487.46649   -486516.84147  25454439.9414   25454436.5824
     -3863.5624
 -15799228.97849 -12292807.03748  22784014.9654   22784010.5704
       854.2504
  -1241119.94049   -949551.83046  25720144.4184   25720140.8594
      3347.4064
 07  4 22  0 29 30.0040000  0 12G 1G 2G12G 6G 4G 5G20G23G30G14G31G 7
 -13742284.82949 -10691662.72647  23156373.4104   23156370.6724
     -1568.8284
  -9024803.94049  -7014068.24147  24161807.3874   24161803.0984
      2452.4534
 -10274841.43349  -7987633.33247  23646280.6844   23646276.8014
     -2749.1094
  -5461341.21149  -4237603.07647  24895169.8944   24895166.8944
      3120.2034
 -11104022.66449  -8635350.24447  23445517.1294   23445514.0354
      -401.9374
 -12588973.42649  -9789962.85547  23057441.9494   23057438.7694
     -2475.1414
  -7970644.05749  -6193358.61847  24091010.5744   24091006.8484
     -2234.0944
  -4739956.66749  -3674970.48247  24994300.0354   24994295.5824
      3154.6414
 -17474135.82949 -13596276.55548  22199229.1524   22199225.8244
      -808.8594
   -590507.48049   -441337.63046  25465472.9104   25465468.8714
     -3866.9374
 -15811972.18549 -12302736.82548  22781589.6134   22781586.0434
       844.9064
  -1291311.31049   -988661.96546  25710592.4184   25710589.9024
      3344.9064
 07  4 22  0 29 45.0040000  0 12G 1G 2G12G 6G 4G 5G20G23G30G14G31G 7
 -13718680.01349 -10673269.36147  23160865.0744   23160862.4224
     -1578.4844
  -9061531.60549  -7042687.20547  24154819.0594   24154814.1724
      2444.5784
 -10233552.20949  -7955459.90647  23654137.4804   23654133.8094
     -2756.1564
  -5508110.82549  -4274046.96746  24886270.2774   24886267.2854
      3115.7664
 -11097911.78649  -8630588.51647  23446679.6294   23446677.2384
      -412.7814
 -12551783.58349  -9760983.75747  23064518.8324   23064515.7194
     -2483.5474
  -7937065.47749  -6167193.51047  24097399.9574   24097396.2854
     -2243.1094
  -4787235.47649  -3711811.11047  24985303.1294   24985298.4144
      3149.0944
 -17461921.51549 -13586758.91248  22201553.3714   22201550.1334
      -819.7194
   -532475.65849   -396118.00447  25476516.2234   25476512.5744
     -3870.4534
 -15824574.30349 -12312556.64148  22779191.3944   22779187.0004
       835.4694
  -1341462.76749  -1027740.97946  25701049.6844   25701046.4734
      3341.9694
 07  4 22  0 30  0.0040000  0 12G 1G 2G12G 6G 4G 5G20G23G30G14G31G 7
 -13694930.73349 -10654763.42047  23165384.8164   23165381.7304
     -1588.0474
  -9098140.14049  -7071213.33347  24147852.0514   24147848.2544
      2436.6254
 -10192157.62049  -7923204.38347  23662014.2544   23662011.0004
     -2763.1874
  -5554812.61249  -4310437.92847  24877383.3794   24877381.3124
      3111.2974
 -11091638.60049  -8625700.30347  23447873.5514   23447870.7734
      -423.6414
 -12514467.07949  -9731905.94247  23071620.2624   23071616.9884
     -2492.0474
  -7903352.69249  -6140923.80147  24103815.1294   24103811.7974
     -2251.9064
  -4834430.44649  -3748586.39147  24976322.1994   24976316.8444
      3143.6414
 -17449543.53249 -13577113.75148  22203908.8324   22203905.3404
      -830.6564
   -474391.29649   -350857.49146  25487569.1844   25487565.6804
     -3874.0004
 -15837034.10749 -12322265.57248  22776820.3794   22776816.4024
       825.9224
  -1391573.15949  -1066788.00646  25691514.2234   25691510.9734
      3339.3444
 07  4 22  0 30 15.0040000  0 12G 1G 2G12G 6G 4G 5G20G23G30G14G31G 7
 -13671036.74249 -10636144.72647  23169931.2854   23169928.5664
     -1597.7814
  -9134628.91349  -7099646.17847  24140908.9804   24140904.5394
      2428.7034
 -10150657.73249  -7890866.78247  23669912.0664   23669907.6764
     -2770.1564
  -5601446.01949  -4346775.67247  24868509.0744   24868506.6604
      3106.5634
 -11085202.73049  -8620685.31647  23449098.4344   23449095.7504
      -434.5004
 -12477024.01049  -9702729.52747  23078744.9414   23078742.2304
     -2500.4534
  -7869505.65749  -6114549.49847  24110256.1604   24110252.9534
     -2260.9374
  -4881540.90549  -3785295.85147  24967357.8634   24967352.3244
      3137.9224
 -17437001.51349 -13567340.76848  22206295.6994   22206292.4804
      -841.5784
   -416254.37549   -305555.93046  25498632.1054   25498628.8324
     -3877.5944
 -15849351.26149 -12331863.35048  22774476.6994   22774472.6254
       816.3594
  -1441641.92449  -1105802.64746  25681985.6054   25681982.4454
      3336.5474
 07  4 22  0 30 30.0040000  0 12G 1G 2G12G 6G 4G 5G20G23G30G14G31G 7
 -13646998.83549 -10617413.87647  23174505.9024   23174502.7544
     -1607.3284
  -9170998.15849  -7127985.86147  24133988.3484   24133982.9374
      2420.7034
 -10109053.43349  -7858447.86247  23677828.7234   23677825.0554
     -2776.9844
  -5648011.32449  -4383060.32247  24859648.6134   24859645.9614
      3102.0634
 -11078604.98449  -8615544.23347  23450353.6914   23450351.2384
      -445.2194
 -12439455.21449  -9673455.15847  23085894.8014   23085891.7854
     -2508.7814
  -7835525.30149  -6088071.29747  24116721.9734   24116719.2934
     -2269.7664
  -4928567.19749  -3821939.72247  24958409.6374   24958403.6564
      3132.3134
 -17424296.27449 -13557440.58348  22208713.3094   22208709.9264
      -852.3914
   -358065.80349   -260214.22246  25509705.4964   25509700.9184
     -3880.8594
 -15861526.26449 -12341350.34348  22772159.9184   22772155.8984
       807.0004
  -1491669.30349  -1144784.97246  25672465.4494   25672462.1954
      3333.8284
 07  4 22  0 30 45.0040000  0 12G 1G 2G12G 6G 4G 5G20G23G30G14G31G 7
 -13622817.57749 -10598571.33847  23179107.4024   23179104.2114
     -1616.8444
  -9207247.80649  -7156232.35247  24127089.7624   24127084.8634
      2412.7034
 -10067345.30249  -7825948.01347  23685765.6444   23685761.4654
     -2784.0004
  -5694508.58849  -4419291.92547  24850799.8484   24850797.5984
      3097.5004
 -11071845.50949  -8610277.11747  23451640.2074   23451637.5944
      -456.0164
 -12401761.21049  -9644083.20147  23093067.4574   23093064.8054
     -2517.0944
  -7801412.28449  -6061489.70447  24123213.5434   24123210.2584
     -2278.6254
  -4975509.27149  -3858517.97147  24949476.3554   24949470.8364
      3126.7034
 -17411428.08749 -13547413.41848  22211161.8094   22211158.5354
      -863.3124
   -299826.33349   -214832.83746  25520787.7154   25520783.6094
     -3884.3444
 -15873559.23649 -12350726.67448  22769870.0434   22769866.1684
       797.4694
  -1541655.33049  -1183735.07646  25662953.9184   25662950.4574
      3331.0784
 07  4 22  0 31  0.0040000  0 12G 1G 2G12G 6G 4G 5G20G23G30G14G31G 7
 -13598492.65049 -10579616.84047  23183736.2694   23183733.2504
     -1626.3914
  -9243377.16049  -7184385.10047  24120214.9344   24120209.6994
      2404.6254
 -10025533.15849  -7793367.12047  23693722.6294   23693717.9574
     -2790.8754
  -5740936.93449  -4455469.85547  24841965.2774   24841961.9694
      3092.9224
 -11064923.91849  -8604883.66647  23452957.1134   23452954.6604
      -466.8124
 -12363941.86349  -9614613.59247  23100264.3324   23100261.3554
     -2525.4534
  -7767166.29949  -6034804.53747  24129730.5514   24129727.7034
     -2287.5164
  -5022366.22749  -3895029.86847  24940559.9184   24940554.0004
      3120.9694
 -17398396.73049 -13537259.11348  22213641.8634   22213638.7814
      -874.1724
   -241535.69549   -169411.53446  25531879.6684   25531876.3874
     -3887.7974
 -15885449.63949 -12359991.92348  22767607.1994   22767603.1564
       787.9534
  -1591599.21949  -1222652.42346  25653449.4264   25653446.8754
      3328.1884
 07  4 22  0 31 15.0040000  0 12G 1G 2G12G 6G 4G 5G20G23G30G14G31G 7
 -13574024.74549 -10560550.94247  23188392.4884   23188388.9844
     -1635.9374
  -9279386.22849  -7212444.06347  24113362.3634   24113357.5084
      2396.5944
  -9983617.80849  -7760705.80947  23701698.9734   23701694.5474
     -2797.7664
  -5787296.69149  -4491594.33747  24833143.0594   24833140.8014
      3088.3914
 -11057840.87449  -8599364.41047  23454304.8554   23454302.3054
      -477.5624
 -12325997.99749  -9585046.94247  23107484.6994   23107482.0394
     -2533.7344
  -7732788.22949  -6008016.44447  24136272.0984   24136268.6844
     -2296.3444
  -5069138.30749  -3931475.61647  24931658.9884   24931654.5704
      3115.2664
 -17385202.72649 -13526978.06748  22216152.5824   22216148.9414
      -885.0314
   -183194.91349   -123951.21046  25542981.9024   25542978.4224
     -3891.1094
 -15897197.83449 -12369146.35948  22765371.7384   22765367.9414
       778.4534
  -1641501.29549  -1261537.11946  25643954.1294   25643950.9064
      3325.3594
 07  4 22  0 31 30.0040000  0 12G 1G 2G12G 6G 4G 5G20G23G30G14G31G 7
 -13549412.79149 -10541372.79347  23193075.7694   23193072.8984
     -1645.5784
  -9315273.67649  -7240408.31247  24106533.6914   24106529.0084
      2388.3914
  -9941598.18249  -7727963.24247  23709694.8164   23709690.6994
     -2804.7974
  -5833586.36449  -4527664.21547  24824334.7774   24824331.7694
      3083.6094
 -11050595.01849  -8593718.28247  23455683.6604   23455681.4104
      -488.4694
 -12287928.57849  -9555382.46347  23114728.9574   23114725.9304
     -2542.1254
  -7698277.13949  -5981124.70447  24142839.6684   24142836.6414
     -2305.2504
  -5115823.77649  -3967853.88047  24922774.3794   24922769.7694
      3109.4064
 -17371845.00349 -13516569.45748  22218694.3634   22218690.8984
      -895.9694
   -124803.02549    -78450.99746  25554093.4654   25554089.5704
     -3894.5624
 -15908802.43849 -12378188.90348  22763163.3404   22763159.6804
       768.8754
  -1691359.94849  -1300387.96946  25634465.5664   25634462.4964
      3322.4384
 07  4 22  0 31 45.0040000  0 12G 1G 2G12G 6G 4G 5G20G23G30G14G31G 7
 -13524657.95349 -10522083.30047  23197786.8094   23197783.1804
     -1655.1724
  -9351040.00149  -7268278.14347  24099726.9574   24099722.8124
      2380.3594
  -9899475.61249  -7695140.46047  23717710.2774   23717706.4534
     -2811.5944
  -5879806.51649  -4563679.88247  24815538.4104   24815536.0394
      3078.9384
 -11043187.72449  -8587946.36747  23457093.6214   23457090.7894
      -499.2664
 -12249734.99449  -9525621.23447  23121996.8714   23121994.1374
     -2550.4374
  -7663634.24949  -5954130.25047  24149432.2304   24149428.5044
     -2314.0004
  -5162423.44249  -4004165.27547  24913907.4024   24913902.2234
      3103.6564
 -17358324.69849 -13506034.16848  22221267.4804   22221264.0904
      -906.8124
    -66361.12949    -32911.87646  25565214.7934   25565210.9414
     -3897.8444
 -15920264.43249 -12387120.31548  22760982.3014   22760978.2234
       759.3134
  -1741175.96449  -1339205.65646  25624986.6684   25624983.0514
      3319.6254
 07  4 22  0 32  0.0040000  0 12G 1G 2G12G 6G 4G 5G20G23G30G14G31G 7
 -13499759.43449 -10502681.86247  23202524.2384   23202522.0084
     -1664.5314
  -9386683.94449  -7296052.59347  24092944.7854   24092939.6764
      2372.3444
  -9857249.27049  -7662236.82247  23725745.6374   23725741.6764
     -2818.4694
  -5925955.93249  -4599640.48447  24806757.0904   24806754.1414
      3074.3754
 -11035617.82449  -8582047.74047  23458534.2624   23458531.2504
      -510.0314
 -12211416.41649  -9495762.62947  23129288.4734   23129286.2624
     -2558.6254
  -7628858.85549  -5927032.53447  24156049.2234   24156045.9654
     -2322.7344
  -5208935.80949  -4040408.62647  24905056.0824   24905051.6294
      3097.9694
 -17344640.89049 -13495371.47948  22223871.1054   22223867.9304
      -917.5784
     -7868.70449     12666.65346  25576345.3324   25576341.1764
     -3901.0314
 -15931582.55849 -12395939.63548  22758828.5124   22758824.5004
       749.8594
  -1790948.08849  -1377989.10446  25615515.1684   25615511.4304
      3316.7504
 07  4 22  0 32 15.0040000  0 12G 1G 2G12G 6G 4G 5G20G23G30G14G31G 7
 -13474718.69949 -10483169.60847  23207289.6444   23207286.6914
     -1674.0944
  -9422206.66649  -7323732.66147  24086185.1374   24086179.6214
      2364.1564
  -9814920.78849  -7629253.58547  23733800.2624   23733797.0434
     -2825.2974
  -5972035.48549  -4635546.59047  24797988.9654   24797986.1134
      3069.6254
 -11027886.62049  -8576023.41747  23460005.4734   23460003.0354
      -520.7814
 -12172974.41549  -9465807.84747  23136603.9344   23136601.6444
     -2566.9224
  -7593952.57849  -5899832.85647  24162692.3554   24162688.9734
     -2331.4534
  -5255361.97749  -4076584.83147  24896222.0194   24896216.7934
      3092.1724
 -17330794.94949 -13484582.43848  22226505.9964   22226502.5354
      -928.5164
     50672.47949     58283.14546  25587485.0904   25587480.7504
     -3904.5474
 -15942758.11249 -12404647.84548  22756701.8484   22756698.0394
       740.2504
  -1840677.25949  -1416739.12246  25606051.3484   25606048.8364
      3313.8284
 07  4 22  0 32 30.0040000  0 12G 1G 2G12G 6G 4G 5G20G23G30G14G31G 7
 -13449535.18349 -10463546.08847  23212081.9964   23212079.3204
     -1683.6724
  -9457606.93849  -7351317.29247  24079448.5744   24079443.5474
      2355.8914
  -9772489.78849  -7596190.49347  23741874.8794   23741871.3094
     -2832.1724
  -6018044.31849  -4671397.61847  24789233.4344   24789231.1214
      3064.9224
 -11019993.54349  -8569872.94747  23461506.3164   23461504.3404
      -531.6254
 -12134408.61149  -9435756.60047  23143943.1604   23143940.2194
     -2575.2504
  -7558914.94349  -5872530.78347  24169359.4024   24169356.7274
     -2340.2664
  -5301700.81649  -4112693.01247  24887404.1444   24887398.5744
      3086.2814
 -17316786.10149 -13473666.43048  22229171.6054   22229168.1604
      -939.3444
    109262.74049    103937.89846  25598634.5434   25598630.8674
     -3907.7034
 -15953790.26249 -12413244.33148  22754602.4804   22754598.7034
       730.6564
  -1890362.46449  -1455454.84046  25596596.8404   25596593.7274
      3310.7974
 07  4 22  0 32 45.0040000  0 12G 1G 2G12G 6G 4G 5G20G23G30G14G31G 7
 -13424209.44049 -10443811.75147  23216901.3324   23216898.4374
     -1693.0944
  -9492884.60749  -7378806.39647  24072735.3714   24072729.9924
      2347.7974
  -9729956.77649  -7563047.90647  23749968.5274   23749964.8914
     -2839.0004
  -6063982.27749  -4707193.41647  24780491.9024   24780488.7814
      3060.1884
 -11011939.00249  -8563596.69847  23463040.1294   23463037.2194
      -542.3754
 -12095719.50549  -9405609.26247  23151305.5354   23151302.6644
     -2583.4374
  -7523746.45449  -5845126.77947  24176051.6994   24176049.2464
     -2348.9534
  -5347952.14049  -4148733.00547  24878602.7694   24878597.0084
      3080.4694
 -17302614.76649 -13462623.80648  22231868.3944   22231865.4534
      -950.1874
    167901.69449    149630.63446  25609793.1054   25609789.4184
     -3910.8754
 -15964679.12849 -12421729.15748  22752530.4494   22752526.4774
       721.1254
  -1940003.60549  -1494136.26546  25587150.7544   25587147.5744
      3307.7974
 07  4 22  0 33  0.0040000  0 12G 1G 2G12G 6G 4G 5G20G23G30G14G31G 7
 -13398740.44549 -10423965.78747  23221748.1914   23221745.0944
     -1702.7034
  -9528038.54249  -7406199.10147  24066045.7774   24066040.1644
      2339.3914
  -9687321.00949  -7529825.24247  23758082.0664   23758078.4144
     -2845.8754
  -6109848.09949  -4742933.03547  24771763.7074   24771760.2544
      3055.2344
 -11003721.75749  -8557193.64147  23464603.3094   23464601.3444
      -553.3124
 -12056906.27249  -9375365.18747  23158691.2464   23158688.2664
     -2591.7194
  -7488446.27849  -5817620.15447  24182769.1054   24182765.9694
     -2357.7814
  -5394114.70849  -4184703.84747  24869818.6684   24869813.7234
      3074.5164
 -17288280.15649 -13451453.95148  22234596.2544   22234592.8484
      -961.1414
    226590.01349    195361.80647  25620961.6294   25620957.5744
     -3914.2974
 -15975423.48249 -12430101.37648  22750485.5354   22750481.8284
       711.4384
  -1989599.48249  -1532782.34546  25577712.6764   25577709.0164
      3304.7194
 07  4 22  0 33 15.0040000  0 12G 1G 2G12G 6G 4G 5G20G23G30G14G31G 7
 -13373129.79649 -10404009.43847  23226621.2694   23226618.1134
     -1712.1094
  -9563069.59449  -7433496.02847  24059379.2774   24059374.6214
      2331.2814
  -9644583.94549  -7496523.65247  23766214.6054   23766210.7544
     -2852.5474
  -6155642.70049  -4778617.11747  24763049.2854   24763045.5664
      3050.6254
 -10995343.22949  -8550664.94947  23466198.1684   23466195.5904
      -564.0004
 -12017970.57149  -9345025.69747  23166100.4264   23166097.8594
     -2599.7664
  -7453016.13649  -5790012.26747  24189511.2934   24189508.4064
     -2366.4064
  -5440189.38949  -4220606.14747  24861050.5124   24861045.5514
      3068.7504
 -17273783.65449 -13440157.95348  22237354.4024   22237351.3754
      -971.8594
    285326.09949    241130.21747  25632138.4414   25632134.3244
     -3917.2974
 -15986024.52249 -12438361.92048  22748468.6604   22748464.3124
       701.9224
  -2039151.00749  -1571393.98746  25568283.2774   25568280.2504
      3301.7504
 07  4 22  0 33 30.0040000  0 12G 1G 2G12G 6G 4G 5G20G23G30G14G31G 7
 -13347378.90049 -10383943.82447  23231521.3164   23231518.7074
     -1721.4534
  -9597978.60749  -7460697.85447  24052736.4654   24052731.6564
      2323.2344
  -9601747.10149  -7463144.30647  23774366.1524   23774362.5704
     -2859.2504
  -6201367.00149  -4814246.41846  24754347.8244   24754344.1254
      3045.7814
 -10986804.94049  -8544011.72647  23467822.6994   23467819.8594
      -574.5314
 -11978913.90449  -9314591.95147  23173532.6444   23173529.4374
     -2607.8594
  -7417457.45049  -5762304.17847  24196278.0124   24196274.3364
     -2374.9224
  -5486177.31449  -4256440.88547  24852299.8484   24852294.3914
      3062.9064
 -17259126.74149 -13428736.96148  22240143.8014   22240140.2384
      -982.5624
    344108.30649    286934.52846  25643323.9344   25643320.7854
     -3920.4534
 -15996483.49349 -12446511.76948  22746477.9344   22746473.9494
       692.5164
  -2088659.22949  -1609971.79546  25558861.8484   25558859.1054
      3299.0004
 07  4 22  0 33 45.0040000  0 12G 1G 2G12G 6G 4G 5G20G23G30G14G31G 7
 -13321485.34349 -10363767.03547  23236448.7934   23236445.9344
     -1731.0784
  -9632762.67549  -7487802.31347  24046117.0044   24046112.2074
      2314.5944
  -9558808.04449  -7429685.29147  23782537.5514   23782533.7694
     -2866.0784
  -6247018.20049  -4849818.79847  24745661.4264   24745657.2544
      3040.9064
 -10978104.17449  -8537231.95247  23469478.4184   23469475.8164
      -585.5784
 -11939733.93849  -9284062.09047  23180988.5824   23180985.2544
     -2616.2194
  -7381768.06249  -5734494.27247  24203069.3554   24203066.6024
     -2383.7664
  -5532075.29449  -4292205.53747  24843565.6684   24843560.4654
      3056.6564
 -17244306.88449 -13417189.04348  22242963.7304   22242961.1524
      -993.5164
    402938.95149    332776.59446  25654519.2074   25654515.2384
     -3923.7504
 -16006797.69549 -12454548.81948  22744515.3244   22744511.4614
       682.7344
  -2138121.23549  -1648513.62246  25549449.9414   25549446.9494
      3295.6884
 07  4 22  0 34  0.0040000  0 12G 1G 2G12G 6G 4G 5G20G23G30G14G31G 7
 -13295449.26949 -10343479.18647  23241403.1444   23241400.3054
     -1740.5164
  -9667421.54349  -7514809.23047  24039521.3554   24039517.0594
      2306.3284
  -9515767.18349  -7396146.94647  23790727.3714   23790723.4774
     -2872.8284
  -6292595.94249  -4885333.92347  24736987.8874   24736984.3284
      3036.0784
 -10969241.06549  -8530325.63347  23471164.9804   23471162.7424
      -596.3124
 -11900430.92149  -9253436.36547  23188467.3944   23188464.8284
     -2624.3444
  -7345948.16449  -5706582.66747  24209886.2384   24209883.1134
     -2392.2664
  -5577882.85149  -4327899.72247  24834848.5664   24834843.9184
      3050.8134
 -17229324.06449 -13405514.13248  22245815.1684   22245811.8164
     -1004.2664
    461817.68249    378656.16746  25665723.4264   25665719.6724
     -3926.8594
 -16016966.73949 -12462472.73748  22742580.4414   22742576.4494
       673.0474
  -2187536.67449  -1687019.18446  25540046.9734   25540043.9024
      3292.7504
 07  4 22  0 34 15.0040000  0 12G 1G 2G12G 6G 4G 5G20G23G30G14G31G 7
 -13269272.26849 -10323081.52347  23246384.2774   23246382.0744
     -1749.8444
  -9701956.16149  -7541719.30147  24032949.7934   24032944.7274
      2298.1254
  -9472626.23349  -7362530.63047  23798936.8714   23798933.0864
     -2879.4224
  -6338101.21449  -4920792.55247  24728328.4344   24728325.1174
      3031.2974
 -10960216.80449  -8523293.72047  23472882.0044   23472879.8094
      -606.9844
 -11861006.58249  -9222716.12047  23195969.7384   23195966.6644
     -2632.2664
  -7309999.34049  -5678570.57347  24216726.6994   24216723.0394
     -2400.9064
  -5623601.04349  -4363524.21847  24826147.5354   24826143.5514
      3044.9224
 -17214179.80349 -13393713.43048  22248697.1444   22248693.3794
     -1015.0164
    520742.78249    424571.78246  25676936.4574   25676932.9374
     -3929.9844
 -16026992.07249 -12470284.68348  22740672.8164   22740668.8794
       663.5784
  -2236906.68849  -1725489.30846  25530650.8324   25530648.7384
      3289.7664
 07  4 22  0 34 30.0040000  0 12G 1G 2G12G 6G 4G 5G20G23G30G14G31G 7
 -13242953.93749 -10302573.73547  23251393.3324   23251390.3444
     -1759.2344
  -9736365.73249  -7568531.96347  24026401.8554   24026397.0194
      2289.7664
  -9429384.80649  -7328836.01647  23807165.7694   23807161.6724
     -2886.0944
  -6383533.34449  -4956194.18247  24719682.8634   24719679.3124
      3026.3134
 -10951031.24049  -8516136.13747  23474629.9654   23474627.7624
      -617.7664
 -11821460.53049  -9191901.02547  23203494.9414   23203492.1844
     -2640.5474
  -7273921.45749  -5650457.94147  24223592.0274   24223588.7624
     -2409.5474
  -5669229.00449  -4399078.44747  24817465.8244   24817460.7624
      3038.8754
 -17198873.58849 -13381786.51748  22251609.4344   22251606.5434
     -1025.7814
    579714.43849    470523.77246  25688158.6294   25688154.7384
     -3932.9534
 -16036873.03549 -12477984.13248  22738792.3714   22738787.9064
       653.9064
  -2286230.36049  -1763923.27946  25521265.9104   25521262.5944
      3286.6564
 07  4 22  0 34 45.0040000  0 12G 1G 2G12G 6G 4G 5G20G23G30G14G31G 7
 -13216495.36349 -10281956.66347  23256427.6844   23256425.3124
     -1768.5624
  -9770650.92549  -7595247.68547  24019877.7384   24019873.0664
      2281.5634
  -9386044.23449  -7295064.15647  23815412.6524   23815409.4184
     -2892.6564
  -6428892.83149  -4991539.23147  24711051.5594   24711047.4574
      3021.5314
 -10941685.22849  -8508853.53047  23476408.7154   23476406.5704
      -628.3284
 -11781794.06449  -9160992.08747  23211043.3484   23211040.3874
     -2648.4374
  -7237715.66149  -5622245.67047  24230481.4574   24230478.8124
     -2418.0314
  -5714767.39749  -4434562.86147  24808799.5594   24808794.2194
      3032.9384
 -17183406.58349 -13369734.30548  22254553.2384   22254549.8914
     -1036.4224
    638731.47649    516511.02846  25699389.1214   25699385.6024
     -3935.9374
 -16046610.45549 -12485571.71848  22736939.4024   22736935.3594
       644.3754
  -2335508.45549  -1802321.86146  25511887.7774   25511886.4454
      3283.5634
 07  4 22  0 35  0.0040000  0 12G 1G 2G12G 6G 4G 5G20G23G30G14G31G 7
 -13189896.06049 -10261229.93347  23261489.6294   23261487.0124
     -1777.9534
  -9804810.68549  -7621865.69047  24013377.9734   24013372.6334
      2273.0944
  -9342604.02449  -7261214.65447  23823679.7074   23823675.3404
     -2899.3594
  -6474178.61749  -5026826.85847  24702433.7694   24702430.2624
      3016.6094
 -10932178.10449  -8501445.39947  23478217.9414   23478215.1994
      -639.2504
 -11742006.68249  -9129988.93647  23218614.3244   23218611.7694
     -2656.4694
  -7201381.50949  -5593933.34247  24237395.8404   24237392.6844
     -2426.5004
  -5760215.02849  -4469976.59747  24800151.0744   24800146.1684
      3026.8754
 -17167778.25849 -13357556.39548  22257526.7234   22257523.2304
     -1047.1874
    697794.25949    562534.02846  25710628.6054   25710624.9144
     -3939.0164
 -16056203.65649 -12493046.92948  22735113.9264   22735109.7154
       634.6884
  -2384739.82649  -1840683.97646  25502520.3014   25502517.6254
      3280.5784
 07  4 22  0 35 15.0040000  0 12G 1G 2G12G 6G 4G 5G20G23G30G14G31G 7
 -13163157.27249 -10240394.51647  23266577.7854   23266575.0164
     -1787.3124
  -9838845.65149  -7648386.43147  24006900.8714   24006896.3634
      2264.8134
  -9299065.47449  -7227288.50447  23831965.1294   23831960.9184
     -2905.8594
  -6519391.42949  -5062057.64047  24693830.7384   24693826.8794
      3011.7664
 -10922510.94849  -8493912.54447  23480056.8164   23480054.8914
      -649.8754
 -11702099.75349  -9098892.61347  23226208.7234   23226205.9144
     -2664.5004
  -7164920.32949  -5565522.02847  24244334.5274   24244331.1804
     -2434.8914
  -5805572.61649  -4505320.14447  24791520.4184   24791515.1254
      3020.7344
 -17151989.62849 -13345253.58548  22260531.3324   22260528.0664
     -1057.9064
    756901.45449    608591.56846  25721876.1214   25721872.0664
     -3942.0314
 -16065653.26149 -12500410.25948  22733315.5514   22733311.6414
       625.1884
  -2433925.31549  -1879010.28846  25493160.1214   25493157.4344
      3277.6094
 07  4 22  0 35 30.0040000  0 12G 1G 2G12G 6G 4G 5G20G23G30G14G31G 7
 -13136277.11049 -10219448.96547  23271692.6604   23271690.3124
     -1796.4844
  -9872753.46849  -7674808.10347  24000448.5824   24000443.0784
      2256.5474
  -9255426.64549  -7193284.23347  23840269.0354   23840265.0904
     -2912.4224
  -6564528.92649  -5097229.66347  24685241.0664   24685237.3754
      3006.9384
 -10912681.81349  -8486253.49147  23481927.5984   23481924.5944
      -660.4534
 -11662071.49149  -9067701.75547  23233825.6444   23233822.9574
     -2672.3914
  -7128330.30949  -5537010.31647  24251297.2934   24251293.8164
     -2443.3754
  -5850837.75149  -4540591.67447  24782907.0434   24782900.9844
      3014.8134
 -17136038.63749 -13332824.26848  22263566.7934   22263563.5164
     -1068.6254
    816054.82249    654685.12246  25733132.5124   25733128.7774
     -3944.9534
 -16074957.16449 -12507660.05148  22731545.2544   22731541.1954
       615.6094
  -2483062.46749  -1917299.00046  25483809.1524   25483806.5904
      3274.4064
 07  4 22  0 35 45.0040000  0 12G 1G 2G12G 6G 4G 5G20G23G30G14G31G 7
 -13109258.59849 -10198395.58347  23276834.4654   23276831.6174
     -1806.0004
  -9906536.72149  -7701132.70447  23994019.7154   23994014.8914
      2247.9694
  -9211690.68749  -7159204.28047  23848591.8554   23848587.6444
     -2919.0784
  -6609593.71449  -5132345.04447  24676664.7544   24676662.0354
      3001.7344
 -10902693.54649  -8478470.41947  23483828.2154   23483825.6294
      -671.3754
 -11621925.05749  -9036418.82047  23241465.6604   23241462.1414
     -2680.5474
  -7091614.46849  -5508400.58947  24258284.1524   24258281.0354
     -2452.0314
  -5896012.95549  -4575793.10047  24774310.0904   24774304.8244
      3008.5944
 -17119928.46449 -13320270.90448  22266632.5434   22266629.2464
     -1079.4844
    875251.10449    700812.06646  25744396.7154   25744393.3674
     -3947.9694
 -16084118.21949 -12514798.54948  22729801.7384   22729798.2934
       605.8444
  -2532153.91149  -1955552.04146  25474467.4884   25474464.7114
      3271.1094
 07  4 22  0 36  0.0040000  0 12G 1G 2G12G 6G 4G 5G20G23G30G14G31G 7
 -13082100.28549 -10177233.27647  23282002.3404   23281999.9534
     -1815.1564
  -9940193.45649  -7727358.72747  23987615.1134   23987610.3054
      2239.5004
  -9167856.17749  -7125047.52547  23856933.0194   23856929.6214
     -2925.5314
  -6654583.82449  -5167402.27347  24668103.8554   24668100.4654
      2996.8284
 -10892544.72749  -8470562.29947  23485759.4104   23485756.8794
      -682.0624
 -11581659.02149  -9005042.68047  23249128.1054   23249125.1254
     -2688.3284
  -7054771.67149  -5479691.92747  24265295.1524   24265290.9654
     -2460.3914
  -5941096.24249  -4610922.93447  24765730.9104   24765725.7854
      3002.5634
 -17103657.34249 -13307592.10448  22269729.0984   22269725.2974
     -1090.0314
    934491.62849    746973.54746  25755670.4184   25755666.8164
     -3950.6724
 -16093134.58049 -12521824.30748  22728085.9024   22728082.0474
       596.3594
  -2581197.68349  -1993768.02146  25465134.1374   25465131.3484
      3268.1564
 07  4 22  0 36 15.0040000  0 12G 1G 2G12G 6G 4G 5G20G23G30G14G31G 7
 -13054802.51949 -10155962.28347  23287196.8324   23287194.3834
     -1824.5314
  -9973723.45849  -7753486.00747  23981234.9654   23981230.0824
      2231.0634
  -9123923.65249  -7090814.37847  23865293.0664   23865289.5354
     -2932.1564
  -6699499.06249  -5202401.13447  24659556.8714   24659554.4614
      2991.8284
 -10882235.49849  -8462529.14547  23487721.1134   23487718.7974
      -692.6094
 -11541273.78049  -8973573.64547  23256813.1684   23256809.4884
     -2696.2974
  -7017802.25049  -5450884.60247  24272329.7854   24272326.3204
     -2468.8444
  -5986087.37649  -4645980.91147  24757168.3484   24757163.4614
      2996.2344
 -17087225.53549 -13294788.07248  22272855.7154   22272852.1214
     -1100.7974
    993775.88249    793169.05646  25766951.5664   25766948.3124
     -3953.7034
 -16102006.23649 -12528737.26548  22726397.8554   22726393.8444
       586.6094
  -2630193.65749  -2031946.69246  25455811.7934   25455808.6994
      3264.5784
 07  4 22  0 36 30.0040000  0 12G 1G 2G12G 6G 4G 5G20G23G30G14G31G 7
 -13027364.50549 -10134582.02247  23292418.4264   23292415.5944
     -1833.7974
 -10007125.37249  -7779513.47747  23974878.7624   23974873.5704
      2222.4224
  -9079892.46049  -7056504.37547  23873671.9024   23873668.4694
     -2938.6874
  -6744338.13149  -5237340.65547  24651024.2694   24651021.5704
      2986.8284
 -10871764.71049  -8454370.11147  23489713.8164   23489711.7274
      -703.3914
 -11500768.65049  -8942011.18447  23264520.6994   23264516.9264
     -2704.2664
  -6980705.54349  -5421978.04647  24279389.8164   24279385.5784
     -2477.4374
  -6030984.98649  -4680966.06247  24748625.2934   24748619.6484
      2990.0944
 -17070632.21749 -13281858.21948  22276013.2544   22276010.1174
     -1111.6094
   1053104.57549    839399.20346  25778241.1134   25778238.2424
     -3956.7344
 -16110732.22049 -12535536.73848  22724737.6914   22724733.2194
       576.8914
  -2679140.61649  -2070087.13646  25446497.0744   25446493.8944
      3261.4844
 07  4 22  0 36 45.0040000  0 12G 1G 2G12G 6G 4G 5G20G23G30G14G31G 7
 -12999786.85749 -10113092.95047  23297666.5274   23297663.6644
     -1843.0624
 -10040399.39249  -7805441.29247  23968546.2464   23968541.4144
      2214.0474
  -9035763.25449  -7022117.98747  23882069.7694   23882065.5474
     -2945.2194
  -6789101.19549  -5272220.95547  24642506.0274   24642502.7854
      2981.7504
 -10861133.30349  -8446085.91947  23491736.6844   23491734.8984
      -714.0474
 -11460144.44049  -8910355.95247  23272251.1914   23272248.0434
     -2712.2194
  -6943482.43449  -5392973.03547  24286472.0354   24286469.5624
     -2485.6874
  -6075789.06449  -4715878.29747  24740099.1764   24740093.7034
      2983.8594
 -17053878.20149 -13268803.14448  22279201.4884   22279198.0434
     -1122.2344
   1112476.98749    885663.40146  25789539.6604   25789536.4924
     -3959.5474
 -16119312.97549 -12542223.04248  22723104.3874   22723100.2734
       567.2504
  -2728038.51349  -2108189.48946  25437191.7774   25437188.9344
      3258.2034
 07  4 22  0 37  0.0040000  0 12G 1G 2G12G 6G 4G 5G20G23G30G14G31G 7
 -12972070.23949 -10091495.58547  23302940.4494   23302937.8834
     -1852.2974
 -10073545.55749  -7831269.44947  23962238.9964   23962234.0314
      2205.4844
  -8991536.82749  -6987655.86947  23890485.0194   23890481.2154
     -2951.6094
  -6833788.49549  -5307042.22747  24634002.3944   24633999.4224
      2976.6414
 -10850341.41149  -8437676.64447  23493790.6134   23493788.2274
      -724.7034
 -11419401.86449  -8878608.47347  23280004.1054   23280001.0594
     -2720.0944
  -6906133.50849  -5363869.99747  24293579.6524   24293576.2504
     -2494.0944
  -6120499.89749  -4750717.87447  24731591.2074   24731585.6024
      2977.7034
 -17036963.91249 -13255623.18348  22282420.0354   22282417.2304
     -1132.8594
   1171892.19849    931960.92946  25800845.9734   25800843.1094
     -3962.4694
 -16127748.59749 -12548796.25848  22721499.4884   22721495.3164
       557.5634
  -2776887.68649  -2146253.75046  25427896.0044   25427893.0944
      3254.9534
 07  4 22  0 37 15.0040000  0 12G 1G 2G12G 6G 4G 5G20G23G30G14G31G 7
 -12944214.99149 -10069790.19347  23308241.2464   23308238.7424
     -1861.6874
 -10106563.74849  -7856997.90047  23955955.8244   23955951.2274
      2196.8594
  -8947213.48449  -6953118.23747  23898920.3714   23898916.6094
     -2958.2344
  -6878399.61249  -5341804.13247  24625512.9574   24625509.6294
      2971.4224
 -10839389.42649  -8429142.60447  23495874.6444   23495872.0274
      -735.5004
 -11378541.24449  -8846769.02047  23287779.5124   23287777.1134
     -2728.1564
  -6868659.18149  -5334669.26647  24300710.7384   24300707.4924
     -2502.5624
  -6165117.33149  -4785484.68147  24723101.2934   24723094.9844
      2971.2664
 -17019889.49449 -13242318.42348  22285669.1914   22285666.0744
     -1143.7664
   1231349.84749    978291.57746  25812161.3324   25812157.6604
     -3965.2194
 -16136039.30949 -12555256.56048  22719921.7154   22719917.3754
       547.8134
  -2825687.88349  -2184279.87046  25418609.6524   25418607.3484
      3251.5634
 07  4 22  0 37 30.0040000  0 12G 1G 2G12G 6G 4G 5G20G23G30G14G31G 7
 -12916221.63449 -10047977.18247  23313568.2304   23313565.2894
     -1870.7194
 -10139454.05449  -7882626.70347  23949697.0194   23949692.2934
      2188.4384
  -8902793.83749  -6918505.54547  23907372.3944   23907368.5044
     -2964.4374
  -6922934.74949  -5376506.80247  24617038.7074   24617034.7694
      2966.4384
 -10828277.84449  -8420484.22847  23497989.1524   23497987.3404
      -746.0474
 -11337563.36549  -8814838.20047  23295576.9964   23295574.1524
     -2735.6564
  -6831060.04549  -5305371.22747  24307866.1524   24307862.7074
     -2510.8124
  -6209641.30749  -4820178.68947  24714628.6294   24714622.5084
      2965.2664
 -17002655.78449 -13228889.52248  22288948.8094   22288944.9844
     -1154.1254
   1290849.40249   1024654.80146  25823483.0984   25823479.5824
     -3967.8444
 -16144185.32649 -12561604.10148  22718371.2854   22718367.0434
       538.3444
  -2874439.26649  -2222268.01246  25409332.4344   25409329.6804
      3248.5314
 07  4 22  0 37 45.0040000  0 12G 1G 2G12G 6G 4G 5G20G23G30G14G31G 7
 -12888090.65749 -10026056.95447  23318921.4344   23318918.6214
     -1880.0474
 -10172216.33649  -7908155.72847  23943462.5124   23943458.1054
      2179.9224
  -8858278.43749  -6883818.21947  23915844.0984   23915840.1564
     -2970.9224
  -6967393.93049  -5411150.29447  24608578.0044   24608575.0124
      2961.3594
 -10817006.96749  -8411701.71947  23500134.0044   23500131.8524
      -756.6874
 -11296468.69649  -8782816.38347  23303397.3404   23303394.2344
     -2743.5944
  -6793336.68649  -5275976.38647  24315044.8944   24315041.1804
     -2519.1724
  -6254071.68849  -4854799.77247  24706173.7384   24706168.0784
      2958.8284
 -16985263.12349 -13215336.81048  22292258.5354   22292255.5784
     -1164.8124
   1350389.98049   1071050.04746  25834813.6054   25834810.3204
     -3970.8284
 -16152186.78449 -12567839.01048  22716848.7694   22716844.5164
       528.5474
  -2923141.71249  -2260217.93946  25400065.0594   25400062.5124
      3245.2814
 07  4 22  0 38  0.0040000  0 12G 1G 2G12G 6G 4G 5G20G23G30G14G31G 7
 -12859821.22549 -10004028.81747  23324300.7854   23324298.2304
     -1889.3124
 -10204849.26149  -7933583.95047  23937252.4964   23937248.0124
      2171.1724
  -8813666.58949  -6849055.74747  23924332.6994   23924329.4374
     -2977.3284
  -7011775.85349  -5445733.62247  24600132.6134   24600129.7734
      2956.1884
 -10805575.77149  -8402794.27847  23502309.1684   23502307.6094
      -767.4844
 -11255256.51749  -8750702.99347  23311240.0274   23311237.3484
     -2751.3914
  -6755488.41949  -5246484.22747  24322246.3874   24322243.6874
     -2527.3594
  -6298407.02949  -4889346.75947  24697736.7854   24697730.8244
      2952.4844
 -16967710.50449 -13201659.42248  22295598.6914   22295595.5314
     -1175.5164
   1409972.44849   1117477.91546  25846151.0824   25846147.7624
     -3973.6094
 -16160042.61849 -12573960.44348  22715353.8094   22715349.8244
       518.7814
  -2971793.97349  -2298128.78546  25390807.1764   25390803.6954
      3241.7504
 07  4 22  0 38 15.0040000  0 12G 1G 2G12G 6G 4G 5G20G23G30G14G31G 7
 -12831412.69049  -9981892.29247  23329706.8714   23329703.9614
     -1898.6414
 -10237351.81749  -7958910.59047  23931067.6374   23931062.6134
      2162.3914
  -8768957.83649  -6814217.75747  23932840.6134   23932837.6644
     -2983.7974
  -7056079.25149  -5480255.70647  24591701.9734   24591698.7624
      2950.7664
 -10793983.74449  -8393761.53947  23504515.1374   23504513.1094
      -778.2194
 -11213926.28549  -8718497.60847  23319104.3944   23319101.6724
     -2759.2814
  -6717514.76749  -5216894.35447  24329472.5664   24329469.7344
     -2535.7344
  -6342646.36149  -4923818.94047  24689317.5434   24689312.6994
      2945.9844
 -16949997.13849 -13187856.80048  22298969.5904   22298966.2194
     -1186.2504
   1469597.31549   1163938.82846  25857497.6604   25857494.3554
     -3976.5164
 -16167751.86549 -12579967.65048  22713887.0904   22713882.5514
       508.9224
  -3020394.91249  -2335999.64546  25381558.2234   25381554.8244
      3238.3284
 07  4 22  0 38 30.0040000  0 12G 1G 2G12G 6G 4G 5G20G23G30G14G31G 7
 -12802865.67149  -9959647.85047  23335138.9494   23335136.3124
     -1907.7344
 -10269724.04849  -7984135.70547  23924907.2304   23924902.2814
      2153.8754
  -8724152.64849  -6779304.63147  23941367.2464   23941363.5984
     -2990.2034
  -7100304.38949  -5514716.89847  24583286.3874   24583283.2544
      2945.7344
 -10782231.21249  -8384603.71247  23506751.3874   23506749.3944
      -788.7664
 -11172478.67849  -8686200.77147  23326991.7154   23326989.0394
     -2766.9844
  -6679416.42649  -5187207.37247  24336722.3874   24336719.5514
     -2544.0474
  -6386789.50549  -4958216.14547  24680917.5984   24680913.0624
      2939.6414
 -16932123.61649 -13173929.38848  22302370.3714   22302367.6094
     -1196.8284
   1529263.86849   1210432.24146  25868852.4104   25868848.6764
     -3979.0164
 -16175314.75149 -12585860.80748  22712447.9184   22712443.6214
       499.3914
  -3068944.63149  -2373830.52946  25372320.0354   25372317.1214
      3235.1094
 07  4 22  0 38 45.0040000  0 12G 1G 2G12G 6G 4G 5G20G23G30G14G31G 7
 -12774180.74049  -9937295.96547  23340597.9344   23340594.8054
     -1916.9064
 -10301965.95249  -8009259.24847  23918772.0664   23918766.3594
      2145.0944
  -8679251.70949  -6744316.89447  23949911.6444   23949907.0434
     -2996.5784
  -7144451.15749  -5549116.97747  24574886.0194   24574882.1844
      2940.6564
 -10770318.56049  -8375321.10347  23509018.2934   23509016.2194
      -799.4694
 -11130914.24249  -8653812.90147  23334901.9574   23334898.6334
     -2774.7974
  -6641194.01049  -5157423.66947  24343996.2384   24343993.1954
     -2552.2504
  -6430836.59949  -4992538.51247  24672535.9494   24672530.8484
      2933.2194
 -16914090.48249 -13159877.60148  22305802.0594   22305799.3284
     -1207.5314
   1588971.44249   1256957.64146  25880213.4964   25880210.9224
     -3981.7814
 -16182731.66549 -12591640.20548  22711036.5904   22711031.9804
       489.6254
  -3117443.12049  -2411621.56246  25363091.0124   25363088.1414
      3231.5164
 07  4 22  0 39  0.0040000  0 12G 1G 2G12G 6G 4G 5G20G23G30G14G31G 7
 -12745357.94449  -9914836.64847  23346082.6994   23346080.3124
     -1926.1094
 -10334076.86849  -8034280.72347  23912661.6604   23912655.2424
      2136.3594
  -8634255.19849  -6709254.66947  23958474.0984   23958470.5984
     -3002.9064
  -7188519.09349  -5583455.65647  24566499.4964   24566495.6484
      2935.2504
 -10758245.80049  -8365913.76247  23511315.6764   23511313.8014
      -810.0474
 -11089233.26749  -8621334.21847  23342833.2624   23342830.5744
     -2782.5474
  -6602847.64349  -5127543.39447  24351293.2154   24351290.3914
     -2560.5474
  -6474787.08249  -5026785.62247  24664172.5664   24664167.4264
      2926.8914
 -16895897.55249 -13145701.27948  22309263.9494   22309260.8914
     -1218.0944
   1648719.73049   1303514.68746  25891583.3094   25891579.9694
     -3984.5474
 -16190002.28649 -12597305.62048  22709653.2774   22709648.6644
       479.9384
  -3165890.02649  -2449372.35046  25353871.3634   25353868.8444
      3228.0164
 07  4 22  0 39 15.0040000  0 12G 1G 2G12G 6G 4G 5G20G23G30G14G31G 7
 -12716399.27649  -9892271.45347  23351592.9884   23351590.1954
     -1935.0624
 -10366058.73549  -8059201.65047  23906576.0194   23906569.7274
      2127.8754
  -8589165.09849  -6674119.54147  23967054.4654   23967050.2664
     -3009.1254
  -7232509.69849  -5617734.02047  24558128.0194   24558125.2974
      2930.1254
 -10746014.74249  -8356383.08647  23513643.2544   23513640.9064
      -820.7034
 -11047437.69849  -8588766.23847  23350787.0194   23350783.9064
     -2790.1414
  -6564379.40049  -5097568.13747  24358613.4654   24358610.8714
     -2568.6254
  -6518642.30249  -5060958.48247  24655826.8874   24655822.2504
      2920.5474
 -16877546.99549 -13131402.15248  22312756.1524   22312753.4494
     -1228.6724
   1708506.68949   1350101.97946  25902959.8714   25902957.1444
     -3987.0004
 -16197128.28749 -12602858.35248  22708296.9024   22708291.9184
       470.2344
  -3214286.81649  -2487084.17346  25344662.7694   25344660.0984
      3224.8134
 07  4 22  0 39 30.0040000  0 12G 1G 2G12G 6G 4G 5G20G23G30G14G31G 7
 -12687303.65349  -9869599.55047  23357129.6134   23357126.9374
     -1944.2974
 -10397909.75349  -8084020.64247  23900514.5434   23900508.3404
      2119.0474
  -8543980.42149  -6638910.70847  23975652.8634   23975649.0864
     -3015.4534
  -7276421.35449  -5651950.90747  24549772.2624   24549768.9104
      2924.8134
 -10733624.26749  -8346728.19747  23516001.0744   23515998.8754
      -831.4064
 -11005526.60249  -8556108.22747  23358761.9884   23358759.0004
     -2797.8914
  -6525788.33849  -5067497.16447  24365956.9414   24365953.7154
     -2576.7974
  -6562400.55749  -5095055.79847  24647500.0514   24647495.2154
      2913.9844
 -16859037.36849 -13116979.07848  22316278.3554   22316275.8204
     -1239.2664
   1768333.30849   1396720.16846  25914344.7304   25914341.5434
     -3989.7034
 -16204108.28449 -12608297.31148  22706968.7624   22706964.1134
       460.4694
  -3262631.89549  -2524755.63446  25335462.0354   25335460.0314
      3221.4064
 07  4 22  0 39 45.0040000  0 12G 1G 2G12G 6G 4G 5G20G23G30G14G31G 7
 -12658070.96049  -9846820.82747  23362692.7384   23362689.7934
     -1953.4064
 -10429629.30649  -8108737.16447  23894478.6054   23894472.7894
      2110.2034
  -8498701.10549  -6603628.14647  23984269.4024   23984266.1914
     -3021.7814
  -7320253.50149  -5686105.82047  24541430.8634   24541427.4494
      2919.3284
 -10721074.17849  -8336948.90647  23518389.1684   23518386.5434
      -842.0004
 -10963499.99949  -8523360.23647  23366759.5744   23366756.3364
     -2805.6564
  -6487074.46749  -5037330.51147  24373323.7464   24373320.7274
     -2585.0314
  -6606061.35449  -5129077.21747  24639192.0274   24639186.6524
      2907.5004
 -16840368.58549 -13102431.99548  22319830.9804   22319827.8794
     -1249.8754
   1828199.67449   1443369.27146  25925737.6374   25925733.9184
     -3992.3754
 -16210942.01949 -12613622.31248  22705668.5354   22705663.7424
       450.6884
  -3310924.71249  -2562386.36846  25326272.1914   25326270.1214
      3217.7504
 07  4 22  0 40  0.0040000  0 12G 1G 2G12G 6G 4G 5G20G23G30G14G31G 7
 -12628701.87849  -9823935.82647  23368281.2074   23368278.6414
     -1962.5314
 -10461217.53749  -8133351.37247  23888467.3244   23888462.2384
      2101.4534
  -8453327.86049  -6568272.38447  23992903.3794   23992900.1604
     -3028.1094
  -7364006.35449  -5720198.93447  24533104.9104   24533101.7154
      2914.1884
 -10708364.98549  -8327045.63347  23520807.8554   23520805.1874
      -852.7814
 -10921358.58849  -8490522.79647  23374778.4964   23374775.2234
     -2813.2664
  -6448238.53649  -5007068.77347  24380714.0354   24380711.2584
     -2593.1874
  -6649624.82849  -5163022.77447  24630902.3944   24630896.5394
      2900.9694
 -16821541.38949 -13087761.45648  22323413.3944   22323410.6804
     -1260.5004
   1888104.77649   1490048.55246  25937136.1054   25937133.1374
     -3995.0004
 -16217629.68649 -12618833.47948  22704395.5354   22704391.1914
       440.9694
  -3359165.40549  -2599976.47946  25317092.3244   25317090.1444
      3214.2194
 07  4 22  0 40 15.0040000  0 12G 1G 2G12G 6G 4G 5G20G23G30G14G31G 7
 -12599196.69949  -9800944.78347  23373895.9104   23373893.2814
     -1971.6564
 -10492674.13349  -8157863.00547  23882481.4344   23882475.9104
      2092.6414
  -8407861.17049  -6532843.79347  24001554.9804   24001551.4414
     -3034.3284
  -7407679.67449  -5754230.10247  24524794.1994   24524791.5164
      2908.7664
 -10695496.78549  -8317018.45647  23523256.0124   23523254.0514
      -863.3914
 -10879102.72549  -8457596.13747  23382819.3714   23382816.5084
     -2820.9374
  -6409280.81649  -4976712.13147  24388127.6844   24388124.8554
     -2601.3594
  -6693090.55449  -5196892.14747  24622630.3484   24622625.6844
      2894.3284
 -16802556.05049 -13072967.69248  22327026.4734   22327022.7234
     -1271.0474
   1948048.38849   1536757.89546  25948543.5514   25948540.3944
     -3997.5784
 -16224171.37549 -12623930.89848  22703150.5664   22703146.1644
       431.1564
  -3407353.82549  -2637525.86846  25307922.7384   25307919.9184
      3210.6884
 07  4 22  0 40 30.0040000  0 12G 1G 2G12G 6G 4G 5G20G23G30G14G31G 7
 -12569555.08149  -9777847.41447  23379536.6994   23379533.7544
     -1980.6874
 -10523998.37949  -8182271.51747  23876520.6374   23876515.2074
      2083.9064
  -8362300.72249  -6497342.14547  24010225.2854   24010221.6914
     -3040.4534
  -7451272.59449  -5788198.62647  24516498.9654   24516495.1294
      2903.5004
 -10682469.26049  -8306867.14047  23525735.1684   23525732.9024
      -873.8754
 -10836732.20349  -8424580.13747  23390882.5354   23390879.3674
     -2828.5164
  -6370201.20449  -4946260.49847  24395563.8874   24395561.0434
     -2609.3284
  -6736457.82049  -5230684.81647  24614378.1054   24614372.3014
      2887.8444
 -16783412.10549 -13058050.32548  22330669.5744   22330666.1444
     -1281.5944
   2008030.57849   1583497.26146  25959958.4574   25959954.4924
     -4000.0944
 -16230566.45049 -12628914.06548  22701933.9964   22701929.3714
       421.4064
  -3455489.05549  -2675033.85646  25298762.5354   25298759.6414
      3207.2974
 07  4 22  0 40 45.0040000  0 11G 1G 2G12G 6G 4G 5G20G23G30G31G 7
 -12539776.56549  -9754643.37947  23385203.0824   23385200.3164
     -1989.7974
 -10555189.21449  -8206576.06847  23870585.6914   23870579.1294
      2074.9064
  -8316646.13949  -6461767.15647  24018912.9024   24018909.0044
     -3046.6724
  -7494784.10049  -5822103.70247  24508218.6294   24508215.5904
      2898.0004
 -10669281.76649  -8296591.15747  23528245.1214   23528242.8634
      -884.4844
 -10794246.59249  -8391474.47247  23398967.5434   23398963.9374
     -2836.1724
  -6330999.23049  -4915713.49347  24403023.6994   24403020.4734
     -2617.5004
  -6779725.56749  -5264399.92247  24606143.8094   24606138.9534
      2881.2034
 -16764109.07849 -13043009.02148  22334342.7934   22334339.6294
     -1292.0944
 -16236814.22349 -12633782.46148  22700744.7774   22700740.8324
       411.6094
  -3503570.17049  -2712499.67946  25289613.9964   25289610.2424
      3203.6884
 07  4 22  0 41  0.0040000  0 11G 1G 2G12G 6G 4G 5G20G23G30G31G 7
 -12509862.84949  -9731333.98247  23390895.8324   23390892.7694
     -1998.6874
 -10586247.85049  -8230777.62747  23864675.0904   23864669.2544
      2066.1414
  -8270899.11749  -6426120.10547  24027618.6524   24027615.4454
     -3052.8594
  -7538215.40149  -5855946.26947  24499954.7234   24499950.9304
      2892.7034
 -10655936.04049  -8286191.91547  23530784.3164   23530782.0234
      -895.0004
 -10751647.71849  -8358280.54347  23407073.3404   23407070.6764
     -2843.6564
  -6291676.63949  -4885072.52047  24410506.5434   24410503.7194
     -2625.5474
  -6822895.08949  -5298038.51347  24597929.5194   24597924.2584
      2874.7344
 -16744648.37749 -13027844.85348  22338045.5824   22338042.1444
     -1302.6094
 -16242915.89049 -12638537.01248  22699583.5434   22699578.8164
       401.9694
  -3551598.32349  -2749924.13346  25280473.7234   25280471.0274
      3200.0784
 07  4 22  0 41 15.0040000  0 11G 1G 2G12G 6G 4G 5G20G23G30G31G 7
 -12479813.75449  -9707919.10947  23396613.8874   23396610.8484
     -2007.8444
 -10617173.58749  -8254875.60947  23858790.2694   23858784.5824
      2057.2664
  -8225059.52649  -6390400.96547  24036341.8014   24036337.6214
     -3059.0474
  -7581565.78749  -5889725.80247  24491705.8094   24491701.8284
      2887.2814
 -10642431.58549  -8275668.96047  23533354.2544   23533351.5784
      -905.5944
 -10708935.41249  -8324998.23447  23415201.7464   23415197.9184
     -2851.2664
  -6252233.48049  -4854337.58147  24418012.3244   24418008.6524
     -2633.6874
  -6865965.37449  -5331599.73447  24589733.6764   24589728.1644
      2867.9694
 -16725029.79949 -13012557.65948  22341779.1524   22341775.7774
     -1313.1564
 -16248871.14749 -12643177.46448  22698450.2694   22698446.3594
       392.1254
  -3599572.88849  -2787306.91446  25271344.2934   25271341.2464
      3196.5004
 07  4 22  0 41 30.0040000  0 11G 1G 2G12G 6G 4G 5G20G23G30G31G 7
 -12449628.21849  -9684397.92447  23402357.8404   23402354.8324
     -2016.9064
 -10647964.81649  -8278868.75947  23852930.6054   23852925.3244
      2048.2664
  -8179126.48749  -6354608.97347  24045082.5744   24045078.2934
     -3065.3914
  -7624833.76149  -5923441.12847  24483471.0434   24483468.1054
      2881.7504
 -10628767.27149  -8265021.41947  23535954.1844   23535952.0704
      -916.2664
 -10666108.78049  -8291626.83047  23423351.0984   23423347.8944
     -2858.8594
  -6212668.68949  -4823507.87747  24425541.8094   24425538.2544
     -2641.6874
  -6908934.75849  -5365082.34447  24581556.5274   24581551.1644
      2861.2814
 -16705252.37249 -12997146.68048  22345542.7154   22345539.4924
     -1323.7814
 -16254678.65749 -12647702.79748  22697345.3874   22697341.1334
       382.2664
  -3647492.23949  -2824646.65246  25262226.2074   25262222.9844
      3192.7974
 07  4 22  0 41 45.0040000  0 11G 1G 2G12G 6G 4G 5G20G23G30G31G 7
 -12419306.29949  -9660770.45347  23408127.8714   23408125.8014
     -2026.0474
 -10678621.35849  -8302756.95347  23847096.7384   23847092.1374
      2039.3134
  -8133100.16349  -6318744.28647  24053841.0664   24053836.8754
     -3071.5944
  -7668018.86449  -5957091.85747  24475252.9654   24475250.8014
      2876.2034
 -10614943.26149  -8254249.46047  23538585.3324   23538582.1484
      -926.9064
 -10623167.98049  -8258166.46647  23431522.6844   23431519.4534
     -2866.5164
  -6172982.50549  -4792583.56947  24433094.0664   24433090.9374
     -2649.8754
  -6951802.91149  -5398486.08847  24573399.2384   24573395.0394
      2854.4064
 -16685316.04849 -12981611.88548  22349336.6054   22349332.7074
     -1334.4534
 -16260338.28449 -12652112.90448  22696267.9654   22696263.7934
       372.3134
  -3695355.99649  -2861943.07846  25253117.5664   25253115.5084
      3189.0944
 07  4 22  0 42  0.0040000  0 11G 1G 2G12G 6G 4G 5G20G23G30G31G 7
 -12388847.41649  -9637036.24947  23413924.5664   23413921.8444
     -2035.1724
 -10709141.77849  -8326539.09547  23841288.8874   23841283.6294
      2030.0474
  -8086979.86149  -6282806.39347  24062617.3244   24062612.8714
     -3077.8754
  -7711120.02349  -5990677.18947  24467051.9184   24467048.6954
      2870.5634
 -10600958.69749  -8243352.41447  23541246.3714   23541243.3324
      -937.6094
 -10580112.49449  -8224616.75747  23439715.6914   23439712.7854
     -2874.1724
  -6133174.42949  -4761564.30047  24440669.0744   24440665.5354
     -2657.9374
  -6994568.75349  -5431810.09547  24565261.3874   24565255.9374
      2847.5164
 -16665220.27149 -12965952.85148  22353160.2694   22353157.3164
     -1345.0784
 -16265849.02349 -12656406.98448  22695219.5664   22695215.0624
       362.3594
  -3743163.12749  -2899195.33946  25244020.5124   25244017.5274
      3185.2504
 07  4 22  0 42 15.0040000  0 11G 1G 2G12G 6G 4G 5G20G23G30G31G 7
 -12358251.85349  -9613195.56147  23419746.5824   23419743.8244
     -2044.2034
 -10739526.05249  -8350215.16347  23835507.0594   23835501.7034
      2021.1094
  -8040766.05349  -6246795.62647  24071410.9574   24071407.5474
     -3083.9844
  -7754136.80449  -6024196.73747  24458865.6604   24458863.2194
      2865.0314
 -10586813.79049  -8232330.44447  23543937.9574   23543936.1444
      -948.2344
 -10536942.53849  -8190977.83047  23447930.6994   23447927.4224
     -2881.7344
  -6093244.80349  -4730450.31847  24448267.3094   24448263.7344
     -2665.9374
  -7037231.87149  -5465054.08447  24557142.7934   24557137.4304
      2840.7814
 -16644965.09249 -12950169.55448  22357014.7694   22357011.5864
     -1355.6254
 -16271210.74949 -12660584.96748  22694199.2544   22694194.7934
       352.5474
  -3790913.23649  -2936403.20146  25234933.9344   25234930.5664
      3181.3914
 07  4 22  0 42 30.0040000  0 11G 1G 2G12G 6G 4G 5G20G23G30G31G 7
 -12327520.70049  -9589249.20747  23425594.1764   23425591.3164
     -2053.2504
 -10769774.57949  -8373785.41647  23829750.8324   23829745.5434
      2011.9534
  -7994459.76549  -6210712.81747  24080223.1684   24080219.9774
     -3090.1254
  -7797069.97049  -6057651.10947  24450695.9414   24450692.8554
      2859.3444
 -10572509.43349  -8221184.19547  23546660.2074   23546657.8594
      -959.0474
 -10493659.48949  -8157250.81247  23456167.1444   23456163.8794
     -2889.2974
  -6053194.93749  -4699242.62647  24455888.9024   24455884.8674
     -2674.0004
  -7079792.77449  -5498218.41547  24549043.1604   24549037.9264
      2833.9384
 -16624551.38349 -12934262.67848  22360899.5984   22360896.0514
     -1366.2504
 -16276424.37949 -12664647.53448  22693207.2934   22693203.0194
       342.6094
  -3838606.95849  -2973567.09746  25225858.1444   25225854.7974
      3177.7194
 07  4 22  0 42 45.0040000  0 11G 1G 2G12G 6G 4G 5G20G23G30G31G 7
 -12296654.38649  -9565197.55747  23431468.2624   23431465.2114
     -2062.2034
 -10799887.35849  -8397249.91747  23824020.5194   23824015.1954
      2003.0004
  -7948061.42449  -6174558.25247  24089052.3874   24089048.5904
     -3096.2814
  -7839919.34449  -6091040.23547  24442540.9104   24442538.6764
      2853.7814
 -10558046.01449  -8209913.98847  23549412.4414   23549410.1724
      -969.5624
 -10450263.67949  -8123435.89547  23464425.2624   23464421.7344
     -2896.7504
  -6013025.18749  -4667941.52147  24463532.8324   24463529.3014
     -2682.0164
  -7122251.27749  -5531302.92047  24540963.7384   24540958.6024
      2827.2194
 -16603979.86549 -12918232.92248  22364814.4184   22364810.8444
     -1376.6724
 -16281490.02849 -12668594.78048  22692243.4184   22692238.7934
       332.7504
  -3886244.19349  -3010687.01346  25216792.8794   25216790.1444
      3173.8914
 07  4 22  0 43  0.0040000  0 11G 1G 2G12G 6G 4G 5G20G23G30G31G 7
 -12265653.00749  -9541040.62847  23437367.4184   23437364.3284
     -2071.1414
 -10829864.03249  -8420608.34647  23818316.5904   23818311.2894
      1993.9694
  -7901571.40449  -6138332.28247  24097899.5744   24097895.7664
     -3102.3124
  -7882684.62649  -6124363.78747  24434403.1214   24434400.8164
      2848.3284
 -10543423.52849  -8198519.84847  23552195.0124   23552193.5664
      -980.0624
 -10406755.39949  -8089533.35647  23472704.3244   23472701.0314
     -2904.2344
  -5972735.81349  -4636547.20147  24471199.6134   24471196.2304
     -2689.8914
  -7164607.06949  -5564307.43047  24532903.7854   24532898.5784
      2820.2974
 -16583250.57149 -12902080.22247  22368759.1844   22368755.4344
     -1387.0944
 -16286407.53049 -12672426.59248  22691307.5354   22691303.0864
       322.9384
  -3933824.71149  -3047762.70046  25207738.0904   25207734.4614
      3170.1254
 07  4 22  0 43 15.0040000  0 11G 1G 2G12G 6G 4G 5G20G23G30G31G 7
 -12234516.37649  -9516778.31547  23443292.1524   23443289.4144
     -2080.3594
 -10859703.87949  -8443860.19247  23812638.5514   23812633.0944
      1984.5944
  -7854989.61949  -6102034.80047  24106763.6524   24106759.6484
     -3108.5474
  -7925365.05849  -6157621.24247  24426282.0354   24426279.3364
      2842.4694
 -10528641.63949  -8187001.47147  23555007.6844   23555006.3714
      -990.8124
 -10363134.52049  -8055543.07247  23481005.2544   23481002.6254
     -2911.7974
  -5932326.78949  -4605059.67847  24478889.2074   24478884.9454
     -2698.0474
  -7206859.33949  -5597231.25447  24524863.7464   24524858.4654
      2813.2814
 -16562363.13549 -12885804.30847  22372733.4884   22372729.9304
     -1397.8444
 -16291176.43549 -12676142.62048  22690400.0194   22690395.3984
       312.9224
  -3981347.68849  -3084793.57646  25198694.7234   25198692.4694
      3166.3284
 07  4 22  0 43 30.0040000  0 11G 1G 2G12G 6G 4G 5G20G23G30G31G 7
 -12203243.83549  -9492410.09547  23449243.2074   23449240.6874
     -2089.3444
 -10889405.62549  -8467004.39547  23806986.5514   23806981.0514
      1975.5474
  -7808315.31749  -6065665.23747  24115645.0354   24115641.6094
     -3114.6874
  -7967959.41149  -6190811.65347  24418176.7624   24418173.9734
      2836.7344
 -10513699.75349  -8175358.41247  23557851.4494   23557849.3404
     -1001.4534
 -10319400.32049  -8021464.45847  23489327.7304   23489324.1134
     -2919.3284
  -5891797.41949  -4573478.32447  24486601.7384   24486598.0594
     -2706.0474
  -7249006.86349  -5630073.50347  24516843.1994   24516837.9574
      2806.3754
 -16541316.79749 -12869404.52747  22376738.6994   22376734.9224
     -1408.4064
 -16295795.79149 -12679742.13148  22689521.0514   22689516.7544
       302.9534
  -4028812.01349  -3121778.75046  25189662.4884   25189659.8404
      3162.2504
 07  4 22  0 43 45.0040000  0 11G 1G 2G12G 6G 4G 5G20G23G30G31G 7
 -12171836.59149  -9467936.92647  23455220.0984   23455217.1684
     -2098.2974
 -10918970.02149  -8490041.56847  23801360.5194   23801355.1294
      1966.5164
  -7761549.69449  -6029224.51047  24124544.9104   24124540.9574
     -3120.7034
  -8010468.42749  -6223935.56947  24410087.5354   24410084.5704
      2831.1094
 -10498598.82749  -8163591.44047  23560725.1294   23560723.1524
     -1012.0314
 -10275554.19149  -7987298.64747  23497670.8484   23497668.4654
     -2926.7814
  -5851148.88749  -4541804.11547  24494336.7384   24494333.0434
     -2713.8444
  -7291050.30149  -5662834.62747  24508842.7234   24508836.4964
      2799.4534
 -16520112.81249 -12852881.92848  22380773.8014   22380770.2774
     -1418.8594
 -16300266.39549 -12683225.71848  22688670.2694   22688665.9374
       293.1254
  -4076218.26949  -3158718.70347  25180642.0514   25180639.1724
      3158.5634
 07  4 22  0 44  0.0040000  0 11G 1G 2G12G 6G 4G 5G20G23G30G31G 7
 -12140295.19949  -9443359.22347  23461222.1524   23461218.8484
     -2107.1874
 -10948397.19049  -8512971.80447  23795759.9964   23795754.5904
      1957.2344
  -7714693.44549  -5992713.18047  24133461.2464   24133457.5394
     -3126.7664
  -8052892.08149  -6256992.96547  24402014.0124   24402011.4024
      2825.3754
 -10483339.31249  -8151700.93347  23563628.9574   23563626.9654
     -1022.5784
 -10231596.75949  -7953046.09847  23506036.0984   23506033.0554
     -2934.1874
  -5810381.91149  -4510037.63847  24502094.2074   24502090.6564
     -2721.7034
  -7332989.52549  -5695514.55647  24500861.9414   24500856.4064
      2792.5004
 -16498751.55249 -12836236.77848  22384838.3484   22384834.7664
     -1429.3444
 -16304588.51249 -12686593.60748  22687847.9184   22687843.7504
       283.2504
  -4123566.47949  -3195613.40647  25171632.0594   25171629.0624
      3154.6254
 07  4 22  0 44 15.0040000  0 11G 1G 2G12G 6G 4G 5G20G23G30G31G 7
 -12108619.96549  -9418677.23047  23467249.9804   23467247.1914
     -2116.0474
 -10977686.87849  -8535794.96147  23790186.3634   23790181.6374
      1948.0944
  -7667747.01649  -5956131.57947  24142394.6684   24142390.6334
     -3132.6724
  -8095230.08649  -6289983.61547  24393958.0664   24393954.7234
      2819.7034
 -10467921.45549  -8139687.00747  23566563.0354   23566560.9264
     -1033.0944
 -10187528.45449  -7918707.16647  23514421.9184   23514418.8594
     -2941.5624
  -5769497.07149  -4478179.32847  24509874.5044   24509871.5004
     -2729.5164
  -7374824.32649  -5728113.10647  24492901.0514   24492895.1094
      2785.5634
 -16477233.34049 -12819469.33548  22388933.2624   22388930.1054
     -1439.7344
 -16308762.25149 -12689845.87448  22687053.6764   22687049.5904
       273.3444
  -4170856.55449  -3232462.78147  25162632.5274   25162629.9774
      3150.8444
 07  4 22  0 44 30.0040000  0 11G 1G 2G12G 6G 4G 5G20G23G30G31G 7
 -12076811.38049  -9393891.31647  23473302.4804   23473299.9104
     -2124.9374
 -11006838.95349  -8558510.83947  23784639.2854   23784633.8754
      1938.9694
  -7620710.79549  -5919479.99447  24151345.1914   24151341.5044
     -3138.7034
  -8137482.52849  -6322907.59847  24385916.8874   24385913.9104
      2814.0944
 -10452345.59149  -8127549.94447  23569526.7074   23569524.3444
     -1043.6094
 -10143349.72549  -7884282.17547  23522829.1684   23522825.7194
     -2948.8284
  -5728494.88449  -4446229.57247  24517676.4414   24517673.2504
     -2737.3124
  -7416554.73149  -5760630.31347  24484959.9344   24484955.0394
      2778.6094
 -16455558.71649 -12802580.02147  22393057.7544   22393054.4734
     -1450.1254
 -16312787.71049 -12692982.59048  22686287.7694   22686283.2154
       263.4694
  -4218088.33149  -3269266.74147  25153644.7774   25153642.6214
      3146.8914
 07  4 22  0 44 45.0040000  0 11G 1G 2G12G 6G 4G 5G20G23G30G31G 7
 -12044870.38549  -9369002.23547  23479381.2154   23479378.0704
     -2133.7344
 -11035853.99249  -8581119.94947  23779117.9884   23779112.1294
      1929.8444
  -7573585.99649  -5882759.36547  24160313.3634   24160309.1764
     -3144.5784
  -8179649.84149  -6355765.26647  24377893.0514   24377890.1054
      2808.4224
 -10436612.76249  -8115290.58747  23572520.3014   23572518.1874
     -1054.1414
 -10099061.62949  -7849771.97547  23531256.4734   23531253.5164
     -2956.0944
  -5687376.23849  -4414189.06047  24525501.2774   24525498.2034
     -2745.0314
  -7458181.02549  -5793066.41347  24477038.3554   24477032.8124
      2771.7034
 -16433728.21049 -12785569.24648  22397212.0824   22397208.8484
     -1460.5944
 -16316665.69349 -12696004.39348  22685549.7544   22685545.1684
       253.5944
  -4265262.36149  -3306025.69147  25144668.1994   25144666.0624
      3143.0634
 07  4 22  0 45  0.0040000  0 11G 1G 2G12G 6G 4G 5G20G23G30G31G 7
 -12012798.72049  -9344011.31847  23485483.7854   23485481.1484
     -2142.4844
 -11064733.22649  -8603623.26547  23773622.4494   23773616.7464
      1920.7504
  -7526374.24349  -5845970.99147  24169296.8014   24169292.8594
     -3150.3754
  -8221733.26749  -6388557.54847  24369884.7624   24369882.2814
      2802.7664
 -10420724.28049  -8102909.91947  23575543.8794   23575542.7034
     -1064.3914
 -10054666.11949  -7815178.05047  23539704.7544   23539701.7114
     -2963.2974
  -5646143.02449  -4382059.29747  24533347.6764   24533344.6024
     -2752.7504
  -7499704.45949  -5825422.32047  24469136.9884   24469131.5354
      2764.6884
 -16411743.85849 -12768438.59948  22401395.7464   22401392.6054
     -1470.7664
 -16320397.65749 -12698912.41048  22684839.4734   22684835.0984
       243.9064
  -4312379.82249  -3342740.54046  25135701.8634   25135699.8404
      3139.2664
 07  4 22  0 45 15.0040000  0 11G 1G 2G12G 6G 4G 5G20G23G30G31G 7
 -11980594.48749  -9318917.12447  23491612.0664   23491609.0944
     -2151.4064
 -11093474.21349  -8626018.85347  23768153.4024   23768147.2774
      1911.3754
  -7479073.72449  -5809113.45947  24178297.9804   24178294.2934
     -3156.2664
  -8263730.24249  -6421282.43147  24361893.3404   24361890.6764
      2796.9064
 -10404678.25149  -8090406.48647  23578597.2464   23578595.4694
     -1074.9844
 -10010161.18149  -7780498.89147  23548174.4414   23548171.0664
     -2970.6564
  -5604793.46049  -4349838.87047  24541216.3094   24541213.0044
     -2760.4694
  -7541122.50949  -5857696.14547  24461255.5824   24461250.8674
      2757.6564
 -16389603.37049 -12751186.27148  22405608.7934   22405605.3054
     -1481.2664
 -16323981.25649 -12701704.83548  22684157.5194   22684152.9344
       233.9694
  -4359438.34649  -3379409.50847  25126746.6764   25126744.4614
      3135.2504
 07  4 22  0 45 30.0040000  0 11G 1G 2G12G 6G 4G 5G20G23G30G31G 7
 -11948256.94949  -9293719.03947  23497765.8324   23497763.0124
     -2160.2664
 -11122075.64549  -8648305.67247  23762710.5984   23762704.3794
      1902.0474
  -7431683.71849  -5772186.21447  24187315.1444   24187311.7464
     -3162.3444
  -8305639.58249  -6453939.04047  24353918.1444   24353916.0594
      2791.0164
 -10388473.77749  -8077779.60247  23581680.8874   23581679.5434
     -1085.6094
  -9965546.20249  -7745733.97347  23556664.1374   23556661.2464
     -2977.9694
  -5563326.94149  -4317527.30747  24549107.4414   24549104.1804
     -2768.3124
  -7582433.77949  -5889886.75347  24453394.2384   24453389.2854
      2750.5474
 -16367306.22949 -12733811.87548  22409851.9264   22409848.8794
     -1491.6874
 -16327415.52349 -12704380.87548  22683504.0744   22683499.8874
       223.9534
  -4406436.62649  -3416031.50447  25117803.4344   25117801.3944
      3131.1724
 07  4 22  0 45 45.0040000  0 11G 1G 2G12G 6G 4G 5G20G23G30G31G 7
 -11915788.30949  -9268418.79947  23503944.4804   23503941.2694
     -2168.9224
 -11150539.20949  -8670485.06447  23757293.9654   23757288.1804
      1893.0004
  -7384206.55649  -5735191.02647  24196350.6524   24196347.2304
     -3168.0164
  -8347463.05549  -6486528.73847  24345959.6994   24345956.6914
      2785.4224
 -10372113.26449  -8065031.13947  23584793.9024   23584793.0314
     -1095.9374
  -9920823.50349  -7710885.13647  23565174.4884   23565170.9534
     -2985.0944
  -5521745.72149  -4285126.34247  24557019.7934   24557017.3244
     -2775.8594
  -7623639.85049  -5921995.36947  24445553.2544   24445547.7504
      2743.5314
 -16344854.66549 -12716317.17248  22414124.1914   22414120.7114
     -1501.8444
 -16330702.47249 -12706942.13148  22682878.5354   22682874.4064
       214.2664
  -4453376.37649  -3452607.93547  25108870.9104   25108868.4844
      3127.4224
 07  4 22  0 46  0.0040000  0 11G 1G 2G12G 6G 4G 5G20G23G30G31G 7
 -11883189.07549  -9243016.79247  23510147.7384   23510145.2424
     -2177.5784
 -11178864.91449  -8692557.02747  23751903.3874   23751898.5084
      1883.8754
  -7336642.69649  -5698128.28347  24205401.9574   24205398.6804
     -3173.9694
  -8389200.43349  -6519051.37247  24338016.8164   24338014.3124
      2779.5944
 -10355596.92249  -8052161.25847  23587936.9184   23587935.8754
     -1106.3444
  -9875993.57649  -7675952.71547  23573705.3634   23573702.3524
     -2992.2814
  -5480050.33249  -4252636.44747  24564954.2154   24564950.9804
     -2783.5624
  -7664740.62849  -5954021.95947  24437731.9264   24437727.1524
      2736.5634
 -16322248.96149 -12698702.35948  22418425.6764   22418422.8484
     -1512.2194
 -16333842.23549 -12709388.70648  22682281.0904   22682276.9184
       204.3444
  -4500257.53849  -3489138.66447  25099950.1214   25099947.5904
      3123.4224
 07  4 22  0 46 15.0040000  0 11G 1G 2G12G 6G 4G 5G20G23G30G31G 7
 -11850458.51649  -9217512.46547  23516376.3554   23516373.2584
     -2186.4694
 -11207051.58249  -8714520.66447  23746539.3944   23746533.9694
      1874.4064
  -7288991.37149  -5660997.40747  24214469.5274   24214465.9064
     -3179.7194
  -8430850.55549  -6551506.00647  24330091.5594   24330088.5434
      2773.6414
 -10338923.82249  -8039169.25247  23591109.6994   23591108.4414
     -1116.9064
  -9831055.73649  -7640936.23447  23582256.4654   23582253.3014
     -2999.4534
  -5438240.24149  -4220057.14947  24572910.1764   24572907.1094
     -2791.2194
  -7705734.88649  -5985965.53847  24429931.0354   24429925.9804
      2729.3284
 -16299488.18049 -12680966.69747  22422756.9574   22422753.7934
     -1522.5624
 -16336833.78649 -12711719.78948  22681711.7854   22681707.4924
       194.4224
  -4547078.81949  -3525622.78946  25091039.4654   25091037.6024
      3119.4064
 07  4 22  0 46 30.0040000  0 11G 1G 2G12G 6G 4G 5G20G23G30G31G 7
 -11817596.18449  -9191905.46547  23522629.5594   23522626.4734
     -2195.2664
 -11235098.16249  -8736375.12447  23741202.5594   23741197.0044
      1865.1414
  -7241252.30049  -5623798.13047  24223554.0594   24223550.4374
     -3185.4694
  -8472412.54749  -6583891.97547  24322181.8244   24322179.6804
      2767.9064
 -10322093.55549  -8026054.77147  23594312.5904   23594311.5704
     -1127.3124
  -9786009.72849  -7605835.46447  23590828.3554   23590825.8984
     -3006.6564
  -5396315.03749  -4187388.16247  24580888.7854   24580885.4494
     -2798.8594
  -7746621.71349  -6017825.41547  24422150.5904   24422144.5234
      2722.1724
 -16276572.11049 -12663110.04348  22427118.0744   22427114.7154
     -1532.8754
 -16339676.32049 -12713934.74848  22681170.5824   22681166.6054
       184.5004
  -4593839.32949  -3562059.55746  25082141.1914   25082139.5824
      3115.3914
 07  4 22  0 46 45.0040000  0 11G 1G 2G12G 6G 4G 5G20G23G30G31G 7
 -11784603.03949  -9166196.52647  23528907.7154   23528905.1874
     -2203.9694
 -11263005.04049  -8758120.72347  23735892.0664   23735886.8944
      1855.7814
  -7193426.54449  -5586531.33547  24232654.8944   24232651.5984
     -3191.3444
  -8513886.71449  -6616209.46347  24314289.7774   24314287.7584
      2762.0004
 -10305106.86449  -8012818.38947  23597544.9104   23597543.4574
     -1137.6414
  -9740856.46849  -7570651.10247  23599420.7624   23599418.3754
     -3013.8754
  -5354275.72049  -4154630.25547  24588888.8634   24588885.7304
     -2806.4694
  -7787401.45549  -6049601.83347  24414390.4574   24414383.9964
      2714.9844
 -16253501.37549 -12645132.85047  22431507.9804   22431504.5514
     -1543.2974
 -16342370.54149 -12716034.13548  22680658.2774   22680653.9264
       174.6094
  -4640539.41249  -3598449.20646  25073254.8554   25073252.1214
      3111.2034
 07  4 22  0 47  0.0040000  0 11G 1G 2G12G 6G 4G 5G20G23G30G31G 7
 -11751478.65549  -9140385.32347  23535211.5194   23535208.5314
     -2212.6874
 -11290771.39749  -8779756.83347  23730608.4104   23730603.3444
      1846.3444
  -7145513.78849  -5549196.74447  24241772.6764   24241767.9414
     -3197.1094
  -8555272.28549  -6648457.97347  24306414.2304   24306411.8324
      2756.1414
 -10287963.40449  -7999459.87247  23600807.1914   23600805.4024
     -1148.1254
  -9695595.65549  -7535382.93647  23608033.1914   23608030.7624
     -3020.9694
  -5312122.00449  -4121783.20747  24596910.4884   24596906.9414
     -2814.0944
  -7828073.03249  -6081293.96447  24406650.5434   24406645.4494
      2707.7504
 -16230275.46049 -12627034.73948  22435928.0514   22435924.5044
     -1553.5784
 -16344915.81849 -12718017.46348  22680173.7234   22680169.3674
       164.7344
  -4687178.23949  -3634791.17746  25064379.5904   25064377.2584
      3107.2034
 07  4 22  0 47 15.0040000  0 11G 1G 2G12G 6G 4G 5G20G23G30G31G 7
 -11718224.51449  -9114473.00047  23541539.1994   23541536.4614
     -2221.2814
 -11318398.29849  -8801284.26147  23725350.9734   23725345.6724
      1837.0784
  -7097515.48449  -5511795.50147  24250906.4804   24250902.7304
     -3202.7504
  -8596570.08149  -6680638.12347  24298555.9884   24298552.7304
      2750.2034
 -10270664.44949  -7985980.16447  23604099.1684   23604097.7344
     -1158.4224
  -9650228.87349  -7500032.22447  23616666.5984   23616663.8054
     -3028.0314
  -5269855.47649  -4088848.25647  24604953.0744   24604950.1954
     -2821.5004
  -7868637.44449  -6112902.57747  24398931.4574   24398926.4344
      2700.7504
 -16206896.13849 -12608817.09447  22440376.8484   22440373.3874
     -1563.8284
 -16347313.36149 -12719885.67948  22679717.6374   22679713.3794
       154.8134
  -4733756.71149  -3671086.02947  25055515.9884   25055513.9184
      3103.2974
 07  4 22  0 47 30.0040000  0 11G 1G 2G12G 6G 4G 5G20G23G30G31G 7
 -11684840.85549  -9088459.77047  23547892.1214   23547889.4224
     -2229.9064
 -11345885.43949  -8822702.85547  23720120.6844   23720115.0594
      1827.8754
  -7049431.73549  -5474327.63847  24260056.1994   24260053.2074
     -3208.3914
  -8637779.64549  -6712749.47047  24290713.9964   24290710.2544
      2744.3284
 -10253209.96449  -7972379.25147  23607420.5984   23607419.1994
     -1168.7504
  -9604756.29349  -7464599.04247  23625320.0904   23625317.1054
     -3035.0474
  -5227476.25249  -4055825.47947  24613017.9574   24613014.2154
     -2829.0784
  -7909094.23749  -6144427.34447  24391232.8094   24391227.3204
      2693.5164
 -16183363.34949 -12590479.86447  22444854.8714   22444851.7544
     -1573.8594
 -16349562.94449 -12721638.58848  22679289.4574   22679285.9184
       145.0164
  -4780274.45049  -3707333.64147  25046663.9494   25046661.7774
      3099.1254
 07  4 22  0 47 45.0040000  0 11G 1G 2G12G 6G 4G 5G20G23G30G31G 7
 -11651327.33049  -9062345.34447  23554269.9574   23554266.7114
     -2238.5944
 -11373231.68249  -8844011.58347  23714917.1214   23714911.8284
      1818.3284
  -7001262.43849  -5436793.13247  24269222.5194   24269219.5314
     -3214.1254
  -8678900.47249  -6744791.68147  24282888.4734   24282885.8204
      2738.4844
 -10235599.83949  -7958657.07947  23610772.0124   23610770.0514
     -1179.2034
  -9559177.75449  -7429083.30147  23633993.4494   23633989.9614
     -3042.1094
  -5184984.24049  -4022714.85547  24621103.5824   24621100.8554
     -2836.5474
  -7949442.71349  -6175867.69447  24383554.9264   24383549.4374
      2686.2504
 -16159676.75349 -12572022.80847  22449362.1604   22449358.6914
     -1584.2504
 -16351664.05249 -12723275.81248  22678889.3324   22678885.3244
       135.1254
  -4826730.79249  -3743533.35246  25037823.3944   25037821.0394
      3095.0474
 07  4 22  0 48  0.0040000  0 11G 1G 2G12G 6G 4G 5G20G23G30G31G 7
 -11617684.74249  -9036130.33547  23560671.7304   23560668.8794
     -2247.1094
 -11400437.46949  -8865210.89847  23709739.8634   23709734.7034
      1809.0164
  -6953008.54449  -5399192.70547  24278404.9494   24278401.4454
     -3219.7194
  -8719932.44649  -6776764.63747  24275081.0194   24275077.9304
      2732.5634
 -10217834.59349  -7944814.02347  23614152.6054   23614150.6414
     -1189.5004
  -9513494.04249  -7393485.60147  23642686.7154   23642683.0004
     -3049.0944
  -5142380.38649  -3989517.03747  24629210.4264   24629207.4774
     -2844.0474
  -7989682.88349  -6207223.67247  24375897.3634   24375892.2234
      2679.0634
 -16135837.17149 -12553446.51748  22453899.0124   22453895.7384
     -1594.4224
 -16353617.22649 -12724797.76648  22678517.9964   22678513.5664
       125.2034
  -4873125.81449  -3779685.32947  25028995.2154   25028992.5394
      3090.9384
 07  4 22  0 48 15.0040000  0 11G 1G 2G12G 6G 4G 5G20G23G30G31G 7
 -11583912.73049  -9009814.47947  23567098.3634   23567095.6414
     -2255.6874
 -11427501.97249  -8886300.11147  23704589.9414   23704584.2974
      1799.7664
  -6904669.44549  -5361525.91347  24287603.1844   24287600.2194
     -3225.3124
  -8760874.81149  -6808667.72947  24267289.6294   24267286.8124
      2726.6884
 -10199913.77649  -7930849.75847  23617562.6444   23617561.1764
     -1199.7664
  -9467704.86749  -7357805.73347  23651399.9574   23651396.9184
     -3056.0944
  -5099664.43949  -3956231.88247  24637339.3324   24637336.4694
     -2851.4374
  -8029813.72349  -6238494.44147  24368260.9414   24368255.7734
      2671.8134
 -16111843.94249 -12534750.51047  22458464.8484   22458461.2114
     -1604.6094
 -16355421.72049 -12726203.87148  22678174.3014   22678170.3054
       115.4534
  -4919458.67549  -3815788.84647  25020178.4344   25020175.2814
      3086.8914
 07  4 22  0 48 30.0040000  0 11G 1G 2G12G 6G 4G 5G20G23G30G31G 7
 -11550012.16449  -8983398.45247  23573549.3014   23573546.0984
     -2264.3124
 -11454425.58649  -8907279.55647  23699466.0194   23699460.8754
      1790.2664
  -6856246.10749  -5323793.44247  24296818.4024   24296814.2544
     -3231.1094
  -8801727.88449  -6840501.27847  24259515.9264   24259512.7194
      2720.5004
 -10181838.19649  -7916764.88847  23621002.7234   23621000.7974
     -1210.1564
  -9421811.25449  -7322044.47847  23660133.2074   23660129.9884
     -3063.1254
  -5056837.23049  -3922860.04947  24645489.3634   24645486.2274
     -2858.9374
  -8069835.68249  -6269680.35347  24360644.4104   24360639.7694
      2664.4534
 -16087697.94549 -12515935.46147  22463059.4344   22463056.3634
     -1614.8284
 -16357078.26849 -12727494.68448  22677859.0124   22677854.9344
       105.5164
  -4965729.78449  -3851844.24347  25011373.1844   25011370.3874
      3082.6254
 07  4 22  0 48 45.0040000  0 11G 1G 2G12G 6G 4G 5G20G23G30G31G 7
 -11515982.51649  -8956881.85347  23580025.0194   23580021.9494
     -2272.9374
 -11481207.14749  -8928148.28647  23694369.8404   23694363.9104
      1780.7344
  -6807738.04049  -5285994.95347  24306048.7774   24306045.6914
     -3236.6564
  -8842490.72149  -6872264.53347  24251759.3244   24251755.6214
      2714.5314
 -10163607.21749  -7902558.92447  23624471.4804   23624469.7974
     -1220.5004
  -9375812.60949  -7286201.37847  23668886.4264   23668883.1994
     -3070.0944
  -5013898.24049  -3889401.10247  24653660.2464   24653657.0474
     -2866.3284
  -8109747.58649  -6300780.51347  24353049.3944   24353044.1484
      2657.1884
 -16063398.80549 -12497001.07047  22467683.4264   22467680.2154
     -1625.0164
 -16358585.82149 -12728669.40448  22677572.6604   22677568.2814
        95.5634
  -5011938.01249  -3887850.64147  25002580.3014   25002577.5274
      3078.5004
 07  4 22  0 49  0.0040000  0 11G 1G 2G12G 6G 4G 5G20G23G30G31G 7
 -11481825.25449  -8930265.81247  23586524.1994   23586521.7734
     -2281.4534
 -11507847.73349  -8948907.15247  23689300.1764   23689294.3404
      1771.3444
  -6759146.78749  -5248131.64047  24315295.3404   24315292.3124
     -3242.1874
  -8883164.19749  -6903958.17747  24244018.4104   24244015.6294
      2708.5474
 -10145222.12549  -7888232.88847  23627970.7464   23627968.0234
     -1230.8124
  -9329710.54149  -7250277.70547  23677659.5044   23677656.7774
     -3077.0004
  -4970849.12849  -3855856.35247  24661852.4104   24661848.4024
     -2873.5314
  -8149550.36449  -6331795.66347  24345475.1604   24345469.3714
      2649.8754
 -16038947.73749 -12477948.28447  22472336.4344   22472332.4374
     -1635.1414
 -16359945.75549 -12729729.10148  22677313.3714   22677309.5194
        85.7814
  -5058084.22349  -3923808.71847  24993798.8554   24993796.1524
      3074.2974
 07  4 22  0 49 15.0040000  0 11G 1G 2G12G 6G 4G 5G20G23G30G31G 7
 -11447539.50549  -8903549.64747  23593048.9884   23593046.5234
     -2289.9534
 -11534346.02049  -8969555.17147  23684257.9654   23684251.9304
      1761.9064
  -6710471.72049  -5210203.03947  24324558.4024   24324554.8364
     -3247.6254
  -8923746.92449  -6935581.03547  24236296.5274   24236293.6844
      2702.5784
 -10126682.02249  -7873786.06647  23631498.3794   23631496.6174
     -1241.2504
  -9283504.24849  -7214272.81947  23686451.8874   23686448.7894
     -3083.8914
  -4927689.05749  -3822225.15147  24670065.6764   24670062.5394
     -2881.0164
  -8189242.67949  -6362724.72347  24337921.6684   24337916.2234
      2642.4844
 -16014343.83549 -12458776.41847  22477018.3164   22477014.6684
     -1645.3124
 -16361156.74049 -12730672.71848  22677083.0514   22677079.1484
        75.8594
  -5104167.16349  -3959717.46647  24985029.6054   24985026.0474
      3070.1254
 07  4 22  0 49 30.0040000  0 11G 1G 2G12G 6G 4G 5G20G23G30G31G 7
 -11413125.32949  -8876733.40947  23599598.3484   23599595.1564
     -2298.6094
 -11560701.59049  -8990092.03147  23679242.3794   23679236.5594
      1752.2974
  -6661712.70449  -5172209.00147  24333836.6604   24333833.7194
     -3253.4694
  -8964238.32149  -6967132.76647  24228590.9654   24228587.5514
      2696.3134
 -10107986.91749  -7859218.46647  23635055.8874   23635054.0004
     -1251.5474
  -9237193.87349  -7178186.80447  23695264.6214   23695262.1054
     -3090.8444
  -4884418.25849  -3788507.63647  24678299.6684   24678295.3324
     -2888.3444
  -8228823.80649  -6393567.14347  24330389.9494   24330384.6564
      2635.0314
 -15989587.07849 -12439485.42847  22481729.4884   22481725.7304
     -1655.5624
 -16362218.68449 -12731500.20048  22676880.5984   22676876.7694
        65.8444
  -5150186.25649  -3995576.49547  24976272.6764   24976269.7034
      3065.7194
 07  4 22  0 49 45.0040000  0 11G 1G 2G12G 6G 4G 5G20G23G30G31G 7
 -11378583.95849  -8849818.07147  23606171.0594   23606168.7074
     -2307.0474
 -11586914.88449  -9010517.97947  23674254.4344   23674249.1844
      1742.8754
  -6612871.14549  -5134150.66947  24343131.0904   24343127.6604
     -3258.9224
  -9004639.41049  -6998614.14347  24220903.0514   24220899.3324
      2690.3594
 -10089138.11949  -7844531.11047  23638643.0904   23638640.8404
     -1261.7504
  -9190780.71449  -7142020.73247  23704096.6444   23704094.0084
     -3097.6564
  -4841038.03549  -3754704.86047  24686554.8014   24686550.9454
     -2895.6724
  -8268294.56549  -6424323.57747  24322878.9654   24322873.4414
      2627.6414
 -15964678.73749 -12420076.34647  22486469.2234   22486465.8094
     -1665.6094
 -16363132.57649 -12732212.32948  22676707.1524   22676703.0354
        55.9534
  -5196142.39949  -4031386.46447  24967527.0904   24967524.2424
      3061.6094
 07  4 22  0 50  0.0040000  0 11G 1G 2G12G 6G 4G 5G20G23G30G31G 7
 -11343915.39649  -8822803.59147  23612768.2464   23612765.6844
     -2315.5944
 -11612985.50449  -9030832.71447  23669292.8094   23669288.0984
      1733.1884
  -6563947.20149  -5096028.12247  24352440.7854   24352437.0514
     -3264.5314
  -9044949.36549  -7030024.53547  24213231.7544   24213228.7664
      2684.0634
 -10070135.34249  -7829723.73947  23642258.9494   23642257.1414
     -1272.1414
  -9144264.78749  -7105774.55847  23712948.6914   23712945.5984
     -3104.5624
  -4797548.49049  -3720816.91347  24694830.6214   24694826.4104
     -2903.0784
  -8307654.32349  -6454993.52247  24315389.3404   24315383.8244
      2620.1414
 -15939618.86849 -12400549.17347  22491238.2854   22491234.3794
     -1675.8594
 -16363898.14449 -12732808.85348  22676561.3484   22676556.8324
        45.9844
  -5242034.91449  -4067146.87247  24958794.1844   24958791.4304
      3057.1254
 07  4 22  0 50 15.0040000  0 11G 1G 2G12G 6G 4G 5G20G23G30G31G 7
 -11309119.31749  -8795689.77247  23619389.5664   23619386.4734
     -2323.8754
 -11638912.56849  -9051035.60247  23664359.1444   23664353.6054
      1723.6414
  -6514940.34149  -5057840.95647  24361767.0984   24361762.7344
     -3269.8124
  -9085167.33449  -7061363.21347  24205578.6524   24205575.5354
      2678.1564
 -10050978.04049  -7814795.98047  23645904.1134   23645902.2544
     -1282.2974
  -9097645.82249  -7069448.11047  23721820.0124   23721816.7664
     -3111.2814
  -4753949.35149  -3686843.56347  24703127.4264   24703123.3794
     -2910.2974
  -8346902.25049  -6485576.31347  24307921.0904   24307915.1844
      2612.8914
 -15914407.05949 -12380903.59147  22496035.5664   22496032.3284
     -1685.7814
 -16364514.76349 -12733289.33748  22676444.1444   22676440.2934
        36.2034
  -5287862.91849  -4102856.99947  24950073.5124   24950070.4574
      3053.1094
 07  4 22  0 50 30.0040000  0 11G 1G 2G12G 6G 4G 5G20G23G30G31G 7
 -11274196.34849  -8768477.06947  23626035.3554   23626032.4304
     -2332.5624
 -11664696.27749  -9071126.78047  23659452.9884   23659447.7774
      1714.0474
  -6465851.38049  -5019589.85747  24371108.0274   24371104.6334
     -3275.4534
  -9125293.51149  -7092630.35847  24197943.5274   24197940.0354
      2672.0004
 -10031666.90849  -7799748.33747  23649579.3014   23649576.7664
     -1292.5944
  -9050924.55849  -7033041.94547  23730710.6214   23730707.2974
     -3118.2034
  -4710241.29549  -3652785.33247  24711444.3944   24711440.3524
     -2917.6254
  -8386038.21849  -6516071.85747  24300473.0904   24300468.0434
      2605.1884
 -15889043.97149 -12361140.14448  22500862.0744   22500858.7814
     -1695.9534
 -16364982.75749 -12733653.99048  22676354.8014   22676350.8794
        26.1414
  -5333626.54249  -4138516.93147  24941365.5744   24941361.7424
      3048.7034
 07  4 22  0 50 45.0040000  0 11G 1G 2G12G 6G 4G 5G20G23G30G31G 7
 -11239147.14949  -8741166.01147  23632704.9884   23632701.9534
     -2340.7814
 -11690336.84949  -9091106.44547  23654573.5594   23654568.1134
      1704.7034
  -6416680.74849  -4981275.05847  24380465.1134   24380460.6804
     -3280.6254
  -9165327.80949  -7123825.87847  24190324.5594   24190321.3164
      2665.9224
 -10012202.37949  -7784581.17547  23653283.1054   23653280.4844
     -1302.7344
  -9004101.67749  -6996556.60847  23739620.9184   23739617.7934
     -3124.8444
  -4666424.95749  -3618642.72547  24719782.0984   24719778.2504
     -2924.6724
  -8425062.32749  -6546480.23247  24293047.1374   24293041.5664
      2597.9384
 -15863529.87249 -12341259.01748  22505717.2854   22505713.8944
     -1705.9064
 -16365302.44449 -12733903.09848  22676294.1994   22676290.0704
        16.3754
  -5379325.88749  -4174126.78647  24932668.6294   24932664.8124
      3044.5634
 07  4 22  0 51  0.0040000  0 11G 1G 2G12G 6G 4G 5G20G23G30G31G 7
 -11203970.39249  -8713755.54547  23639398.8244   23639396.1024
     -2349.3284
 -11715832.40749  -9110973.11447  23649721.3554   23649716.7344
      1694.9064
  -6367427.46749  -4942895.91147  24389837.3094   24389833.9964
     -3286.2034
  -9205268.50349  -7154948.49047  24182725.0194   24182721.3244
      2659.4844
  -9992583.25849  -7769293.54647  23657016.5514   23657014.4534
     -1313.0624
  -8957175.85749  -6959991.04447  23748550.4964   23748547.6564
     -3131.7814
  -4622499.18849  -3584414.89447  24728141.2074   24728136.9574
     -2932.0474
  -8463972.72449  -6576800.00647  24285642.4024   24285637.0234
      2590.2504
 -15837863.54349 -12321259.29147  22510601.2624   22510598.0594
     -1716.1564
 -16365472.30349 -12734035.45848  22676261.9414   22676258.0744
         6.3754
  -5424959.10749  -4209685.15047  24923984.6994   24923981.5664
      3039.9384
 07  4 22  0 51 15.0040000  0 11G 1G 2G12G 6G 4G 5G20G23G30G31G 7
 -11168666.65449  -8686246.13747  23646117.0044   23646113.7584
     -2357.8124
 -11741183.03649  -9130726.84747  23644897.5904   23644892.7344
      1685.2194
  -6318092.06749  -4904452.75347  24399225.8244   24399222.3594
     -3291.7814
  -9245115.78149  -7185998.28047  24175141.9654   24175138.6444
      2653.3594
  -9972809.94949  -7753885.78247  23660779.5354   23660777.6604
     -1323.3284
  -8910147.76149  -6923345.79147  23757499.6844   23757497.0354
     -3138.5784
  -4578464.65249  -3550102.29047  24736520.6374   24736516.7194
     -2939.2344
  -8502769.47849  -6607031.23947  24278259.2624   24278254.3554
      2582.6724
 -15812045.71449 -12301141.53547  22515514.4574   22515510.9414
     -1726.2814
 -16365492.50249 -12734051.20248  22676257.7544   22676253.8594
        -3.6724
  -5470526.23849  -4245192.00947  24915313.9734   24915310.5474
      3035.5784
 07  4 22  0 51 30.0040000  0 11G 1G 2G12G 6G 4G 5G20G23G30G31G 7
 -11133236.86749  -8658638.50747  23652859.0514   23652856.0354
     -2366.1564
 -11766389.18449  -9150367.97447  23640100.8554   23640096.5044
      1675.6564
  -6268675.38449  -4865946.26647  24408629.0984   24408624.7584
     -3297.0784
  -9284869.70249  -7216975.34447  24167576.9574   24167573.5904
      2647.2034
  -9952883.23549  -7738358.48047  23664571.3014   23664568.6644
     -1333.5164
  -8863018.41849  -6886621.63447  23766467.9344   23766464.9454
     -3145.2814
  -4534322.46049  -3515705.77247  24744920.5664   24744916.9304
     -2946.2814
  -8541452.78049  -6637174.04747  24270898.6214   24270893.8754
      2575.1414
 -15786077.00149 -12280906.18648  22520455.9414   22520452.7304
     -1736.1874
 -16365363.67749 -12733950.82548  22676282.3874   22676278.4264
       -13.5474
  -5516027.68349  -4280647.67547  24906654.9184   24906651.8984
      3031.3444
 07  4 22  0 51 45.0040000  0 11G 1G 2G12G 6G 4G 5G20G23G30G31G 7
 -11097681.49549  -8630933.01947  23659624.7694   23659622.3834
     -2374.4844
 -11791450.65349  -9169896.39347  23635331.9574   23635326.6294
      1665.9224
  -6219178.09349  -4827376.94347  24418048.4804   24418044.4654
     -3302.4844
  -9324530.54249  -7247879.87947  24160029.5434   24160026.7774
      2640.8914
  -9932803.44349  -7722711.88947  23668392.2934   23668389.1374
     -1343.7194
  -8815788.31749  -6849818.96647  23775455.1684   23775452.7464
     -3152.0314
  -4490073.10049  -3481225.75447  24753341.3714   24753337.7234
     -2953.4534
  -8580022.54649  -6667228.38547  24263558.9024   24263553.5624
      2567.4844
 -15759957.90049 -12260553.64547  22525426.4884   22525423.3834
     -1746.2194
 -16365086.13249 -12733734.56048  22676335.1684   22676331.3164
       -23.4064
  -5561463.30249  -4316052.03847  24898009.2464   24898005.7934
      3026.7974
 07  4 22  0 52  0.0040000  0 11G 1G 2G12G 6G 4G 5G20G23G30G31G 7
 -11062000.64049  -8603129.76947  23666414.8634   23666411.8014
     -2382.9064
 -11816367.07949  -9189311.77647  23630590.3874   23630585.1914
      1656.2034
  -6169600.18149  -4788744.83547  24427483.0354   24427479.4344
     -3307.7194
  -9364097.66749  -7278711.41147  24152500.3874   24152496.8404
      2634.6564
  -9912570.62549  -7706946.07047  23672243.2464   23672240.1414
     -1354.0784
  -8768457.56849  -6812937.87947  23784462.5664   23784459.3284
     -3158.7344
  -4445716.62249  -3446662.28147  24761782.1604   24761778.2774
     -2960.7194
  -8618478.29849  -6697193.90547  24256241.4654   24256235.4694
      2559.9224
 -15733688.41049 -12240083.92747  22530425.5044   22530422.2304
     -1756.3444
 -16364659.55449 -12733402.16848  22676416.1994   22676412.5314
       -33.4694
  -5606832.65249  -4351404.77547  24889375.0124   24889372.6914
      3022.3444
 07  4 22  0 52 15.0040000  0 11G 1G 2G12G 6G 4G 5G20G23G30G31G 7
 -11026194.82349  -8575229.14447  23673228.2624   23673225.1684
     -2391.2344
 -11841138.61249  -9208614.27647  23625876.8714   23625871.8204
      1646.5314
  -6119942.23249  -4750050.34647  24436932.2464   24436928.8204
     -3313.2504
  -9403571.21249  -7309470.01447  24144988.3484   24144985.3714
      2628.4384
  -9892185.27149  -7691061.37247  23676121.8634   23676119.5124
     -1364.2194
  -8721026.88949  -6775978.90947  23793488.1214   23793484.9534
     -3165.4224
  -4401253.65449  -3412015.83247  24770243.5124   24770239.3244
     -2967.7974
  -8656820.05649  -6727070.60547  24248945.2854   24248938.8444
      2552.2194
 -15707269.13549 -12219497.47748  22535452.7074   22535449.4264
     -1766.3124
 -16364084.24849 -12732953.87048  22676525.8484   22676521.8874
       -43.4224
  -5652135.79849  -4386705.93047  24880755.0194   24880751.1444
      3017.8594
 07  4 22  0 52 30.0040000  0 11G 1G 2G12G 6G 4G 5G20G23G30G31G 7
 -10990263.87349  -8547230.99747  23680065.9964   23680063.3874
     -2399.5474
 -11865764.42149  -9227803.22947  23621190.8324   23621185.8714
      1636.9224
  -6070204.17649  -4711293.44147  24446397.6054   24446394.4534
     -3318.4844
  -9442950.33849  -7340155.03047  24137495.0194   24137491.4144
      2622.1724
  -9871647.16449  -7675057.67247  23680029.7854   23680027.3524
     -1374.2814
  -8673496.08949  -6738941.96747  23802533.0274   23802529.9614
     -3171.9844
  -4356684.24849  -3377286.42747  24778723.9964   24778720.9374
     -2974.8124
  -8695047.07449  -6756857.88047  24241671.0044   24241665.5234
      2544.6884
 -15680699.54149 -12198793.90647  22540508.7774   22540505.8324
     -1776.2664
 -16363359.74249 -12732389.31748  22676663.8714   22676659.4144
       -53.2664
  -5697371.99749  -4421954.89647  24872146.2694   24872143.7074
      3013.5474
 07  4 22  0 52 45.0040000  0 11G 1G 2G12G 6G 4G 5G20G23G30G31G 7
 -10954208.33149  -8519135.79147  23686926.7624   23686924.6484
     -2407.9694
 -11890244.61549  -9246878.72847  23616532.3874   23616527.2934
      1627.0474
  -6020386.59549  -4672474.56847  24455877.7154   24455874.0624
     -3323.8124
  -9482235.00549  -7370766.49547  24130019.4024   24130016.9534
      2615.8284
  -9850956.69649  -7658935.24547  23683967.6054   23683964.6214
     -1384.5004
  -8625865.68549  -6701827.35347  23811596.5984   23811593.5474
     -3178.7504
  -4312008.93649  -3342474.51147  24787225.2464   24787222.2194
     -2981.9064
  -8733159.30649  -6786555.73747  24234418.3944   24234412.4024
      2536.9844
 -15653980.32249 -12177973.74848  22545593.1374   22545589.8014
     -1786.3284
 -16362486.30849 -12731708.71748  22676830.2624   22676825.8244
       -63.2344
  -5742541.30449  -4457151.72347  24863550.9414   24863548.7974
      3008.9534
 07  4 22  0 53  0.0040000  0 11G 1G 2G12G 6G 4G 5G20G23G30G31G 7
 -10918028.56049  -8490943.75947  23693811.9184   23693809.1414
     -2416.1094
 -11914578.91249  -9265840.52347  23611901.5744   23611897.0394
      1617.4694
  -5970489.73049  -4633593.89447  24465372.1844   24465368.4734
     -3329.0164
  -9521425.09849  -7401304.22047  24122561.6294   24122559.0984
      2609.5164
  -9830114.07749  -7642694.26247  23687933.7154   23687931.3944
     -1394.5004
  -8578136.19249  -6664635.55647  23820679.1214   23820675.7544
     -3185.2034
  -4267228.10649  -3307580.37247  24795746.6994   24795743.9734
     -2988.9694
  -8771156.29149  -6816163.76347  24227187.5514   24227181.8874
      2529.3134
 -15627111.93449 -12157037.33947  22550705.9884   22550702.9774
     -1796.1724
 -16361464.16149 -12730912.23348  22677024.6764   22677020.2424
       -73.0944
  -5787643.43149  -4492296.23347  24854968.7384   24854965.8204
      3004.6254
 07  4 22  0 53 15.0040000  0 11G 1G 2G12G 6G 4G 5G20G23G30G31G 7
 -10881724.71449  -8462655.07347  23700719.9344   23700717.7234
     -2424.3444
 -11938767.01749  -9284688.39647  23607298.6844   23607294.1804
      1607.5784
  -5920513.82349  -4594651.62547  24474882.3554   24474878.8594
     -3334.3594
  -9560520.28249  -7431768.02847  24115122.6134   24115118.6294
      2603.1724
  -9809119.50049  -7626334.85447  23691928.6524   23691925.9694
     -1404.7344
  -8530307.73749  -6627366.64947  23829780.5124   23829778.1214
     -3191.8124
  -4222342.05649  -3272604.23947  24804288.3944   24804285.5554
     -2995.9534
  -8809037.75849  -6845681.76947  24219978.9574   24219974.2344
      2521.5004
 -15600094.47949 -12135984.76647  22555847.4344   22555844.3714
     -1806.1414
 -16360293.11649 -12729999.73348  22677247.0744   22677243.1684
       -83.0474
  -5832678.06549  -4527388.14547  24846398.8244   24846395.8204
      3000.0314
 07  4 22  0 53 30.0040000  0 11G 1G 2G12G 6G 4G 5G20G23G30G31G 7
 -10845297.25649  -8434270.04947  23707652.1994   23707649.1604
     -2432.6254
 -11962809.01849  -9303422.44347  23602724.0904   23602718.8554
      1597.8444
  -5870459.48849  -4555648.25247  24484407.1294   24484403.5624
     -3339.5784
  -9599520.30249  -7462157.68447  24107700.7234   24107696.7304
      2596.7664
  -9787973.11549  -7609857.16047  23695952.4494   23695949.9694
     -1414.8124
  -8482380.81549  -6590020.99047  23838901.0664   23838897.5744
     -3198.3444
  -4177351.33749  -3237546.54647  24812849.8794   24812847.0164
     -3003.0004
  -8846803.61349  -6875109.69947  24212791.9104   24212787.3834
      2513.7664
 -15572928.33149 -12114816.35147  22561016.8794   22561014.0164
     -1816.0944
 -16358973.24549 -12728971.26248  22677498.7464   22677494.3984
       -93.0164
  -5877644.97849  -4562427.28547  24837841.6134   24837838.5984
      2995.5164
 07  4 22  0 53 45.0040000  0 11G 1G 2G12G 6G 4G 5G20G23G30G31G 7
 -10808747.01649  -8405789.34347  23714607.3244   23714604.6094
     -2440.8124
 -11986705.07249  -9322042.74547  23598176.5824   23598171.9534
      1588.1414
  -5820327.44049  -4516584.34447  24493947.0434   24493943.2584
     -3344.7974
  -9638425.47849  -7492473.39647  24100297.4964   24100293.4654
      2590.4694
  -9766675.82849  -7593261.89747  23700005.4884   23700003.1844
     -1424.8284
  -8434356.37549  -6552599.35547  23848039.7934   23848036.6174
     -3204.8754
  -4132256.81449  -3202407.96547  24821430.5744   24821428.0124
     -3009.7814
  -8884454.12049  -6904447.72847  24205627.7624   24205622.7504
      2506.0634
 -15545614.06949 -12093532.50647  22566214.7934   22566211.2694
     -1825.9064
 -16357505.26249 -12727827.38248  22677778.0274   22677773.9614
      -102.8594
  -5922544.57549  -4597413.94847  24829297.9024   24829294.0234
      2990.9844
 07  4 22  0 54  0.0040000  0 11G 1G 2G12G 6G 4G 5G20G23G30G31G 7
 -10772072.92849  -8377212.14547  23721586.0824   23721583.6954
     -2449.0314
 -12010453.53449  -9340548.02347  23593657.3634   23593652.5394
      1578.3134
  -5770116.55449  -4477458.98247  24503501.1294   24503498.5084
     -3349.9694
  -9677234.32449  -7522714.04347  24092912.3324   24092908.0784
      2584.0784
  -9745226.57149  -7576548.20547  23704087.1134   23704084.7734
     -1435.0004
  -8386233.42249  -6515100.96147  23857197.2854   23857193.9264
     -3211.4374
  -4087057.51249  -3167187.75147  24830032.0824   24830028.8444
     -3016.6414
  -8921987.58849  -6933694.57747  24198485.6524   24198480.0664
      2498.3914
 -15518150.91749 -12072132.65647  22571440.8554   22571437.9344
     -1835.7504
 -16355887.63249 -12726566.88448  22678085.7074   22678081.6764
      -112.8444
  -5967375.25549  -4632346.91447  24820766.3634   24820762.9184
      2986.4534
 07  4 22  0 54 15.0040000  0 11G 1G 2G12G 6G 4G 5G20G23G30G31G 7
 -10735276.08449  -8348539.27547  23728588.4804   23728585.0624
     -2457.1724
 -12034055.27349  -9358938.96047  23589165.7934   23589160.8594
      1568.4844
  -5719828.04649  -4438273.16347  24513071.3874   24513068.2624
     -3355.1414
  -9715947.18949  -7552879.90747  24085545.6444   24085541.3284
      2577.5944
  -9723626.13349  -7559716.71847  23708197.1844   23708195.5744
     -1445.0474
  -8338013.05349  -6477526.68547  23866372.9884   23866370.6564
     -3217.9224
  -4041754.49249  -3131886.72647  24838652.5594   24838650.0314
     -3023.7344
  -8959404.49449  -6962850.60947  24191365.5514   24191360.0624
      2490.5634
 -15490539.51149 -12050617.27047  22576695.1214   22576691.4344
     -1845.6724
 -16354121.22449 -12725190.46348  22678421.7074   22678418.1684
      -122.7034
  -6012137.49649  -4667226.58047  24812248.5434   24812244.8714
      2981.7814
 07  4 22  0 54 30.0040000  0 11G 1G 2G12G 6G 4G 5G20G23G30G31G 7
 -10698356.31749  -8319770.63347  23735613.5824   23735611.2384
     -2465.4064
 -12057509.59249  -9377215.08447  23584702.6914   23584697.5624
      1558.7814
  -5669461.84749  -4399026.78647  24522655.5124   24522651.3164
     -3360.3444
  -9754563.56849  -7582970.59447  24078196.9654   24078193.5044
      2571.2194
  -9701874.41949  -7542767.31847  23712336.6294   23712333.9264
     -1455.1094
  -8289695.06949  -6439876.29847  23875567.6764   23875564.7424
     -3224.3914
  -3996347.84749  -3096504.93147  24847293.7304   24847290.3164
     -3030.5004
  -8996704.05149  -6991915.19747  24184267.2384   24184261.2814
      2482.7194
 -15462779.81349 -12028986.32347  22581977.3794   22581974.5594
     -1855.5624
 -16352205.64649 -12723697.80148  22678786.3714   22678781.8984
      -132.5944
  -6056830.57449  -4702052.32647  24803743.2694   24803740.4374
      2977.2814
 07  4 22  0 54 45.0040000  0 11G 1G 2G12G 6G 4G 5G20G23G30G31G 7
 -10661314.42249  -8290906.81247  23742663.1994   23742660.2854
     -2473.5624
 -12080816.61049  -9395376.38747  23580267.6604   23580262.3324
      1548.8134
  -5619018.71149  -4359720.41347  24532255.4494   24532251.1954
     -3365.4694
  -9793083.82149  -7612986.40847  24070866.6524   24070863.0554
      2564.7344
  -9679971.98849  -7525700.48047  23716504.8244   23716501.7854
     -1465.2034
  -8241280.43449  -6402150.59047  23884780.7234   23884777.7194
     -3230.8284
  -3950838.30749  -3061042.94046  24855953.4414   24855950.7974
     -3037.5004
  -9033886.46949  -7020888.52047  24177192.0434   24177185.6844
      2474.8284
 -15434872.43649 -12007240.32147  22587288.2464   22587285.1844
     -1865.5004
 -16350141.40149 -12722089.29248  22679179.1374   22679174.6954
      -142.6254
  -6101454.85249  -4736824.49547  24795251.9414   24795249.1334
      2972.5784
 07  4 22  0 55  0.0040000  0 11G 1G 2G12G 6G 4G 5G20G23G30G31G 7
 -10624149.48949  -8261947.12947  23749734.9264   23749732.4574
     -2481.7664
 -12103975.04249  -9413421.92647  23575860.5514   23575855.5514
      1538.9844
  -5568497.84049  -4320353.50047  24541869.0354   24541864.9184
     -3370.6414
  -9831506.15249  -7642925.85047  24063555.2154   24063552.1764
      2558.1724
  -9657917.96249  -7508515.52347  23720701.5744   23720698.5554
     -1475.3444
  -8192768.24049  -6364348.90347  23894012.4414   23894009.2974
     -3237.3914
  -3905225.10549  -3025500.19147  24864633.7934   24864630.7034
     -3044.2664
  -9070950.32049  -7049769.44247  24170138.6994   24170132.4574
      2466.9224
 -15406816.59649 -11985378.62947  22592626.8244   22592623.7894
     -1875.3594
 -16347927.35349 -12720364.07048  22679600.6214   22679596.0434
      -152.5624
  -6146008.80349  -4771541.82647  24786773.2854   24786770.9804
      2967.8914
 07  4 22  0 55 15.0040000  0 11G 1G 2G12G 6G 4G 5G20G23G30G31G 7
 -10586862.75149  -8232892.53247  23756831.0824   23756827.8404
     -2489.8444
 -12126985.50449  -9431352.15047  23571482.0664   23571477.1524
      1529.0474
  -5517900.32849  -4280926.87247  24551497.1444   24551493.2774
     -3375.7504
  -9869831.47749  -7672789.74247  24056261.8554   24056259.1524
      2551.7504
  -9635713.54549  -7491213.35947  23724926.8164   23724924.4614
     -1485.3594
  -8144159.84449  -6326472.22247  23903262.3714   23903259.7504
     -3243.7504
  -3859509.60249  -2989877.74446  24873333.6524   24873329.9494
     -3051.1564
  -9107896.18149  -7078558.41147  24163107.9104   24163102.1414
      2459.1094
 -15378613.38249 -11963402.10947  22597994.0274   22597990.8094
     -1885.1564
 -16345564.36749 -12718522.77948  22680050.4414   22680045.7664
      -162.5004
  -6190493.12949  -4806204.93147  24778308.2934   24778305.0984
      2963.2974
 07  4 22  0 55 30.0040000  0 11G 1G 2G12G 6G 4G 5G20G23G30G31G 7
 -10549453.85149  -8203742.75247  23763949.5594   23763946.5514
     -2498.0314
 -12149847.14549  -9449166.38447  23567131.6444   23567126.0434
      1519.1094
  -5467225.98649  -4241440.36447  24561140.6764   24561136.4614
     -3380.8124
  -9908058.87049  -7702577.28947  24048987.8554   24048985.2974
      2545.2194
  -9613358.42049  -7473793.79047  23729181.3324   23729178.8444
     -1495.3124
  -8095454.80749  -6288520.20747  23912530.5514   23912527.7304
     -3250.2664
  -3813691.52149  -2954175.36347  24882051.5354   24882049.1174
     -3058.0314
  -9144723.22149  -7107254.79847  24156099.3094   24156094.5864
      2451.1094
 -15350262.49449 -11941310.51647  22603389.0434   22603385.3714
     -1895.0314
 -16343051.91449 -12716565.03048  22680528.4184   22680523.9844
      -172.5004
  -6234906.95949  -4840813.09247  24769856.9734   24769853.2544
      2958.6414
 07  4 22  0 55 45.0040000  0 11G 1G 2G12G 6G 4G 5G20G23G30G31G 7
 -10511924.57049  -8174499.16847  23771090.7464   23771088.2344
     -2505.8914
 -12172561.39849  -9466865.81647  23562809.4024   23562804.4264
      1509.4844
  -5416476.60949  -4201895.43247  24570797.3324   24570794.0004
     -3385.6724
  -9946189.64949  -7732289.61647  24041732.2934   24041729.4344
      2538.9224
  -9590854.11649  -7456257.96747  23733463.6844   23733460.3524
     -1505.1724
  -8046655.06649  -6250494.41247  23921816.6524   23921814.3164
     -3256.3914
  -3767772.73149  -2918394.51947  24890790.0354   24890786.6994
     -3064.5624
  -9181432.63349  -7135859.50947  24149114.5594   24149109.4224
      2443.3914
 -15321765.64849 -11919105.18947  22608811.5354   22608808.6804
     -1904.6254
 -16340391.32549 -12714491.84648  22681034.8484   22681030.7664
      -182.2344
  -6279251.51349  -4875367.27847  24761418.2624   24761415.3164
      2954.0634
 07  4 22  0 56  0.0040000  0 11G 1G 2G12G 6G 4G 5G20G23G30G31G 7
 -10474274.76349  -8145161.65947  23778255.4344   23778252.6444
     -2514.0944
 -12195127.52549  -9484449.82047  23558515.1054   23558509.4414
      1499.4844
  -5365652.20549  -4162292.02347  24580468.7464   24580465.9024
     -3390.7504
  -9984222.99549  -7761925.98547  24034494.1294   24034491.6564
      2532.2814
  -9568200.33849  -7438605.69347  23737774.3484   23737771.3834
     -1515.2344
  -7997760.64249  -6212394.87547  23931120.9964   23931118.4144
     -3262.7974
  -3721753.03049  -2882535.03447  24899547.7774   24899543.6914
     -3071.3444
  -9218023.67549  -7164372.00747  24142151.5514   24142146.7774
      2435.3914
 -15293122.71849 -11896786.01947  22614261.7234   22614259.1724
     -1914.5004
 -16337582.27549 -12712302.97948  22681568.9654   22681564.8204
      -192.2974
  -6323526.05549  -4909866.91447  24752993.3944   24752989.5474
      2949.3134
 07  4 22  0 56 15.0040000  0 11G 1G 2G12G 6G 4G 5G20G23G30G31G 7
 -10436503.83449  -8115729.78247  23785443.1444   23785440.2544
     -2522.0784
 -12217544.46649  -9501917.54347  23554249.1134   23554244.0434
      1489.5164
  -5314752.01149  -4122629.53847  24590154.7624   24590150.7624
     -3395.8444
 -10022157.87649  -7791485.62847  24027275.8554   24027272.7034
      2525.7664
  -9545396.45549  -7420836.43847  23742113.6764   23742110.5904
     -1525.2664
  -7948770.78649  -6174220.93447  23940443.7774   23940440.3324
     -3269.2194
  -3675631.97949  -2846596.56546  24908323.7624   24908320.2664
     -3078.0164
  -9254495.35549  -7192791.47347  24135211.1844   24135206.3204
      2427.4844
 -15264333.00949 -11874352.47547  22619740.7934   22619737.5904
     -1924.2504
 -16334624.02949 -12709997.85348  22682132.4184   22682127.8874
      -202.1414
  -6367729.50749  -4944311.16147  24744581.5514   24744577.5554
      2944.5634
 07  4 22  0 56 30.0040000  0 11G 1G 2G12G 6G 4G 5G20G23G30G31G 7
 -10398611.79649  -8086203.52647  23792653.5904   23792650.9964
     -2529.9844
 -12239811.74049  -9519268.67047  23550011.9264   23550006.5554
      1479.5004
  -5263776.03049  -4082908.03247  24599855.4184   24599852.2544
     -3400.7034
 -10059993.75749  -7820968.12347  24020075.6294   24020072.5624
      2519.2504
  -9522442.52849  -7402950.26947  23746481.5664   23746479.8634
     -1535.1094
  -7899685.74349  -6135972.87047  23949783.9344   23949780.6134
     -3275.3754
  -3629409.61149  -2810579.13346  24917119.5664   24917116.4304
     -3084.7504
  -9290846.72149  -7221117.20747  24128293.8094   24128288.5084
      2419.4384
 -15235396.59349 -11851804.62447  22625247.3874   22625243.9024
     -1933.8754
 -16331516.34949 -12707576.29348  22682723.4964   22682719.5824
      -212.0624
  -6411861.31949  -4978699.54447  24736183.3244   24736180.1604
      2939.8284
 07  4 22  0 56 45.0040000  0 11G 1G 2G12G 6G 4G 5G20G23G30G31G 7
 -10360599.52849  -8056583.58847  23799887.0044   23799884.4454
     -2538.1564
 -12261929.61449  -9536503.36247  23545803.2854   23545798.0004
      1469.5634
  -5212725.24549  -4043128.19247  24609570.1914   24609566.0624
     -3405.8284
 -10097730.82849  -7850373.61747  24012893.9494   24012891.5624
      2512.4224
  -9499339.30449  -7384947.75847  23750878.0664   23750875.6484
     -1545.0784
  -7850506.27049  -6097651.19647  23959142.3714   23959139.6724
     -3281.7504
  -3583086.84649  -2774483.49047  24925934.9654   24925931.1054
     -3091.4374
  -9327078.03449  -7249349.38047  24121399.2234   24121394.0004
      2411.4224
 -15206314.23749 -11829143.04547  22630781.3944   22630778.3054
     -1943.5624
 -16328259.67049 -12705038.61648  22683343.3874   22683338.8364
      -222.0314
  -6455921.80049  -5013032.35947  24727799.1214   24727795.7304
      2934.9694
 07  4 22  0 57  0.0040000  0 11G 1G 2G12G 6G 4G 5G20G23G30G31G 7
 -10322466.86549  -8026869.83347  23807143.3554   23807140.9264
     -2546.1874
 -12283897.39449  -9553621.10647  23541622.8094   23541617.4884
      1459.4694
  -5161599.50849  -4003289.92847  24619299.3944   24619294.8594
     -3410.9374
 -10135368.41149  -7879701.58847  24005732.2384   24005728.5944
      2505.9224
  -9476086.49949  -7366828.68947  23755302.9884   23755300.3674
     -1555.1874
  -7801232.28249  -6059255.88847  23968519.5434   23968515.5234
     -3288.1414
  -3536663.68549  -2738309.60147  24934769.0824   24934764.9774
     -3098.2194
  -9363188.76049  -7277487.58047  24114527.9024   24114522.7464
      2403.3754
 -15177085.55049 -11806367.45347  22636343.3244   22636340.6874
     -1953.4374
 -16324853.52449 -12702384.48148  22683991.4804   22683986.9144
      -232.0474
  -6499910.21849  -5047309.01847  24719428.0354   24719424.9574
      2930.0944
 07  4 22  0 57 15.0040000  0 11G 1G 2G12G 6G 4G 5G20G23G30G31G 7
 -10284214.09349  -7997062.49447  23814422.8714   23814419.5474
     -2554.2344
 -12305714.81049  -9570621.68147  23537471.1684   23537465.8244
      1449.4384
  -5110399.22749  -3963393.63147  24629042.2234   24629037.8124
     -3415.8444
 -10172906.22649  -7908951.85847  23998589.1844   23998585.8094
      2499.1254
  -9452684.40249  -7348593.31147  23759755.9184   23759753.2034
     -1565.1254
  -7751864.03849  -6020787.11447  23977913.4734   23977910.6024
     -3294.4064
  -3490140.51549  -2702057.79447  24943622.5984   24943617.8444
     -3104.8754
  -9399178.56349  -7305531.57747  24107678.8634   24107673.1094
      2395.3284
 -15147710.93749 -11783478.15447  22641933.0744   22641930.3674
     -1963.1564
 -16321297.88549 -12699613.84348  22684667.9184   22684663.9884
      -242.0004
  -6543826.28649  -5081529.33747  24711071.5514   24711067.5004
      2925.2504
 07  4 22  0 57 30.0040000  0 11G 1G 2G12G 6G 4G 5G20G23G30G31G 7
 -10245841.75249  -7967161.96347  23821725.2234   23821721.8794
     -2562.0784
 -12327382.06949  -9587505.26347  23533348.1604   23533342.2974
      1439.5314
  -5059124.80549  -3923439.55747  24638799.6214   24638795.7854
     -3420.7814
 -10210344.36749  -7938124.40247  23991464.5514   23991461.7464
      2492.5314
  -9429133.39449  -7330241.86947  23764237.0664   23764234.8554
     -1575.0314
  -7702402.25049  -5982245.47047  23987325.9264   23987322.6294
     -3300.4844
  -3443517.81049  -2665728.42947  24952494.5354   24952489.8714
     -3111.5314
  -9435047.32049  -7333481.24147  24100853.1844   24100847.2504
      2387.2344
 -15118190.81349 -11760475.48747  22647550.6214   22647547.1874
     -1972.8444
 -16317593.13849 -12696727.02348  22685373.0904   22685368.6524
      -252.0004
  -6587670.01949  -5115693.27547  24702728.2624   24702724.5314
      2920.5314
 07  4 22  0 57 45.0040000  0 11G 1G 2G12G 6G 4G 5G20G23G30G31G 7
 -10207349.57249  -7937168.06247  23829049.8944   23829047.1134
     -2570.1414
 -12348898.48949  -9604271.31347  23529253.6134   23529248.3594
      1429.3284
  -5007776.01049  -3883427.52147  24648570.7544   24648567.2544
     -3425.7974
 -10247682.10649  -7967218.79547  23984359.3404   23984356.6874
      2485.8914
  -9405433.04049  -7311774.07347  23768747.3094   23768744.8164
     -1585.0314
  -7652846.65249  -5943630.71747  23996755.7154   23996753.4614
     -3306.8754
  -3396795.47749  -2629321.44447  24961385.0744   24961381.3914
     -3118.1874
  -9470794.38049  -7361336.08247  24094050.5044   24094044.8944
      2379.0634
 -15088524.93849 -11737359.20347  22653195.8554   22653192.5164
     -1982.6724
 -16313738.90149 -12693723.70348  22686106.4494   22686102.1914
      -262.0314
  -6631440.56049  -5149800.17947  24694398.9024   24694396.5044
      2915.4844
 07  4 22  0 58  0.0040000  0 11G 1G 2G12G 6G 4G 5G20G23G30G31G 7
 -10168737.61749  -7907080.83347  23836397.8244   23836395.5514
     -2578.0004
 -12370263.47149  -9620919.29347  23525187.8244   23525182.7464
      1419.3914
  -4956352.73549  -3843357.40347  24658356.1764   24658352.3714
     -3430.5004
 -10284918.76949  -7996234.41347  23977274.2544   23977270.8444
      2479.1094
  -9381583.41349  -7293189.96447  23773285.6844   23773283.4454
     -1594.8284
  -7603197.36749  -5904942.97547  24006203.7384   24006201.0664
     -3313.0314
  -3349973.62749  -2592836.88847  24970294.8634   24970291.3054
     -3124.7504
  -9506418.98249  -7389095.49547  24087271.6134   24087266.2694
      2370.9064
 -15058713.11549 -11714129.19447  22658868.7694   22658866.0904
     -1992.2194
 -16309734.82449 -12690603.64948  22686868.2544   22686864.1414
      -271.9064
  -6675137.46949  -5183849.68047  24686083.6444   24686080.0704
      2910.7344
 07  4 22  0 58 15.0040000  0 11G 1G 2G12G 6G 4G 5G20G23G30G31G 7
 -10130007.42249  -7876901.47147  23843767.3874   23843764.7814
     -2586.0004
 -12391478.15749  -9637450.21147  23521151.0664   23521145.5704
      1409.1724
  -4904856.83649  -3803230.77347  24668155.1914   24668152.1094
     -3435.5004
 -10322055.47049  -8025172.14247  23970207.2384   23970204.0274
      2472.3754
  -9357585.91549  -7274490.60847  23777852.4344   23777850.3054
     -1604.8124
  -7553455.94049  -5866183.43347  24015669.6994   24015667.2384
     -3319.2344
  -3303053.81549  -2556276.00247  24979223.1604   24979219.7464
     -3131.3754
  -9541922.14049  -7416760.28447  24080515.6294   24080510.4964
      2362.7344
 -15028757.02849 -11690786.79147  22664569.2774   22664566.4144
     -2001.9374
 -16305582.05049 -12687367.71648  22687658.6214   22687654.7234
      -281.8444
  -6718761.67749  -5217842.58847  24677781.4804   24677779.0394
      2905.7974
 07  4 22  0 58 30.0040000  0 11G 1G 2G12G 6G 4G 5G20G23G30G31G 7
 -10091159.36449  -7846630.26647  23851159.8634   23851156.9024
     -2593.8594
 -12412542.45349  -9653863.97647  23517142.5514   23517137.4494
      1399.2814
  -4853288.50149  -3763047.63347  24677968.4344   24677964.8124
     -3440.3444
 -10359091.93749  -8054031.78147  23963159.5824   23963156.2814
      2465.7814
  -9333440.93549  -7255676.34747  23782446.9574   23782445.1444
     -1614.5784
  -7503622.85049  -5827352.48247  24025152.5354   24025149.1134
     -3325.2664
  -3256036.60849  -2519639.21947  24988170.6764   24988166.7854
     -3137.6874
  -9577303.61449  -7444330.25347  24073782.7304   24073777.6024
      2354.7194
 -14998657.07249 -11667332.26947  22670296.7464   22670294.1374
     -2011.5004
 -16301280.76449 -12684016.07248  22688477.1444   22688473.0904
      -291.7504
  -6762313.02749  -5251778.69447  24669494.5904   24669491.5434
      2900.9844
 07  4 22  0 58 45.0040000  0 11G 1G 2G12G 6G 4G 5G20G23G30G31G 7
 -10052193.02549  -7816266.88647  23858574.8874   23858571.9734
     -2601.8914
 -12433455.39949  -9670159.77347  23513163.1214   23513157.9144
      1389.0314
  -4801647.41149  -3722807.79447  24687795.5514   24687791.6604
     -3445.2194
 -10396027.18449  -8082812.50447  23956130.9264   23956127.7074
      2458.8754
  -9309147.91949  -7236746.72847  23787069.9184   23787067.8094
     -1624.5624
  -7453697.65149  -5788449.78947  24034653.2074   24034650.7274
     -3331.4844
  -3208921.62649  -2482926.27247  24997136.3164   24997132.3164
     -3144.3284
  -9612562.27649  -7471804.54747  24067073.0354   24067068.5044
      2346.4694
 -14968412.56649 -11643765.09947  22676052.0664   22676049.2464
     -2021.1874
 -16296830.28549 -12680548.15548  22689323.9264   22689319.8914
      -301.7664
  -6805790.58049  -5285657.31847  24661221.0124   24661218.4304
      2895.8594
 07  4 22  0 59  0.0040000  0 11G 1G 2G12G 6G 4G 5G20G23G30G31G 7
 -10013107.37549  -7785810.54447  23866012.9734   23866010.0354
     -2609.6414
 -12454215.40249  -9686336.40247  23509212.6294   23509207.5664
      1378.9534
  -4749932.60549  -3682510.53947  24697636.6994   24697632.8244
     -3449.9224
 -10432859.56349  -8111513.04547  23949121.8244   23949118.1954
      2452.1724
  -9284705.81649  -7217700.92747  23791721.3404   23791719.2664
     -1634.4064
  -7403679.36049  -5749474.50747  24044171.2934   24044168.1294
     -3337.4694
  -3161707.87849  -2446136.33746  25006120.8484   25006117.6024
     -3150.7344
  -9647696.72449  -7499182.02947  24060387.4414   24060382.6134
      2338.2344
 -14938022.68449 -11620084.65147  22681835.4734   22681832.3984
     -2030.7504
 -16292229.28449 -12676962.96648  22690199.5744   22690195.6804
      -311.6874
  -6849192.75149  -5319477.20647  24652962.3484   24652959.7154
      2891.0474
 07  4 22  0 59 15.0040000  0 11G 1G 2G12G 6G 4G 5G20G23G30G31G 7
  -9973904.38249  -7755262.78147  23873472.8714   23873469.5744
     -2617.5164
 -12474823.81349  -9702394.91547  23505290.8554   23505285.6134
      1368.8594
  -4698145.97649  -3642157.31647  24707491.1684   24707487.3054
     -3454.8284
 -10469590.53949  -8140134.57247  23942132.0594   23942128.8124
      2445.3594
  -9260116.53749  -7198540.47447  23796400.1444   23796398.0554
     -1644.2814
  -7353569.94049  -5710428.23447  24053706.9414   24053704.0164
     -3343.7344
  -3114397.36149  -2409271.03647  25015123.1844   25015120.0944
     -3157.2344
  -9682708.22849  -7526463.68647  24053724.4184   24053719.8244
      2330.0314
 -14907489.17749 -11596292.29247  22687646.2074   22687642.6094
     -2040.4064
 -16287479.42549 -12673261.77448  22691103.3794   22691099.4804
      -321.6414
  -6892520.73049  -5353239.24947  24644716.9104   24644713.5824
      2885.9694
 07  4 22  0 59 30.0040000  0 11G 1G 2G12G 6G 4G 5G20G23G30G31G 7
  -9934583.40749  -7724623.04047  23880955.2384   23880952.2424
     -2625.2814
 -12495279.62649  -9718334.50847  23501398.2074   23501393.1684
      1358.7504
  -4646286.99349  -3601747.76547  24717359.9414   24717355.9304
     -3459.6254
 -10506219.07749  -8168676.28647  23935161.8794   23935158.3944
      2438.5634
  -9235379.23249  -7179264.63347  23801107.8554   23801105.8674
     -1654.0004
  -7303368.84749  -5671310.53047  24063259.9494   24063256.6724
     -3349.7664
  -3066989.53949  -2372329.87847  25024144.8554   25024141.9964
     -3163.7194
  -9717595.58849  -7553648.63347  24047085.6214   24047080.7504
      2321.7034
 -14876811.29149 -11572387.43047  22693483.6374   22693480.3754
     -2049.9844
 -16282579.87849 -12669443.94648  22692036.0664   22692031.8944
      -331.5164
  -6935773.51449  -5386942.71147  24636485.9574   24636483.6724
      2881.0944
 07  4 22  0 59 45.0040000  0 11G 1G 2G12G 6G 4G 5G20G23G30G31G 7
  -9895147.56049  -7693893.83247  23888460.0744   23888456.7544
     -2632.9374
 -12515585.47549  -9734157.23947  23497534.0904   23497528.9924
      1348.6414
  -4594358.63949  -3561284.14047  24727241.6214   24727237.4654
     -3464.2664
 -10542747.59549  -8197140.05647  23928210.8874   23928207.0354
      2431.8284
  -9210496.94949  -7159875.85047  23805842.9494   23805840.7974
     -1663.7814
  -7253079.14449  -5632123.76547  24072829.5274   24072826.9774
     -3355.7344
  -3019487.50949  -2335315.31947  25033184.6054   25033181.2114
     -3170.0004
  -9752361.44949  -7580738.90347  24040470.0744   24040464.6874
      2313.5004
 -14845992.27849 -11548372.59547  22699348.4414   22699344.9344
     -2059.4064
 -16277533.55649 -12665511.75348  22692996.0124   22692991.5984
      -341.4694
  -6978953.64349  -5420589.56847  24628268.7624   24628266.3094
      2876.2664
 07  4 22  1  0  0.0040000  0 11G 1G 2G12G 6G 4G 5G20G23G30G31G 7
  -9855595.08049  -7663073.71047  23895986.4654   23895983.3014
     -2640.6414
 -12535739.12249  -9749861.33447  23493699.1764   23493694.0824
      1338.4844
  -4542359.13049  -3520765.01647  24737136.3404   24737132.2424
     -3468.9534
 -10579173.88349  -8225524.19847  23921278.9024   23921275.9104
      2425.0314
  -9185467.92649  -7140372.69847  23810605.9104   23810603.6684
     -1673.4844
  -7202699.15349  -5592866.63947  24082416.2934   24082413.5314
     -3361.7034
  -2971889.69049  -2298226.13347  25042242.0664   25042239.0434
     -3176.4534
  -9787003.41049  -7607732.62447  24033877.9574   24033872.6214
      2305.2664
 -14815030.34049 -11524246.39947  22705240.2624   22705236.7694
     -2068.8914
 -16272338.32849 -12661463.53048  22693984.5514   22693980.6604
      -351.3124
  -7022058.84049  -5454178.02247  24620066.6524   24620063.4774
      2871.0944
 07  4 22  1  0 15.0040000  0 11G 1G 2G12G 6G 4G 5G20G23G30G31G 7
  -9815924.48549  -7632161.57147  23903535.3554   23903532.5434
     -2648.5474
 -12555738.48849  -9765445.27347  23489893.0354   23489887.9144
      1328.1094
  -4490287.13149  -3480189.41447  24747045.4734   24747041.1054
     -3473.9534
 -10615495.71049  -8253826.93047  23914366.6914   23914363.7074
      2418.0164
  -9160290.68549  -7120754.08847  23815396.9344   23815394.6764
     -1683.3754
  -7152227.50449  -5553538.14147  24092020.2854   24092018.2384
     -3367.8124
  -2924194.57949  -2261061.10847  25051318.0274   25051314.4534
     -3182.9374
  -9821519.27149  -7634628.08447  24027309.7154   24027304.3524
      2296.9064
 -14783923.90249 -11500007.61747  22711159.3944   22711156.0944
     -2078.5944
 -16266992.43949 -12657297.89548  22695002.1054   22694998.0744
      -361.4224
  -7065086.89749  -5487706.37947  24611878.4494   24611875.7034
      2865.9844
 07  4 22  1  0 30.0040000  0 11G 1G 2G12G 6G 4G 5G20G23G30G31G 7
  -9776136.89049  -7601158.27347  23911106.7304   23911103.6134
     -2656.2814
 -12575584.25249  -9780909.49547  23486116.5044   23486112.0274
      1318.0634
  -4438143.84549  -3439558.31247  24756968.2154   24756964.1804
     -3478.5004
 -10651713.82749  -8282048.83547  23907474.9884   23907471.6374
      2411.1884
  -9134966.10349  -7101020.65347  23820215.7464   23820213.6414
     -1693.1094
  -7101665.28149  -5514139.08047  24101642.6294   24101639.4224
     -3373.7194
  -2876403.32649  -2223821.19247  25060412.3014   25060409.5474
     -3189.1414
  -9855909.50749  -7661425.66447  24020765.6214   24020760.3164
      2288.6254
 -14752674.04049 -11475657.05647  22717106.1604   22717102.6054
     -2088.0784
 -16261496.83049 -12653015.60448  22696047.9734   22696044.1294
      -371.2664
  -7108038.57849  -5521175.21247  24603705.4574   24603702.1484
      2861.0944
 07  4 22  1  0 45.0040000  0 11G 1G 2G12G 6G 4G 5G20G23G30G31G 7
  -9736234.38249  -7570065.44047  23918699.9884   23918696.7934
     -2663.9844
 -12595277.93449  -9796255.21447  23482368.6374   23482364.0474
      1307.7814
  -4385931.26149  -3398873.19147  24766903.2234   24766900.4654
     -3483.2344
 -10687829.70749  -8310191.09847  23900602.1844   23900599.2274
      2404.1884
  -9109496.24249  -7081174.02247  23825062.9414   23825060.1134
     -1702.9534
  -7051014.53049  -5474670.98747  24111280.9734   24111279.1134
     -3379.7664
  -2828518.13649  -2186508.08547  25069524.3794   25069521.5554
     -3195.4534
  -9890175.64449  -7688126.55947  24014244.8244   24014239.6684
      2280.1884
 -14721282.71249 -11451196.26247  22723079.6524   22723076.2664
     -2097.5474
 -16255853.29849 -12648618.05148  22697121.6764   22697117.5314
      -381.2504
  -7150915.19949  -5554585.56847  24595546.4804   24595542.6294
      2855.9384
 07  4 22  1  1  0.0040000  0 11G 1G 2G12G 6G 4G 5G20G23G30G31G 7
  -9696215.52249  -7538881.91247  23926314.8324   23926312.4804
     -2671.7504
 -12614817.77949  -9811481.04347  23478650.2464   23478646.2694
      1297.5164
  -4333647.95049  -3358132.96647  24776852.8874   24776849.2934
     -3487.9534
 -10723841.39049  -8338252.11547  23893749.7694   23893746.3364
      2397.2974
  -9083879.79449  -7061213.14147  23829937.6444   23829934.4804
     -1712.7344
  -7000273.88649  -5435132.79047  24120936.6214   24120933.9184
     -3385.7814
  -2780537.82949  -2149120.84746  25078654.7234   25078651.1804
     -3201.9844
  -9924315.88049  -7714729.31847  24007748.3164   24007743.1294
      2271.7974
 -14689748.68249 -11426624.27747  22729080.0044   22729076.9494
     -2107.0784
 -16250060.17349 -12644103.92048  22698224.4494   22698220.5664
      -391.2504
  -7193714.98749  -5587936.03947  24587401.8944   24587398.2304
      2850.7504
 07  4 22  1  1 15.0040000  0 11G 1G 2G12G 6G 4G 5G20G23G30G31G 7
  -9656080.57349  -7507607.93847  23933952.7624   23933949.9224
     -2679.5164
 -12634203.57649  -9826586.86147  23474960.9804   23474957.0394
      1287.1884
  -4281294.12749  -3317337.79147  24786815.6054   24786812.3014
     -3492.6094
 -10759748.70649  -8366231.82847  23886916.4024   23886912.9884
      2390.3754
  -9058116.83049  -7041138.11247  23834839.4804   23834837.1644
     -1722.4534
  -6949443.70049  -5395524.75347  24130609.6764   24130606.5474
     -3391.6724
  -2732462.65249  -2111659.69547  25087803.3164   25087800.3054
     -3208.2034
  -9958329.74449  -7741233.62147  24001275.3484   24001269.9534
      2263.3444
 -14658072.09749 -11401941.20947  22735107.7464   22735104.8714
     -2116.5314
 -16244117.41849 -12639473.20248  22699354.9104   22699350.8554
      -401.1414
  -7236437.64649  -5621226.43047  24579271.7774   24579268.7074
      2845.6254
 07  4 22  1  1 30.0040000  0 11G 1G 2G12G 6G 4G 5G20G23G30G31G 7
  -9615830.92549  -7476244.59647  23941611.9574   23941609.0664
     -2686.9844
 -12653436.17849  -9841573.29847  23471301.7074   23471296.9884
      1277.1414
  -4228871.34849  -3276488.88847  24796791.3014   24796787.4454
     -3497.0624
 -10795552.41149  -8394130.84147  23880103.4264   23880099.7584
      2383.5314
  -9032208.68449  -7020949.93947  23839769.7384   23839767.4414
     -1731.9534
  -6898525.50949  -5355848.19847  24140298.9574   24140295.9144
     -3397.3914
  -2684293.95849  -2074125.67047  25096969.5904   25096966.1024
     -3214.2814
  -9992218.11749  -7767640.12147  23994826.3944   23994821.1054
      2255.1254
 -14626254.22049 -11377148.05847  22741162.7234   22741159.0904
     -2125.8284
 -16238026.03049 -12634726.67148  22700514.0274   22700510.2504
      -410.9694
  -7279083.85849  -5654457.25347  24571156.2694   24571152.7234
      2840.5474
 07  4 22  1  1 45.0040000  0 11G 1G 2G12G 6G 4G 5G20G23G30G31G 7
  -9575466.56449  -7444791.85547  23949293.0434   23949290.5124
     -2694.7344
 -12672515.01549  -9856439.92447  23467671.2854   23467666.6214
      1266.8284
  -4176379.48549  -3235586.15547  24806780.6294   24806777.0664
     -3501.8124
 -10831251.90249  -8421948.64047  23873309.9344   23873306.6054
      2376.3594
  -9006155.17949  -7000648.51747  23844727.6294   23844725.2694
     -1741.8594
  -6847519.34249  -5316103.10647  24150005.1604   24150001.9964
     -3403.4064
  -2636031.79149  -2036518.78047  25106153.4184   25106150.8554
     -3220.5624
 -10025980.33749  -7793948.32647  23988401.7154   23988396.8834
      2246.6094
 -14594294.94749 -11352244.73747  22747244.6214   22747240.7274
     -2135.3754
 -16231785.79249 -12629864.15148  22701701.5274   22701697.6214
      -420.9844
  -7321653.14749  -5687628.11947  24563055.7464   24563052.1414
      2835.3284
 07  4 22  1  2  0.0040000  0 11G 1G 2G12G 6G 4G 5G20G23G30G31G 7
  -9534988.48149  -7413250.49547  23956996.0664   23956993.2344
     -2702.4064
 -12691440.59749  -9871187.13747  23464069.6214   23464064.8164
      1256.5474
  -4123819.50649  -3194630.30647  24816782.5434   24816778.5704
     -3506.2814
 -10866847.63149  -8449685.54747  23866536.9884   23866533.7194
      2369.5164
  -8979957.29449  -6980234.57347  23849713.2154   23849710.5004
     -1751.3284
  -6796426.12349  -5276290.24947  24159727.3014   24159724.0904
     -3409.0784
  -2587677.19449  -1998839.91546  25115355.1444   25115352.4734
     -3226.9224
 -10059616.85849  -7820158.58747  23982001.4344   23981996.1604
      2238.1724
 -14562195.40649 -11327232.11147  22753352.9104   22753349.0864
     -2144.6874
 -16225397.62349 -12624886.36948  22702917.1524   22702912.9344
      -430.8594
  -7364145.77149  -5720739.24847  24554969.5744   24554966.6484
      2830.2344
 07  4 22  1  2 15.0040000  0 12G 1G 2G12G 6G 4G 5G20G23G30G13G31G 7
  -9494394.41749  -7381618.77147  23964720.3404   23964718.4534
     -2710.0474
 -12710210.16249  -9885812.74247  23460498.2154   23460493.0314
      1246.2664
  -4071189.19749  -3153619.70647  24826796.8794   24826793.3714
     -3510.9374
 -10902336.73249  -8477339.37547  23859782.6994   23859779.6914
      2362.5164
  -8953612.57449  -6959706.22347  23854725.7074   23854724.0474
     -1761.1094
  -6745243.62549  -5236407.79847  24169467.8244   24169464.3634
     -3415.0784
  -2539228.02749  -1961087.30147  25124574.5594   25124571.6764
     -3232.8914
 -10093124.71549  -7846268.59847  23975624.8874   23975619.7344
      2229.7814
 -14529953.16849 -11302108.26847  22759488.4264   22759484.6524
     -2154.0944
    -26521.002 9                  25871679.434
      3594.125
 -16218858.73349 -12619791.13948  22704161.8014   22704157.5084
      -440.8594
  -7406559.04749  -5753788.57547  24546898.2624   24546895.2464
      2825.0634
 07  4 22  1  2 30.0040000  0 12G 1G 2G12G 6G 4G 5G20G23G30G13G31G 7
  -9453687.44249  -7349899.05747  23972466.9654   23972463.6094
     -2717.5944
 -12728826.35649  -9900318.87047  23456955.5354   23456949.9304
      1235.9694
  -4018491.61649  -3112556.65747  24836825.0354   24836821.2074
     -3515.5624
 -10937721.77249  -8504912.10947  23853048.8874   23853046.0124
      2355.5164
  -8927124.29149  -6939066.01747  23859767.0514   23859764.3834
     -1770.6414
  -6693974.93649  -5196458.18847  24179223.4184   24179219.9574
     -3420.7504
  -2490687.52749  -1923263.55246  25133812.0594   25133808.5314
     -3239.1254
 -10126506.29349  -7872280.19847  23969272.9574   23969267.5354
      2221.2034
 -14497571.17449 -11276875.54247  22765650.6134   22765646.6214
     -2163.4844
    -80403.55049    -44103.55146  25861426.9574   25861423.9534
      3590.2344
 -16212172.10549 -12614580.77548  22705433.8324   22705430.1444
      -450.7034
  -7448895.41849  -5786777.94347  24538841.9414   24538839.1294
      2819.8284
 07  4 22  1  2 45.0040000  0 12G 1G 2G12G 6G 4G 5G20G23G30G13G31G 7
  -9412867.24049  -7318091.10547  23980234.7304   23980232.1334
     -2725.1414
 -12747288.32949  -9914704.81547  23453442.1444   23453436.9304
      1225.5314
  -3965726.51249  -3071440.96647  24846865.7854   24846861.8324
     -3519.9694
 -10973001.88449  -8532403.10647  23846335.8164   23846332.1054
      2348.4844
  -8900491.95249  -6918313.54047  23864834.4414   23864832.5004
     -1780.2814
  -6642619.75349  -5156441.16947  24188996.3714   24188993.3634
     -3426.5944
  -2442055.33749  -1885368.39347  25143066.3484   25143062.6334
     -3245.2504
 -10159760.97749  -7898192.94747  23962944.7384   23962939.0824
      2212.6564
 -14465049.31749 -11251533.83347  22771839.1524   22771835.7384
     -2172.8444
   -134228.80249    -86045.26546  25851183.9184   25851180.6994
      3586.3914
 -16205337.13249 -12609254.84248  22706734.6444   22706730.3874
      -460.6414
  -7491154.13849  -5819706.82547  24530800.7384   24530797.0084
      2814.6254
 07  4 22  1  3  0.0040000  0 12G 1G 2G12G 6G 4G 5G20G23G30G13G31G 7
  -9371933.68049  -7286194.82447  23988024.4574   23988021.2694
     -2732.6564
 -12765595.45749  -9928970.11847  23449958.8164   23449953.3054
      1215.2504
  -3912893.76049  -3030272.59247  24856919.5194   24856915.8204
     -3524.4064
 -11008176.43549  -8559811.79747  23839642.1914   23839639.0124
      2341.4694
  -8873715.25549  -6897448.57347  23869929.9024   23869927.9844
     -1789.7664
  -6591177.97449  -5116356.65747  24198785.1214   24198782.3834
     -3432.3124
  -2393331.36249  -1847401.63646  25152338.1054   25152334.6484
     -3251.2344
 -10192887.95049  -7924006.16847  23956640.5594   23956635.1644
      2204.1414
 -14432387.31749 -11226082.93347  22778054.5984   22778051.0824
     -2182.0624
   -187995.81949   -127941.65746  25840952.8714   25840948.9614
      3582.4534
 -16198353.35349 -12603812.94148  22708063.6994   22708059.3634
      -470.5164
  -7533334.40949  -5852574.59247  24522773.7624   24522771.4574
      2809.3284
 07  4 22  1  3 15.0040000  0 12G 1G 2G12G 6G 4G 5G20G23G30G13G31G 7
  -9330888.92249  -7254211.90047  23995835.2154   23995832.0594
     -2739.9064
 -12783749.25649  -9943115.90847  23446504.1134   23446498.5784
      1205.2344
  -3859995.45749  -2989053.14447  24866986.1444   24866981.6994
     -3528.6724
 -11043246.94649  -8587139.43947  23832968.5514   23832965.6294
      2334.6094
  -8846796.47649  -6876472.90047  23875052.6214   23875050.7114
     -1799.2664
  -6539651.95249  -5076206.53647  24208590.9024   24208587.7974
     -3437.7814
  -2344517.96149  -1809365.25246  25161626.2854   25161623.5474
     -3257.0314
 -10225888.73349  -7949721.07747  23950360.8874   23950355.3404
      2195.9224
 -14399587.22449 -11200524.41147  22784296.2464   22784293.0164
     -2191.2034
   -241706.24349   -169793.94346  25830731.6764   25830727.9614
      3578.9694
 -16191222.78149 -12598256.65448  22709420.7934   22709416.5044
      -480.2034
  -7575437.83249  -5885382.43847  24514761.7854   24514758.8524
      2804.4064
 07  4 22  1  3 30.0040000  0 12G 1G 2G12G 6G 4G 5G20G23G30G13G31G 7
  -9289734.11849  -7222143.23047  24003666.4184   24003663.2464
     -2747.2344
 -12801750.60049  -9957142.91947  23443078.5274   23443073.4804
      1195.1414
  -3807032.75849  -2947783.51547  24877064.4344   24877060.3754
     -3532.9534
 -11078214.10449  -8614386.54047  23826314.9884   23826311.3244
      2327.7504
  -8819736.57149  -6855387.28147  23880202.5664   23880199.9734
     -1808.7034
  -6488042.76949  -5035991.62647  24218410.8874   24218408.2814
     -3443.2974
  -2295616.21749  -1771260.01746  25170932.3944   25170929.1524
     -3262.9844
 -10258763.84149  -7975338.04547  23944104.7774   23944099.4534
      2187.6094
 -14366650.30249 -11174859.26147  22790563.6214   22790560.2854
     -2200.2974
   -295360.39749   -211602.32446  25820521.3404   25820519.5624
      3575.1564
 -16183946.31549 -12592586.67648  22710805.1294   22710801.4224
      -489.9224
  -7617465.02949  -5918130.89247  24506764.4024   24506760.9144
      2799.3444
 07  4 22  1  3 45.0040000  0 12G 1G 2G12G 6G 4G 5G20G23G30G13G31G 7
  -9248468.73849  -7189988.38547  24011518.7234   24011514.9924
     -2754.6414
 -12819598.52049  -9971050.36847  23439682.6844   23439677.2694
      1184.7814
  -3754005.20349  -2906463.32347  24887156.1294   24887151.2234
     -3537.2344
 -11113076.66549  -8641552.12747  23819680.1844   23819677.5624
      2320.6564
  -8792534.87149  -6834191.15347  23885378.1994   23885376.3444
     -1818.0474
  -6436349.88749  -4995711.49447  24228248.1684   24228245.9454
     -3448.8444
  -2246625.69049  -1733085.59946  25180254.6134   25180252.0624
     -3268.9534
 -10291512.17849  -8000856.21147  23937872.8794   23937868.0704
      2179.0634
 -14333575.89649 -11149087.00047  22796857.3404   22796854.4534
     -2209.4534
   -348957.07349   -253365.92846  25810321.5434   25810319.0824
      3571.2344
 -16176523.05149 -12586802.32548  22712217.6604   22712214.0314
      -499.6564
  -7659414.80349  -5950819.01347  24498782.0194   24498777.6564
      2794.1414
 07  4 22  1  4  0.0040000  0 12G 1G 2G12G 6G 4G 5G20G23G30G13G31G 7
  -9207092.64549  -7157747.28647  24019392.3554   24019389.5434
     -2762.2034
 -12837292.38149  -9984837.78547  23436315.0354   23436309.7814
      1174.3754
  -3700912.51449  -2865092.38947  24897259.2694   24897254.8324
     -3541.7194
 -11147834.03449  -8668635.76047  23813065.4964   23813062.7384
      2313.5784
  -8765191.23949  -6812884.42547  23890582.1214   23890579.9374
     -1827.5624
  -6384573.10049  -4955365.94447  24238100.8324   24238098.2694
     -3454.6564
  -2197546.20049  -1694841.84546  25189594.4494   25189591.6724
     -3274.8914
 -10324133.00149  -8026275.02647  23931665.6214   23931660.4374
      2170.4534
 -14300363.81349 -11123207.48347  22803177.8094   22803174.5904
     -2218.7814
   -402495.51449   -295084.16946  25800133.8794   25800130.6804
      3567.3594
 -16168952.70849 -12580903.36148  22713658.2074   22713654.3284
      -509.6094
  -7701286.49349  -5983446.31147  24490813.5744   24490809.9734
      2788.8444
 07  4 22  1  4 15.0040000  0 12G 1G 2G12G 6G 4G 5G20G23G30G13G31G 7
  -9165607.10049  -7125420.91047  24027286.7774   24027283.6444
     -2769.2664
 -12854832.95649  -9998505.76047  23432977.5824   23432971.7894
      1164.2504
  -3647755.92849  -2823671.63047  24907374.1524   24907370.0474
     -3545.9694
 -11182486.99349  -8695638.06347  23806471.8244   23806468.7734
      2306.6884
  -8737706.96549  -6791468.14347  23895811.5904   23895810.0314
     -1836.9374
  -6332713.83749  -4914956.14847  24247969.7154   24247966.0084
     -3460.0164
  -2148379.17749  -1656529.90446  25198950.6374   25198947.2274
     -3280.7504
 -10356626.93949  -8051594.98647  23925482.3324   23925477.0864
      2162.0164
 -14267015.08849 -11097221.45147  22809523.0274   22809520.8404
     -2227.7814
   -455976.36449   -336757.48246  25789956.7384   25789953.9064
      3563.4844
 -16161236.09249 -12574890.41148  22715126.8794   22715122.6294
      -519.3914
  -7743080.85749  -6016013.35447  24482860.5354   24482856.9144
      2783.7194
 07  4 22  1  4 30.0040000  0 12G 1G 2G12G 6G 4G 5G20G23G30G13G31G 7
  -9124011.95049  -7093009.11047  24035202.1294   24035199.1604
     -2776.5944
 -12872219.46249 -10012053.66547  23429668.5514   23429662.9964
      1154.0004
  -3594535.59249  -2782201.23547  24917501.6444   24917498.2034
     -3550.1094
 -11217034.81349  -8722558.43547  23799897.7934   23799895.0314
      2299.7034
  -8710081.71349  -6769941.98147  23901069.6604   23901066.2074
     -1846.3594
  -6280771.98549  -4874481.99947  24257853.5904   24257850.4924
     -3465.5314
  -2099124.54749  -1618149.65946  25208323.8874   25208320.7934
     -3286.4844
 -10388993.35849  -8076815.56147  23919323.1914   23919317.7154
      2153.5164
 -14233529.64849 -11071128.90047  22815895.8404   22815893.0354
     -2236.8444
   -509398.72149   -378385.26246  25779790.7624   25779787.1684
      3559.5314
 -16153372.96449 -12568763.31148  22716623.0824   22716618.7504
      -529.1094
  -7784797.09149  -6048519.53847  24474922.1134   24474918.4694
      2778.4064
 07  4 22  1  4 45.0040000  0 12G 1G 2G12G 6G 4G 5G20G23G30G13G31G 7
  -9082307.19849  -7060511.91847  24043137.7624   24043135.2584
     -2784.0004
 -12889451.60649 -10025481.33947  23426390.0434   23426383.4844
      1143.5314
  -3541251.40449  -2740681.09747  24927640.9414   24927636.9774
     -3554.4374
 -11251476.85749  -8749396.37947  23793343.5984   23793340.7854
      2292.5634
  -8682315.37949  -6748305.87547  23906352.1294   23906351.4414
     -1855.8444
  -6228747.40849  -4833943.38847  24267753.0124   24267750.4224
     -3471.1414
  -2049782.33349  -1579701.18846  25217713.1524   25217709.6564
     -3292.4694
 -10421231.60349  -8101936.27747  23913188.4344   23913183.1024
      2144.9384
 -14199907.54649 -11044929.85547  22822293.7304   22822291.0194
     -2246.0784
   -562762.05949   -419967.03946  25769635.6994   25769633.1214
      3555.5004
 -16145363.03149 -12562521.80848  22718147.4734   22718143.2544
      -538.9844
  -7826434.69449  -6080964.43047  24466999.1214   24466995.1444
      2773.0474
 07  4 22  1  5  0.0040000  0 12G 1G 2G12G 6G 4G 5G20G23G30G13G31G 7
  -9040492.28749  -7027928.87147  24051095.2154   24051092.3484
     -2791.2814
 -12906528.19449 -10038787.76447  23423140.0664   23423134.1954
      1133.2974
  -3487902.69449  -2699110.68347  24937792.4574   24937789.1524
     -3558.7194
 -11285812.02749  -8776151.05347  23786810.0514   23786806.9264
      2285.4844
  -8654407.44449  -6726559.42247  23911662.9184   23911661.2734
     -1865.1414
  -6176639.77349  -4793340.03447  24277668.9884   24277665.8984
     -3476.5944
  -2000351.96649  -1541184.02946  25227119.6994   25227115.9694
     -3298.2504
 -10453340.56449  -8126956.25947  23907078.2234   23907073.1684
      2136.2344
 -14166148.07549 -11018623.79047  22828717.8244   22828715.1874
     -2255.2034
   -616065.24549   -461501.96446  25759492.5124   25759489.6644
      3551.4844
 -16137205.43649 -12556165.23948  22719699.8164   22719695.6874
      -548.6874
  -7867992.52849  -6113347.13947  24459091.1524   24459087.2464
      2767.8134
 07  4 22  1  5 15.0040000  0 12G 1G 2G12G 6G 4G 5G20G23G30G13G31G 7
  -8998567.54349  -6995260.26247  24059073.3324   24059070.6254
     -2798.5474
 -12923449.09349 -10051972.86947  23419919.9344   23419914.2074
      1122.8594
  -3434489.81949  -2657490.30847  24947956.5594   24947953.5084
     -3562.8284
 -11320040.24649  -8802822.40147  23780296.4964   23780293.1524
      2278.4064
  -8626358.12249  -6704702.81947  23917000.8484   23916998.4494
     -1874.3594
  -6124449.37549  -4752672.20947  24287600.6214   24287598.0314
     -3481.9694
  -1950834.01649  -1502598.59446  25236542.6844   25236539.3714
     -3303.9534
 -10485319.97749  -8151875.27447  23900993.1374   23900987.7854
      2127.7664
 -14132251.77749 -10992211.11647  22835168.3874   22835165.2694
     -2264.1874
   -669307.87549   -502989.66246  25749361.2624   25749357.0354
      3547.6414
 -16128900.35749 -12549693.74748  22721280.1374   22721276.0514
      -558.4694
  -7909470.32549  -6145667.54847  24451197.3874   24451193.1804
      2762.6564
 07  4 22  1  5 30.0040000  0 12G 1G 2G12G 6G 4G 5G20G23G30G13G31G 7
  -8956534.12849  -6962506.95347  24067071.8554   24067069.5434
     -2805.9374
 -12940214.98449 -10065037.19647  23416729.5194   23416724.1214
      1112.4534
  -3381013.86449  -2615820.72547  24958132.5744   24958129.0434
     -3567.1564
 -11354161.97749  -8829410.74847  23773803.6444   23773800.8984
      2271.2034
  -8598168.59949  -6682736.96847  23922365.0044   23922362.5194
     -1884.0314
  -6072177.45449  -4711940.86747  24297547.5354   24297544.6524
     -3487.5164
  -1901229.68349  -1463945.90346  25245981.4734   25245979.5864
     -3309.9374
 -10517170.55449  -8176693.91547  23894931.7934   23894925.8674
      2118.9694
 -14098219.77249 -10965692.69847  22841644.7854   22841641.0434
     -2273.4224
   -722490.36249   -544430.52246  25739241.3244   25739238.1214
      3543.3444
 -16120448.72149 -12543108.06648  22722888.6294   22722884.6874
      -568.3124
  -7950868.74049  -6177926.05347  24443319.8324   24443316.2814
      2757.1094
 07  4 22  1  5 45.0040000  0 12G 1G 2G12G 6G 4G 5G20G23G30G13G31G 7
  -8914391.68649  -6929668.70447  24075091.5194   24075089.0434
     -2813.1414
 -12956825.00649 -10077980.03347  23413568.7854   23413563.2624
      1102.1724
  -3327474.57649  -2574101.82547  24968320.8164   24968317.1334
     -3571.2344
 -11388176.36549  -8855915.46847  23767330.6374   23767327.5314
      2264.0164
  -8569838.46049  -6660661.54847  23927756.2464   23927753.3914
     -1893.3594
  -6019823.56549  -4671145.66647  24307510.0434   24307507.1524
     -3492.9694
  -1851538.58249  -1425225.56946  25255437.8244   25255435.1214
     -3315.7034
 -10548891.21949  -8201411.31947  23888895.4654   23888890.3674
      2110.4384
 -14064051.35349 -10939067.94147  22848146.8714   22848142.9414
     -2282.4064
   -775611.73649   -585823.74846  25729132.4344   25729129.4024
      3539.4534
 -16111849.67949 -12536407.51948  22724524.5984   22724520.4844
      -578.1874
  -7992186.77249  -6210121.91447  24435457.5514   24435453.4844
      2751.8444
 07  4 22  1  6  0.0040000  0 12G 1G 2G12G 6G 4G 5G20G23G30G13G31G 7
  -8872138.79849  -6896744.36547  24083131.9104   24083129.2734
     -2820.6414
 -12973277.29849 -10090799.99947  23410438.5194   23410432.7464
      1091.5474
  -3273870.47249  -2532332.42947  24978522.2934   24978517.6484
     -3575.7814
 -11422081.45149  -8882335.03247  23760879.1054   23760875.4924
      2256.6884
  -8541366.03349  -6638475.24347  23933174.1134   23933171.6414
     -1902.8284
  -5967386.28049  -4630285.42847  24317488.8164   24317485.7854
     -3498.6414
  -1801759.38049  -1386436.65546  25264910.6914   25264907.5864
     -3321.5474
 -10580479.91449  -8226025.89347  23882884.6764   23882879.3984
      2101.4844
 -14029745.31049 -10912335.95947  22854674.8944   22854671.4374
     -2291.6414
   -828669.97349   -627167.79946  25719035.3554   25719032.1994
      3534.9534
 -16103101.81049 -12529590.98948  22726189.3874   22726185.1134
      -588.2344
  -8033422.47149  -6242253.62147  24427610.8094   24427606.8794
      2746.2664
 07  4 22  1  6 15.0040000  0 12G 1G 2G12G 6G 4G 5G20G23G30G13G31G 7
  -8829775.94849  -6863734.34747  24091193.5354   24091190.8244
     -2827.7504
 -12989572.16149 -10103497.29647  23407337.3244   23407331.8794
      1081.1724
  -3220202.00949  -2490512.83647  24988735.0824   24988730.3634
     -3579.9224
 -11455877.13549  -8908669.31947  23754447.6914   23754444.4804
      2249.5314
  -8512751.96149  -6616178.57647  23938619.3094   23938616.6174
     -1912.3124
  -5914866.19049  -4589360.66447  24327483.1844   24327480.0554
     -3504.0004
  -1751892.51949  -1347579.34546  25274400.1914   25274396.3674
     -3327.2504
 -10611936.55949  -8250537.55447  23876898.6604   23876893.1054
      2092.7974
 -13995301.93449 -10885496.93447  22861229.1214   22861225.6444
     -2300.7194
   -881664.90349   -668462.52446  25708950.3164   25708948.3834
      3530.9534
 -16094205.37549 -12522658.70548  22727882.4264   22727878.6804
      -598.0164
  -8074575.82449  -6274321.19047  24419778.7384   24419775.9804
      2740.8444
 07  4 22  1  6 30.0040000  0 12G 1G 2G12G 6G 4G 5G20G23G30G13G31G 7
  -8787305.36449  -6830640.38647  24099275.3094   24099272.5314
     -2835.0474
 -13005711.03849 -10116073.03947  23404266.1524   23404260.7114
      1070.5314
  -3166471.41849  -2448644.80247  24998959.0434   24998955.1874
     -3584.2664
 -11489565.11849  -8934919.70547  23748037.1764   23748034.6724
      2242.1414
  -8483998.34649  -6593773.17047  23944090.9024   23944088.1094
     -1921.6724
  -5862265.60749  -4548373.20347  24337492.5594   24337490.0474
     -3509.4694
  -1701940.47549  -1308655.67447  25283905.9804   25283902.4224
     -3333.0944
 -10643262.83849  -8274947.65847  23870937.3714   23870932.1804
      2083.9384
 -13960723.61049 -10858552.76547  22867809.5824   22867805.2234
     -2309.8444
   -934597.96149   -709709.02446  25698877.4024   25698874.8054
      3526.7344
 -16085162.25349 -12515612.11948  22729603.2694   22729599.1764
      -607.8284
  -8115648.47849  -6306325.86747  24411963.2304   24411960.1914
      2735.3444
 07  4 22  1  6 45.0040000  0 12G 1G 2G12G 6G 4G 5G20G23G30G13G31G 7
  -8744726.05449  -6797461.72247  24107378.0514   24107375.5164
     -2842.1094
 -13021692.50749 -10128526.12247  23401225.0904   23401219.2424
      1060.3134
  -3112677.84249  -2406727.69347  25009196.3554   25009191.8754
     -3588.2814
 -11523143.84649  -8961084.94247  23741647.3874   23741644.5624
      2235.0634
  -8455104.07449  -6571258.13447  23949589.4884   23949587.1644
     -1930.9534
  -5809583.47449  -4507322.17847  24347518.1764   24347514.9494
     -3514.6874
  -1651902.26249  -1269664.85746  25293427.7774   25293423.7894
     -3338.7034
 -10674457.06349  -8299254.82647  23865001.7234   23864996.2694
      2075.3134
 -13926009.24949 -10831502.60047  22874415.0434   22874412.1994
     -2318.6564
   -987467.74849   -750906.14646  25688817.4654   25688813.9264
      3522.6564
 -16075971.15649 -12508450.22048  22731352.2384   22731347.9884
      -617.5314
  -8156638.65649  -6338266.23047  24404162.6134   24404160.2384
      2730.1254
 07  4 22  1  7  0.0040000  0 12G 1G 2G12G 6G 4G 5G20G23G30G13G31G 7
  -8702037.58649  -6764197.97947  24115501.5194   24115498.9574
     -2849.4064
 -13037515.60549 -10140855.81447  23398214.1374   23398208.3164
      1049.6724
  -3058820.77049  -2364761.13147  25019444.6294   25019440.3284
     -3592.5624
 -11556612.30549  -8987164.26347  23735278.9184   23735275.6334
      2227.5944
  -8426068.69749  -6548633.19947  23955114.7074   23955112.2774
     -1940.2664
  -5756819.40549  -4466207.31747  24357558.6604   24357555.5274
     -3520.2034
  -1601777.36949  -1230606.54946  25302965.7774   25302962.3674
     -3344.4534
 -10705518.33449  -8323458.41147  23859090.4024   23859085.2694
      2066.4224
 -13891158.30249 -10804346.00547  22881046.9804   22881043.8094
     -2327.8444
  -1040272.85449   -792052.95346  25678768.7934   25678765.4574
      3518.2194
 -16066631.42349 -12501172.51248  22733129.4734   22733125.1294
      -627.5004
  -8197545.58449  -6370141.76047  24396378.5194   24396375.7074
      2724.4844
 07  4 22  1  7 15.0040000  0 12G 1G 2G12G 6G 4G 5G20G23G30G13G31G 7
  -8659241.79349  -6730850.61447  24123644.7304   24123642.1134
     -2856.6874
 -13053181.82349 -10153063.23647  23395232.3714   23395227.0664
      1039.1724
  -3004902.10349  -2322746.60047  25029705.1764   25029700.7664
     -3596.6254
 -11589971.85649  -9013158.71447  23728930.5594   23728927.9964
      2220.2974
  -8396894.10949  -6525899.77547  23960666.2074   23960663.6444
     -1949.6254
  -5703975.31349  -4425030.10447  24367614.7544   24367610.8524
     -3525.5784
  -1551567.94649  -1191482.32846  25312520.2854   25312517.3244
     -3350.1564
 -10736447.95749  -8347559.41447  23853204.2304   23853199.8404
      2057.6414
 -13856172.57049 -10777084.40047  22887704.5744   22887701.7854
     -2336.8444
  -1093014.55549   -833150.35246  25668732.2774   25668729.1604
      3513.9224
 -16057144.65549 -12493780.22348  22734934.6524   22734930.4654
      -637.3444
  -8238370.49549  -6401953.38347  24388609.7934   24388607.1444
      2718.9384
 07  4 22  1  7 30.0040000  0 12G 1G 2G12G 6G 4G 5G20G23G30G13G31G 7
  -8616339.28649  -6697420.10347  24131809.4654   24131806.5084
     -2863.7664
 -13068691.21949 -10165148.47647  23392281.0904   23392276.3524
      1028.7194
  -2950922.28549  -2280684.41947  25039976.7074   25039973.7344
     -3600.6094
 -11623222.53449  -9039068.32447  23722603.1844   23722599.6134
      2213.1094
  -8367580.73449  -6503058.18547  23966244.5274   23966242.8674
     -1958.8444
  -5651051.82649  -4383791.00447  24377685.8244   24377682.8164
     -3530.8124
  -1501274.51649  -1152292.66046  25322090.7934   25322087.7894
     -3355.7194
 -10767245.88449  -8371557.78647  23847343.7544   23847338.5004
      2048.7344
 -13821052.74949 -10749718.32147  22894387.4574   22894384.6564
     -2345.7664
  -1145692.89549   -874198.36446  25658707.4574   25658704.6294
      3509.7664
 -16047511.27149 -12486273.69648  22736767.9574   22736764.2584
      -647.0624
  -8279113.40149  -6433701.10447  24380856.8164   24380854.1134
      2713.4384
 07  4 22  1  7 45.0040000  0 12G 1G 2G12G 6G 4G 5G20G23G30G13G31G 7
  -8573328.01249  -6663904.82447  24139993.7624   24139991.6444
     -2871.0474
 -13084041.19049 -10177109.49147  23389360.1994   23389355.0164
      1018.1414
  -2896879.33849  -2238573.08447  25050260.7694   25050257.6054
     -3605.0944
 -11656361.70349  -9064891.04547  23716297.0354   23716293.8364
      2205.6884
  -8338126.52249  -6480106.85847  23971849.4414   23971847.6644
     -1968.1874
  -5598046.88749  -4342488.46647  24387771.8014   24387768.9414
     -3536.2814
  -1450894.97149  -1113035.86446  25331677.3944   25331674.6844
     -3361.2664
 -10797909.47549  -8395451.49147  23841508.6914   23841503.5164
      2039.7664
 -13785796.67749 -10722246.06347  22901096.4884   22901093.2154
     -2354.9064
  -1198305.13149   -915194.84846  25648696.1374   25648691.5984
      3505.2664
 -16037728.84649 -12478651.03248  22738629.6684   22738625.5784
      -657.0474
  -8319771.67349  -6465382.88547  24373119.8014   24373117.8594
      2707.7194
 07  4 22  1  8  0.0040000  0 12G 1G 2G12G 6G 4G 5G20G23G30G13G31G 7
  -8530209.37949  -6630305.88147  24148199.4804   24148196.4414
     -2878.1874
 -13099232.74249 -10188947.05147  23386469.2074   23386464.5944
      1007.5004
  -2842774.51349  -2196413.50247  25060556.5124   25060553.4184
     -3608.8754
 -11689390.17849  -9090627.54047  23710012.0044   23710008.3874
      2198.1724
  -8308532.61749  -6457046.68247  23977481.3874   23977478.7624
     -1977.6254
  -5544961.89849  -4301123.53547  24397873.5044   24397870.8484
     -3541.6724
  -1400430.95449  -1073713.31246  25341281.3714   25341277.7544
     -3367.1414
 -10828439.54849  -8419241.16047  23835698.7074   23835693.5594
      2030.8594
 -13750405.69749 -10694668.69747  22907831.1764   22907828.2154
     -2363.9694
  -1250851.95849   -956140.51846  25638697.0664   25638692.7344
      3500.9384
 -16027798.60249 -12470913.18548  22740519.1684   22740515.0944
      -666.9694
  -8360346.13049  -6496999.32247  24365399.2304   24365396.0164
      2702.1254
 07  4 22  1  8 15.0040000  0 12G 1G 2G12G 6G 4G 5G20G23G30G13G31G 7
  -8486983.16449  -6596623.12747  24156425.1214   24156422.0164
     -2885.2974
 -13114265.29649 -10200660.73347  23383608.4964   23383603.5704
       996.9064
  -2788607.58049  -2154205.53047  25070864.1684   25070860.9654
     -3613.2194
 -11722307.27249  -9116277.24147  23703748.1374   23703744.8124
      2190.7344
  -8278799.01049  -6433877.65247  23983139.5194   23983137.2114
     -1986.9374
  -5491796.64549  -4259696.08247  24407990.3324   24407988.3094
     -3547.0944
  -1349882.29449  -1034324.75446  25350899.7774   25350897.2544
     -3372.6564
 -10858835.28649  -8442926.12847  23829914.6684   23829909.6294
      2021.9064
 -13714879.56749 -10666986.02147  22914591.7934   22914588.9224
     -2372.9224
  -1303332.46749   -997034.32446  25628710.0044   25628706.4654
      3496.5314
 -16017720.05749 -12463059.77748  22742436.9414   22742432.5824
      -676.8594
  -8400836.00349  -6528549.86947  24357694.2934   24357691.4574
      2696.4534
 07  4 22  1  8 30.0040000  0 12G 1G 2G12G 6G 4G 5G20G23G30G13G31G 7
  -8443650.12549  -6562857.13647  24164670.5824   24164667.9884
     -2892.4064
 -13129138.95249 -10212250.58947  23380778.4804   23380773.1684
       986.2504
  -2734379.47549  -2111949.85147  25081184.1294   25081179.9494
     -3617.3284
 -11755113.02549  -9141840.18747  23697505.2854   23697501.8164
      2183.2974
  -8248926.09549  -6410600.06647  23988824.1994   23988821.6994
     -1996.1414
  -5438551.90449  -4218206.70647  24418122.8014   24418119.9224
     -3552.2664
  -1299249.63349   -994870.77146  25360534.4964   25360531.5904
     -3378.2344
 -10889096.81649  -8466506.55847  23824156.7304   23824151.0474
      2012.9844
 -13679218.96649 -10639198.55847  22921377.7624   22921374.2274
     -2381.8594
  -1355746.61249  -1037876.48746  25618736.0354   25618732.7304
      3492.0164
 -16007493.70849 -12455091.19848  22744383.2694   22744379.1334
      -686.7034
  -8441241.39349  -6560034.58047  24350004.6444   24350002.2274
      2690.8134
 07  4 22  1  8 45.0040000  0 12G 1G 2G12G 6G 4G 5G20G23G30G13G31G 7
  -8400211.79149  -6529009.07647  24172936.1844   24172933.9804
     -2899.4374
 -13143854.97149 -10223717.62047  23377978.4104   23377973.2154
       975.7814
  -2680091.70349  -2069647.71547  25091513.5744   25091510.2624
     -3621.2974
 -11787808.61549  -9167317.28747  23691283.5434   23691279.9964
      2175.9694
  -8218915.68149  -6387215.33847  23994535.2154   23994532.2814
     -2005.3594
  -5385229.27249  -4176656.60647  24428269.5124   24428266.4414
     -3557.4534
  -1248534.63149   -955352.57946  25370185.6054   25370182.6414
     -3383.7974
 -10919225.14149  -8489983.17047  23818423.4574   23818418.1214
      2003.9844
 -13643425.58649 -10611307.63047  22928189.0354   22928185.7814
     -2390.7814
  -1408095.38949  -1078667.71046  25608774.9574   25608770.7624
      3487.6414
 -15997120.93149 -12447008.51048  22746356.9024   22746353.2464
      -696.4844
  -8481563.40649  -6591454.31747  24342331.5434   24342329.3754
      2685.2504
 07  4 22  1  9  0.0040000  0 12G 1G 2G12G 6G 4G 5G20G23G30G13G31G 7
  -8356667.76749  -6495078.68347  24181223.3164   24181219.9224
     -2906.5784
 -13158412.31249 -10235060.99247  23375207.7154   23375202.9264
       965.1094
  -2625743.75249  -2027298.66347  25101856.4104   25101852.6174
     -3625.2504
 -11820392.95949  -9192707.66247  23685083.0354   23685079.0944
      2168.4534
  -8188767.20249  -6363723.02047  24000271.6604   24000269.2034
     -2014.6094
  -5331828.33649  -4135045.49447  24438431.3404   24438428.5274
     -3562.7194
  -1197736.95749   -915770.02846  25379852.5124   25379848.7114
     -3389.3594
 -10949219.15349  -8513355.12047  23812715.7074   23812709.9574
      1995.0164
 -13607498.78049 -10583312.73847  22935025.9344   22935022.5624
     -2399.6874
  -1460377.88949  -1119407.27046  25598825.0044   25598822.9264
      3483.1884
 -15986601.02249 -12438811.19148  22748358.6444   22748355.0744
      -706.2974
  -8521801.01049  -6622808.28647  24334674.9804   24334672.4884
      2679.6254
 07  4 22  1  9 15.0040000  0 12G 1G 2G12G 6G 4G 5G20G23G30G13G31G 7
  -8313017.52049  -6461065.50147  24189529.2934   24189526.2034
     -2913.6874
 -13172810.06949 -10246280.02447  23372468.2774   23372463.5004
       954.4384
  -2571335.05549  -1984902.27147  25112210.3714   25112205.3834
     -3629.3124
 -11852865.11249  -9218010.67447  23678903.1054   23678899.6294
      2160.9694
  -8158479.99749  -6340122.56647  24006035.1214   24006033.1874
     -2023.8124
  -5278348.60449  -4093372.97447  24448609.0664   24448605.7974
     -3567.9844
  -1146856.21949   -876122.68546  25389534.1374   25389531.1134
     -3394.8914
 -10979077.84549  -8536621.60947  23807032.9184   23807028.4104
      1985.9694
 -13571438.10549 -10555213.52247  22941887.8794   22941884.2074
     -2408.5944
  -1512592.87249  -1160094.22346  25588888.4964   25588886.6054
      3478.6094
 -15975933.16249 -12430498.57748  22750388.8484   22750384.9734
      -716.1874
  -8561953.11349  -6654095.66747  24327034.4804   24327031.8094
      2673.8444
 07  4 22  1  9 30.0040000  0 12G 1G 2G12G 6G 4G 5G20G23G30G13G31G 7
  -8269262.67949  -6426970.82847  24197855.8944   24197852.7344
     -2920.4694
 -13187049.36049 -10257375.55947  23369758.9574   23369753.6724
       944.0314
  -2516867.33649  -1942459.88547  25122575.1684   25122570.8244
     -3633.1094
 -11885226.01349  -9243226.95847  23672745.2694   23672741.8674
      2153.6414
  -8128055.63149  -6316415.29247  24011824.3164   24011821.9344
     -2032.8444
  -5224791.71649  -4051640.31447  24458800.4964   24458796.6954
     -3573.0944
  -1095893.83249   -836411.75446  25399232.6994   25399228.0234
     -3400.2664
 -11008802.24949  -8559783.48647  23801376.6604   23801371.7304
      1977.1254
 -13535245.17449 -10527011.25147  22948774.9734   22948771.9844
     -2417.1874
  -1564741.22049  -1200729.30546  25578965.4024   25578962.5864
      3474.3444
 -15965118.73049 -12422071.74848  22752446.7544   22752443.1094
      -725.8754
  -8602020.71649  -6685317.15547  24319409.6684   24319407.4224
      2668.3914
 07  4 22  1  9 45.0040000  0 12G 1G 2G12G 6G 4G 5G20G23G30G13G31G 7
  -8225403.74249  -6392795.04547  24206201.3944   24206198.8444
     -2927.4534
 -13201130.26849 -10268347.69047  23367079.0434   23367073.9144
       933.4224
  -2462341.00049  -1899971.82947  25132950.8014   25132946.7464
     -3637.0784
 -11917475.62849  -9268356.53747  23666608.2934   23666605.1954
      2146.1724
  -8097494.61149  -6292601.52447  24017639.9414   24017637.1444
     -2041.9064
  -5171158.20449  -4009847.94947  24469006.5984   24469002.3404
     -3578.1874
  -1044850.71749   -796637.95146  25408946.0824   25408941.8794
     -3405.5164
 -11038392.40449  -8582840.73547  23795746.2464   23795741.0554
      1968.2194
 -13498920.35249 -10498706.20147  22955687.7624   22955684.0704
     -2426.0624
  -1616822.62049  -1241312.15646  25569055.6604   25569051.9024
      3469.6564
 -15954158.06849 -12413530.98248  22754532.5434   22754528.8094
      -735.6254
  -8642003.74549  -6716472.77147  24311801.3944   24311798.4184
      2662.7344
 07  4 22  1 10  0.0040000  0 12G 1G 2G12G 6G 4G 5G20G23G30G13G31G 7
  -8181440.33349  -6358537.82847  24214567.2624   24214564.6764
     -2934.4374
 -13215051.98249 -10279195.77847  23364429.9654   23364424.7774
       922.8284
  -2407755.83749  -1857437.94547  25143338.0904   25143333.7624
     -3640.9064
 -11949613.03449  -9293398.67347  23660493.0434   23660490.0944
      2138.7664
  -8066796.48149  -6268680.91047  24023481.4104   24023479.1804
     -2051.0784
  -5117447.72149  -3967995.62747  24479226.6844   24479224.0434
     -3583.3124
   -993726.41249   -756800.79046  25418674.3164   25418670.5194
     -3410.9694
 -11067847.30649  -8605792.58047  23790141.2854   23790136.1684
      1959.1254
 -13462463.25449 -10470298.08347  22962625.1764   22962621.3324
     -2434.8444
  -1668836.15649  -1281842.09446  25559156.5904   25559153.2344
      3465.2974
 -15943050.55649 -12404875.77748  22756646.1914   22756642.4654
      -745.3914
  -8681901.34149  -6747561.77247  24304208.8944   24304205.6914
      2657.0784
 07  4 22  1 10 15.0040000  0 12G 1G 2G12G 6G 4G 5G20G23G30G13G31G 7
  -8137372.43649  -6324199.22247  24222953.2624   24222950.5704
     -2941.3754
 -13228813.92449 -10289919.35747  23361810.6524   23361805.5394
       912.0474
  -2353111.68249  -1814858.10947  25153736.2154   25153733.0904
     -3645.0474
 -11981637.78049  -9318353.03247  23654398.5984   23654396.1294
      2131.1414
  -8035961.24449  -6244653.42547  24029349.7304   24029346.9304
     -2060.3594
  -5063660.21549  -3926083.26847  24489462.5744   24489458.9064
     -3588.5314
   -942520.89249   -716900.41746  25428418.6914   25428414.7854
     -3416.5474
 -11097166.25049  -8628638.49947  23784562.0744   23784556.3984
      1950.0164
 -13425873.85549 -10441786.87947  22969587.6764   22969584.4574
     -2443.7814
  -1720781.12249  -1322318.66446  25549271.7774   25549268.6804
      3460.5314
 -15931795.96549 -12396105.97648  22758788.0514   22758783.9104
      -755.3124
  -8721712.82349  -6778583.70847  24296632.5514   24296629.9304
      2651.1254
 07  4 22  1 10 30.0040000  0 12G 1G 2G12G 6G 4G 5G20G23G30G13G31G 7
  -8093198.97349  -6289778.35047  24231359.1134   24231356.1844
     -2948.4064
 -13242414.68449 -10300517.35247  23359223.1444   23359217.7854
       901.3594
  -2298407.37949  -1772231.45047  25164145.9574   25164143.1994
     -3649.0004
 -12013548.20349  -9343218.31647  23648326.3014   23648323.4344
      2123.5634
  -8004987.75949  -6220518.26247  24035243.8094   24035240.9374
     -2069.5004
  -5009794.67649  -3884110.12047  24499712.0904   24499709.4494
     -3593.5944
   -891233.18249   -676935.98746  25438178.1994   25438174.5274
     -3421.8914
 -11126347.75849  -8651377.34047  23779009.5354   23779003.7774
      1940.8134
 -13389150.97049 -10413171.65947  22976575.7384   22976572.7894
     -2452.6094
  -1772655.87349  -1362740.55046  25539400.5274   25539397.3284
      3455.9844
 -15920392.89049 -12387220.45548  22760957.5594   22760953.8754
      -765.2504
  -8761436.63149  -6809537.34647  24289074.0124   24289070.1444
      2645.3134
 07  4 22  1 10 45.0040000  0 12G 1G 2G12G 6G 4G 5G20G23G30G13G31G 7
  -8048921.40449  -6255276.33347  24239785.0514   24239782.0594
     -2955.3594
 -13255855.10049 -10310990.39447  23356665.4024   23356660.1484
       890.6884
  -2243644.27949  -1729558.91447  25174566.8874   25174564.1564
     -3652.8444
 -12045345.07249  -9367995.09547  23642275.6214   23642273.1954
      2115.9844
  -7973877.32349  -6196276.36347  24041163.6374   24041161.3244
     -2078.7814
  -4955852.45849  -3842077.24147  24509977.4104   24509974.4774
     -3598.6724
   -839864.84549   -636908.75646  25447953.6994   25447950.1024
     -3427.3284
 -11155392.43949  -8674009.55247  23773482.2234   23773476.5704
      1931.7504
 -13352296.25149 -10384453.71847  22983589.3404   22983586.5274
     -2461.3754
  -1824461.23349  -1403108.33646  25529542.3404   25529538.5434
      3451.3754
 -15908842.53949 -12378220.18548  22763156.1134   22763151.8094
      -774.8754
  -8801073.62749  -6840423.29947  24281531.1374   24281527.9104
      2639.5634
 07  4 22  1 11  0.0040000  0 12G 1G 2G12G 6G 4G 5G20G23G30G13G31G 7
  -8004539.83549  -6220693.30947  24248230.6134   24248227.4024
     -2962.1094
 -13269134.83349 -10321338.22747  23354138.5594   23354132.8204
       879.9384
  -2188822.59649  -1686840.73047  25184999.4804   25184996.6214
     -3656.5624
 -12077027.95349  -9392683.05447  23636246.3794   23636244.0084
      2108.4844
  -7942630.06749  -6171927.84347  24047110.0664   24047107.3014
     -2087.5784
  -4901833.78149  -3799984.77247  24520256.2854   24520254.3984
     -3603.7194
   -788415.85549   -596818.62446  25457743.9964   25457740.5124
     -3432.4844
 -11184299.77949  -8696534.76247  23767980.9344   23767975.5394
      1922.6414
 -13315309.55049 -10355632.92047  22990627.3094   22990624.2894
     -2470.1094
  -1876196.56649  -1443421.59146  25519697.5904   25519693.2424
      3446.7504
 -15897144.84249 -12369105.10948  22765381.7694   22765377.7854
      -784.7034
  -8840623.28949  -6871241.23347  24274004.9414   24274001.9184
      2633.7344
 07  4 22  1 11 15.0040000  0 12G 1G 2G12G 6G 4G 5G20G23G30G13G31G 7
  -7960055.75049  -6186030.40147  24256695.0194   24256692.5314
     -2968.9224
 -13282254.98249 -10331561.71647  23351641.3714   23351635.7934
       869.4224
  -2133943.92049  -1644078.11947  25195442.8164   25195440.0514
     -3660.3754
 -12108597.88449  -9417282.98047  23630239.0744   23630236.1724
      2100.9064
  -7911247.37649  -6147473.81747  24053081.7624   24053079.8094
     -2096.6094
  -4847740.20149  -3757833.94547  24530550.2934   24530547.4104
     -3608.7034
   -736887.81849   -556666.93546  25467549.5514   25467545.7694
     -3437.7814
 -11213070.86149  -8718953.78147  23762506.4024   23762500.9804
      1913.5944
 -13278192.51549 -10326710.55547  22997690.5744   22997687.0704
     -2478.7344
  -1927862.64549  -1483680.87546  25509865.0594   25509862.4374
      3442.0784
 -15885300.99249 -12359876.13948  22767635.6374   22767631.6024
      -794.4374
  -8880086.49349  -6901991.78147  24266495.6844   24266492.3714
      2628.0784
 07  4 22  1 11 30.0040000  0 12G 1G 2G12G 6G 4G 5G20G23G30G13G31G 7
  -7915469.52749  -6151287.88347  24265180.0514   24265177.1604
     -2975.7504
 -13295215.40449 -10341660.72647  23349175.4734   23349170.1874
       858.7194
  -2079008.51849  -1601271.34647  25205896.4654   25205893.9144
     -3664.2504
 -12140054.59749  -9441794.68247  23624252.6844   23624250.7934
      2093.3444
  -7879729.75449  -6122914.63547  24059079.6994   24059077.6254
     -2105.6094
  -4793572.08149  -3715625.03947  24540858.9804   24540855.7934
     -3613.6254
   -685281.19949   -516453.98646  25477370.3874   25477366.6764
     -3442.9844
 -11241705.54749  -8741266.52747  23757057.3404   23757051.4844
      1904.5474
 -13240945.23149 -10297686.71047  23004778.4734   23004775.2274
     -2487.3914
  -1979459.14749  -1523885.88246  25500046.6134   25500043.6684
      3437.4064
 -15873311.12449 -12350533.38948  22769917.0984   22769912.7774
      -804.1564
  -8919463.17249  -6932674.90547  24259002.8164   24258999.9734
      2622.1884
 07  4 22  1 11 45.0040000  0 12G 1G 2G12G 6G 4G 5G20G23G30G13G31G 7
  -7870780.64049  -6116465.35647  24273683.9264   24273681.2304
     -2982.6254
 -13308015.24749 -10351634.62347  23346739.4264   23346734.1374
       847.9534
  -2024015.77949  -1558419.88847  25216362.7384   25216358.5624
     -3668.0004
 -12171397.09249  -9466217.41947  23618288.7854   23618286.3284
      2085.6724
  -7848076.24549  -6098249.58947  24065102.7624   24065100.7624
     -2114.7034
  -4739328.81849  -3673357.57247  24551180.9184   24551177.5744
     -3618.7194
   -633595.65549   -476179.52946  25487205.2854   25487202.7694
     -3448.2814
 -11270202.74549  -8763472.12547  23751634.2464   23751629.1024
      1895.3444
 -13203567.23749 -10268561.04747  23011891.5514   23011888.1804
     -2496.1724
  -2030984.80949  -1564035.69846  25490242.2074   25490238.6094
      3432.7344
 -15861174.46749 -12341076.24248  22772226.7464   22772222.7234
      -814.0164
  -8958752.11249  -6963289.67047  24251525.5824   24251522.3874
      2616.4224
 07  4 22  1 12  0.0040000  0 12G 1G 2G12G 6G 4G 5G20G23G30G13G31G 7
  -7825989.73449  -6081563.38247  24282207.5434   24282204.3364
     -2989.5784
 -13320654.59949 -10361483.48647  23344334.4734   23344329.1134
       837.1564
  -1968966.43849  -1515524.27147  25226837.5514   25226833.9694
     -3671.8754
 -12202625.52149  -9490551.24347  23612345.7074   23612343.2544
      2078.0164
  -7816287.75049  -6073479.32147  24071152.1764   24071149.9024
     -2123.8444
  -4685011.16849  -3631032.13147  24561517.2774   24561513.8094
     -3623.6564
   -581831.55749   -435843.93746  25497055.1604   25497052.8794
     -3453.7034
 -11298562.37849  -8785570.52547  23746237.3484   23746232.3524
      1885.9534
 -13166059.27249 -10239334.07447  23019029.0274   23019025.5704
     -2504.9064
  -2082439.62449  -1604130.30246  25480450.9184   25480447.5164
      3427.8754
 -15848891.46649 -12331505.06348  22774564.3404   22774559.7664
      -823.7814
  -8997953.38249  -6993836.11747  24244066.3404   24244062.6484
      2610.3914
 07  4 22  1 12 15.0040000  0 12G 1G 2G12G 6G 4G 5G20G23G30G13G31G 7
  -7781095.88949  -6046581.14647  24290750.9024   24290747.1954
     -2996.1724
 -13333132.01549 -10371206.14847  23341960.2074   23341954.8404
       826.5634
  -1913859.56649  -1472583.86847  25237323.9574   25237320.0704
     -3675.5474
 -12233738.33949  -9514794.98747  23606425.6994   23606423.0744
      2070.4534
  -7784363.22249  -6048603.05847  24077227.3094   24077224.8054
     -2132.6874
  -4630618.20449  -3588648.05447  24571867.6844   24571865.0354
     -3628.5314
   -529988.37549   -395446.68746  25506921.3874   25506918.5984
     -3458.7814
 -11326782.97649  -8807560.61347  23740867.0984   23740862.2074
      1876.8284
 -13128420.31849 -10210005.04647  23026191.2624   23026187.6804
     -2513.4694
  -2133822.14049  -1644168.63646  25470673.0124   25470669.4064
      3423.2194
 -15836461.08149 -12321819.04848  22776929.7934   22776925.2344
      -833.4694
  -9037065.64749  -7024313.21247  24236623.8324   24236620.1054
      2604.6414
 07  4 22  1 12 30.0040000  0 12G 1G 2G12G 6G 4G 5G20G23G30G13G31G 7
  -7736100.86049  -6011520.07947  24299312.8484   24299309.3714
     -3003.1564
 -13345449.06049 -10380803.83347  23339616.1524   23339610.4654
       815.6884
  -1858696.89349  -1429599.98447  25247821.5124   25247817.0554
     -3679.4694
 -12264736.89149  -9538949.73947  23600526.9884   23600523.9304
      2062.6724
  -7752304.42049  -6023622.17147  24083327.5824   24083325.0044
     -2141.8754
  -4576151.66749  -3546206.55547  24582232.0434   24582228.5004
     -3633.6414
   -478068.03949   -354989.23746  25516801.4104   25516798.5704
     -3463.9374
 -11354865.83649  -8829443.34447  23735523.5124   23735517.9694
      1867.5474
 -13090652.26149 -10180575.44647  23033378.3484   23033375.0164
     -2522.2344
  -2185133.48349  -1684151.47446  25460909.0434   25460905.5744
      3418.2664
 -15823884.83949 -12312019.38248  22779322.8944   22779318.2544
      -843.3914
  -9076090.00749  -7054721.79747  24229197.5594   24229194.0864
      2598.6414
 07  4 22  1 12 45.0040000  0 12G 1G 2G12G 6G 4G 5G20G23G30G13G31G 7
  -7691004.73949  -5976380.22847  24307894.2234   24307891.8404
     -3009.8914
 -13357605.14249 -10390276.09447  23337302.9024   23337297.3164
       805.0314
  -1803478.39249  -1386572.55547  25258328.5824   25258325.1214
     -3683.1564
 -12295620.55249  -9563014.92947  23594649.6844   23594646.9774
      2055.0314
  -7720111.33149  -5998536.65947  24089453.9184   24089450.3834
     -2150.6874
  -4521611.71349  -3503707.89047  24592611.0434   24592607.5984
     -3638.5314
   -426070.28249   -314471.53546  25526695.8714   25526693.0084
     -3469.2504
 -11382810.40849  -8851218.33847  23730205.5124   23730200.4574
      1858.2814
 -13052754.82549 -10151045.00247  23040589.9574   23040586.6684
     -2530.8444
  -2236372.91349  -1724078.25846  25451158.0594   25451155.4414
      3413.5784
 -15811162.37649 -12302105.77548  22781743.8244   22781739.3204
      -853.1094
  -9115025.96149  -7085061.49847  24221788.0124   24221785.6994
      2592.7344
 07  4 22  1 13  0.0040000  0 12G 1G 2G12G 6G 4G 5G20G23G30G13G31G 7
  -7645807.37949  -5941161.52747  24316495.0664   24316492.2854
     -3016.5624
 -13369599.80249 -10399622.58247  23335020.4654   23335015.0124
       794.2974
  -1748203.87349  -1343501.54447  25268847.0744   25268843.3944
     -3686.8284
 -12326388.54549  -9586989.99347  23588794.7694   23588791.6804
      2047.3444
  -7687783.66349  -5973346.26847  24095605.5434   24095602.3874
     -2159.7194
  -4466998.16349  -3461151.88647  24603003.4574   24603000.3484
     -3643.3284
   -373995.25449   -273893.62946  25536605.5824   25536601.9454
     -3474.2974
 -11410615.95749  -8872885.00747  23724914.5354   23724908.7464
      1849.0004
 -13014727.99549 -10121413.74147  23047826.2934   23047823.1914
     -2539.5164
  -2287539.51849  -1763948.31046  25441421.4104   25441418.5624
      3408.6884
 -15798293.33649 -12292077.95948  22784192.5274   22784188.5784
      -862.8124
  -9153872.70149  -7115331.66847  24214395.2384   24214393.3484
      2586.8134
 07  4 22  1 13 15.0040000  0 12G 1G 2G12G 6G 4G 5G20G23G30G13G31G 7
  -7600510.38649  -5905865.16047  24325115.1134   24325112.1684
     -3023.4064
 -13381434.09049 -10408844.09647  23332768.4264   23332763.2624
       783.3754
  -1692874.92749  -1300388.10246  25279374.6134   25279371.3054
     -3690.6094
 -12357042.09249  -9610875.87047  23582961.5824   23582958.7154
      2039.4694
  -7655323.32249  -5948052.49747  24101782.6524   24101779.4884
     -2168.6724
  -4412312.56149  -3418539.72147  24613408.8094   24613406.4804
     -3648.3284
   -321844.39449   -233256.63346  25546529.1764   25546526.4144
     -3479.6254
 -11438283.45149  -8894444.08047  23719649.4344   23719643.9734
      1839.6724
 -12976573.51149 -10091682.98347  23055086.8714   23055083.5824
     -2548.1414
  -2338634.30249  -1803762.43946  25431698.0274   25431695.5194
      3403.7504
 -15785279.20549 -12281937.08148  22786669.4344   22786665.2424
      -872.7034
  -9192631.36949  -7145533.19547  24207020.2854   24207017.1094
      2580.7504
 07  4 22  1 13 30.0040000  0 12G 1G 2G12G 6G 4G 5G20G23G30G13G31G 7
  -7555112.53049  -5870490.18147  24333753.6914   24333751.1954
     -3029.7814
 -13393106.30249 -10417939.32147  23330547.3094   23330542.0234
       772.8134
  -1637490.39049  -1257231.32447  25289914.5274   25289911.0704
     -3694.1564
 -12387579.36349  -9634671.14547  23577150.4734   23577148.0904
      2032.0474
  -7622728.64349  -5922654.03647  24107985.4344   24107982.5084
     -2177.3124
  -4357553.75549  -3375870.52347  24623829.8874   24623828.0274
     -3652.9374
   -269616.68349   -192559.69146  25556468.2694   25556465.0624
     -3484.2664
 -11465811.00749  -8915894.10547  23714411.5664   23714405.7664
      1830.5474
 -12938290.08349 -10061851.78447  23062372.1214   23062368.8594
     -2556.4064
  -2389655.44549  -1843519.17446  25421988.9734   25421986.1684
      3399.0474
 -15772118.46349 -12271681.93948  22789173.8094   22789169.4414
      -882.2194
  -9231300.08049  -7175664.66247  24199662.2854   24199658.6484
      2575.0164
 07  4 22  1 13 45.0040000  0 12G 1G 2G12G 6G 4G 5G20G23G30G13G31G 7
  -7509615.92549  -5835038.29747  24342411.5984   24342408.0124
     -3036.4694
 -13404618.06949 -10426909.52647  23328356.8164   23328350.8404
       762.0164
  -1582052.30449  -1214032.82847  25300464.3874   25300461.4224
     -3697.6874
 -12418001.81049  -9658376.96547  23571361.3244   23571358.7034
      2024.2344
  -7590001.90749  -5897152.69447  24114212.9884   24114209.1764
     -2186.2504
  -4302723.89349  -3333145.94447  24634263.7624   24634260.7814
     -3657.7194
   -217314.17949   -151804.56546  25566421.3554   25566417.7274
     -3489.5164
 -11493200.25649  -8937236.38347  23709199.1134   23709193.7234
      1821.2034
 -12899879.61449 -10031921.54847  23069681.5514   23069678.2504
     -2565.0164
  -2440604.34949  -1883219.54746  25412293.0744   25412290.8524
      3394.2344
 -15758813.05549 -12261314.09248  22791705.2934   22791701.2194
      -891.9374
  -9269880.48349  -7205727.31047  24192320.3944   24192317.2114
      2568.9694
 07  4 22  1 14  0.0040000  0 12G 1G 2G12G 6G 4G 5G20G23G30G13G31G 7
  -7464017.81549  -5799507.29947  24351089.1684   24351085.0004
     -3043.2664
 -13415966.38849 -10435752.37247  23326197.1684   23326191.9304
       751.1724
  -1526557.99649  -1170790.52847  25311023.9884   25311020.9964
     -3701.4844
 -12448306.34049  -9681990.88247  23565594.8554   23565592.4694
      2016.4224
  -7557140.21149  -5871546.18547  24120466.4344   24120463.2624
     -2195.2664
  -4247820.24149  -3290363.89447  24644711.5354   24644708.9304
     -3662.7194
   -164934.35749   -110989.09946  25576388.4884   25576385.7384
     -3494.5784
 -11520447.96549  -8958468.36347  23704013.7774   23704008.1844
      1811.7974
 -12861339.27249 -10001890.12247  23077015.3094   23077012.2114
     -2573.6724
  -2491477.61549  -1922861.03346  25402612.8634   25402608.8124
      3389.0634
 -15745360.05849 -12250831.24048  22794265.5594   22794261.4844
      -901.7504
  -9308369.17749  -7235718.49847  24184996.0434   24184992.9614
      2562.8134
 07  4 22  1 14 15.0040000  0 12G 1G 2G12G 6G 4G 5G20G23G30G13G31G 7
  -7418319.39849  -5763898.12847  24359784.6994   24359781.1254
     -3049.7344
 -13427151.97949 -10444468.40647  23324068.3714   23324063.1914
       740.4534
  -1471008.64449  -1127505.36147  25321594.6764   25321590.9654
     -3705.0004
 -12478493.51349  -9705513.35347  23559850.3094   23559847.9344
      2008.7194
  -7524144.74549  -5845835.43047  24126745.4104   24126742.5394
     -2203.9694
  -4192844.04049  -3247525.31847  24655173.1294   24655170.5744
     -3667.2664
   -112478.45849    -70114.42546  25586370.1214   25586367.8204
     -3499.4224
 -11547554.74049  -8979590.51247  23698855.3944   23698850.4964
      1802.5004
 -12822670.32749  -9971758.48947  23084373.8874   23084370.5044
     -2582.0624
  -2542275.98549  -1962444.11746  25392946.4494   25392942.8594
      3384.1564
 -15731760.39049 -12240234.10848  22796853.4264   22796849.0314
      -911.4064
  -9346766.79749  -7265638.72147  24177689.9104   24177686.2774
      2556.8914
 07  4 22  1 14 30.0040000  0 12G 1G 2G12G 6G 4G 5G20G23G30G13G31G 7
  -7372522.66249  -5728212.36647  24368499.5354   24368496.3444
     -3056.4064
 -13438176.31949 -10453058.80547  23321970.5274   23321964.8874
       729.6254
  -1415406.21549  -1084178.77647  25332176.9024   25332172.6644
     -3708.6564
 -12508564.75049  -9728945.47847  23554127.7774   23554125.0124
      2000.8284
  -7491017.56049  -5820022.03847  24133049.0124   24133046.4264
     -2212.7504
  -4137797.21949  -3204631.72447  24665648.2694   24665645.2974
     -3672.1094
    -59948.41449    -29181.91846  25596366.3094   25596364.2624
     -3504.4844
 -11574521.92249  -9000603.87547  23693723.9494   23693719.0784
      1793.0944
 -12783874.86649  -9941528.27147  23091756.5744   23091753.4374
     -2590.5624
  -2593000.39749  -2001969.58346  25383293.5984   25383290.8094
      3379.1254
 -15718015.75849 -12229524.00948  22799469.1684   22799465.2384
      -921.0474
  -9385074.86449  -7295489.16547  24170399.8244   24170396.7854
      2550.8594
 07  4 22  1 14 45.0040000  0 12G 1G 2G12G 6G 4G 5G20G23G30G13G31G 7
  -7326627.54249  -5692449.94747  24377233.2384   24377229.9224
     -3062.9844
 -13449038.77449 -10461523.04647  23319903.4964   23319898.3914
       718.7034
  -1359750.41649  -1040810.63947  25342766.9964   25342764.7774
     -3712.1724
 -12538519.42649  -9752286.78747  23548428.1914   23548424.8164
      1993.0164
  -7457758.34749  -5794105.79047  24139377.9344   24139375.5084
     -2221.7814
  -4082679.61149  -3161682.95847  24676136.8094   24676133.9804
     -3676.9224
     -7344.38649     11808.22846  25606376.8714   25606373.9964
     -3509.3284
 -11601348.69849  -9021507.84247  23688619.2544   23688614.3404
      1783.7504
 -12744952.61549  -9911199.24747  23099163.1054   23099159.9224
     -2599.1094
  -2643650.02749  -2041436.81846  25373655.7624   25373651.7694
      3374.1724
 -15704125.75549 -12218700.63848  22802112.4804   22802107.9924
      -930.8754
  -9423292.53249  -7325269.15847  24163127.1294   24163124.4694
      2544.7814
 07  4 22  1 15  0.0040000  0 12G 1G 2G12G 6G 4G 5G20G23G30G13G31G 7
  -7280633.01349  -5656610.03647  24385985.8094   24385982.5554
     -3069.6414
 -13459738.05949 -10469860.15547  23317867.5354   23317861.8054
       707.7814
  -1304040.28649   -997400.18847  25353368.4264   25353365.7464
     -3715.9224
 -12568356.08649  -9775536.12747  23542749.5434   23542746.8244
      1985.1094
  -7424366.12549  -5768085.87647  24145732.4574   24145729.9304
     -2230.6094
  -4027490.39549  -3118678.33347  24686639.0274   24686636.0394
     -3681.6874
     45334.97949     52857.03446  25616401.9264   25616399.1684
     -3514.5004
 -11628033.74149  -9042301.36547  23683541.2074   23683536.3794
      1774.2664
 -12705902.60949  -9880770.68047  23106594.2934   23106590.5124
     -2607.5784
  -2694223.28849  -2080844.55046  25364031.5664   25364028.4614
      3368.9224
 -15690089.36249 -12207763.21448  22804783.2234   22804779.0434
      -940.5784
  -9461418.37449  -7354977.57847  24155871.8324   24155868.6214
      2538.6094
 07  4 22  1 15 15.0040000  0 12G 1G 2G12G 6G 4G 5G20G23G30G13G31G 7
  -7234540.29449  -5620693.64847  24394756.3164   24394753.0394
     -3076.0624
 -13470274.90349 -10478070.69947  23315862.3244   23315857.0004
       697.0784
  -1248277.01349   -953948.32547  25363979.9654   25363977.0234
     -3719.2974
 -12598075.25949  -9798693.91047  23537094.7384   23537091.5554
      1977.4064
  -7390842.02549  -5741963.20047  24152111.4494   24152110.1804
     -2239.4064
  -3972230.64349  -3075618.77147  24697154.7384   24697151.4064
     -3686.1874
     98088.33449     93963.54046  25626439.9654   25626437.6764
     -3519.2194
 -11654577.56849  -9062984.86247  23678490.0984   23678485.0664
      1764.9534
 -12666726.01049  -9850243.47947  23114049.0434   23114046.1724
     -2615.9694
  -2744720.82049  -2120193.28046  25354422.2304   25354419.6564
      3363.9694
 -15675907.33949 -12196712.28248  22807481.9184   22807478.0864
      -950.2814
  -9499452.91349  -7384614.88947  24148634.1054   24148631.4344
      2532.5944
 07  4 22  1 15 30.0040000  0 12G 1G 2G12G 6G 4G 5G20G23G30G13G31G 7
  -7188349.72049  -5584700.97547  24403546.5434   24403543.0864
     -3082.6414
 -13480649.16749 -10486154.55147  23313888.3404   23313882.5984
       686.0944
  -1192460.93149   -910455.28747  25374601.5354   25374597.8524
     -3722.8124
 -12627676.75849  -9821760.02247  23531461.6684   23531458.5354
      1969.4694
  -7357186.38449  -5715738.02047  24158515.9264   24158513.7694
     -2248.1874
  -3916900.86249  -3032504.68147  24707683.8164   24707680.0704
     -3690.9694
    150915.12449    135127.24446  25636493.5274   25636489.3014
     -3524.2034
 -11680980.04249  -9083558.20147  23673465.9884   23673460.4184
      1755.4064
 -12627423.18049  -9819617.93147  23121528.6604   23121525.6254
     -2624.4374
  -2795142.16549  -2159482.56646  25344827.3094   25344823.5474
      3358.7344
 -15661579.96849 -12185548.09148  22810208.2384   22810204.1524
      -960.0314
  -9537395.97849  -7414180.92947  24141413.9344   24141410.3714
      2526.4224
 07  4 22  1 15 45.0040000  0 12G 1G 2G12G 6G 4G 5G20G23G30G13G31G 7
  -7142061.14949  -5548631.95547  24412355.4344   24412351.6294
     -3089.1254
 -13490860.29649 -10494111.29347  23311945.3244   23311939.5944
       675.3444
  -1136591.82249   -866920.89147  25385232.9654   25385229.4734
     -3726.3594
 -12657159.89449  -9844733.88147  23525850.8164   23525848.1644
      1961.6414
  -7323399.05549  -5689410.24747  24164945.3554   24164943.5234
     -2256.9374
  -3861500.80849  -2989335.74847  24718225.6374   24718221.7234
     -3695.7344
    203815.49049    176348.33346  25646559.3944   25646556.7504
     -3529.1254
 -11707240.40549  -9104020.81747  23668468.6214   23668463.0354
      1746.0004
 -12587993.89449  -9788893.83547  23129031.3164   23129027.8674
     -2632.7664
  -2845486.60049  -2198711.97546  25335247.5354   25335243.6844
      3353.7344
 -15647106.98349 -12174270.45648  22812962.5824   22812958.5704
      -969.6724
  -9575246.85949  -7443675.13047  24134211.2774   24134207.9844
      2520.3444
 07  4 22  1 16  0.0040000  0 12G 1G 2G12G 6G 4G 5G20G23G30G13G31G 7
  -7095675.05149  -5512486.93947  24421182.1374   24421178.0164
     -3095.6564
 -13500908.18749 -10501940.82047  23310033.1444   23310028.0664
       664.4694
  -1080670.18549   -823345.64447  25395873.5434   25395870.6644
     -3729.7814
 -12686524.53349  -9867615.40747  23520262.9184   23520260.5124
      1953.7504
  -7289480.30549  -5662980.04747  24171399.4964   24171397.9614
     -2265.5624
  -3806030.94349  -2946112.50947  24728781.1994   24728778.5084
     -3700.2664
    256788.95249    217626.29846  25656640.3554   25656637.1844
     -3533.9534
 -11733358.49549  -9124372.57147  23663498.4964   23663492.5434
      1736.5004
 -12548438.58949  -9758071.48047  23136558.1054   23136555.2034
     -2641.1564
  -2895753.86049  -2237881.24546  25325681.2774   25325677.2544
      3348.6724
 -15632488.27349 -12162879.27148  22815744.3164   22815740.4024
      -979.3594
  -9613005.34949  -7473097.30947  24127025.7934   24127023.2344
      2514.1884
 07  4 22  1 16 15.0040000  0 12G 1G 2G12G 6G 4G 5G20G23G30G13G31G 7
  -7049192.05249  -5476266.41747  24430027.3634   24430024.0704
     -3102.0784
 -13510793.02049 -10509643.25347  23308152.2854   23308146.6294
       653.6254
  -1024696.66749   -779729.94047  25406525.7624   25406522.3244
     -3733.3444
 -12715770.87449  -9890404.76047  23514697.8714   23514694.8124
      1945.9224
  -7255431.00449  -5636448.15447  24177878.9734   24177877.7504
     -2274.1254
  -3750491.95249  -2902835.36947  24739349.2544   24739347.6564
     -3704.8284
    309834.75149    258960.73346  25666734.3554   25666732.0594
     -3538.7344
 -11759334.37049  -9144613.50847  23658555.2694   23658549.6804
      1727.1094
 -12508758.05849  -9727151.58047  23144109.1914   23144106.6684
     -2649.4844
  -2945943.84249  -2276990.32246  25316130.5594   25316126.2894
      3343.4694
 -15617724.51249 -12151375.04648  22818554.0434   22818550.0124
      -989.0314
  -9650671.56049  -7502447.59647  24119857.9414   24119855.3444
      2508.1724
 07  4 22  1 16 30.0040000  0 12G 1G 2G12G 6G 4G 5G20G23G30G13G31G 7
  -7002612.64649  -5439970.79547  24438890.9414   24438888.2154
     -3108.6094
 -13520515.06749 -10517218.86147  23306302.0594   23306297.1844
       642.6094
   -968671.74549   -736074.18246  25417187.0514   25417183.3594
     -3736.7974
 -12744898.94149  -9913101.95547  23509155.0514   23509151.8944
      1937.8134
  -7221251.37849  -5609814.69047  24184383.5744   24184381.7194
     -2283.1254
  -3694884.31349  -2859504.77547  24749931.7544   24749928.8554
     -3709.5784
    362952.36049    300351.03846  25676842.5124   25676839.4804
     -3543.6094
 -11785168.07649  -9164743.65747  23653639.1524   23653633.9144
      1717.4224
 -12468952.79949  -9696134.52747  23151683.9184   23151680.9844
     -2657.9374
  -2996056.57249  -2316039.26146  25306594.4884   25306590.3244
      3338.2664
 -15602815.93949 -12139757.97048  22821391.0434   22821386.5594
      -998.7664
  -9688245.45549  -7531725.96447  24112708.0194   24112705.2234
      2501.7034
